Wetterdaten: Dienstag, 04.06.2019
Datum Zeit Temp. A. Feuchte A. Luftdruck Regen Wind Richtung Richtung Sonnenschein ET UV Solar Taupunkt Windchill Windböen
04.06.2019 00:00 12,8 °C 94 % 1014,0 hPa 0,0 mm 0,0 km/h (0 Bft) O-SO 113 ° 0 min 0,000 mm 0,0 UV-I 0 W/m² 11,9 °C 12,8 °C 0,0 km/h (0 Bft)
04.06.2019 00:01 12,8 °C 94 % 1014,0 hPa 0,0 mm 0,0 km/h (0 Bft) O-SO 113 ° 0 min 0,000 mm 0,0 UV-I 0 W/m² 11,9 °C 12,8 °C 0,0 km/h (0 Bft)
04.06.2019 00:02 12,8 °C 94 % 1014,0 hPa 0,0 mm 0,0 km/h (0 Bft) O-SO 113 ° 0 min 0,000 mm 0,0 UV-I 0 W/m² 11,9 °C 12,8 °C 0,0 km/h (0 Bft)
04.06.2019 00:03 12,8 °C 94 % 1014,0 hPa 0,0 mm 0,6 km/h (0 Bft) O 84 ° 0 min 0,000 mm 0,0 UV-I 0 W/m² 11,9 °C 12,8 °C 3,2 km/h (1 Bft)
04.06.2019 00:04 12,8 °C 94 % 1013,9 hPa 0,0 mm 0,0 km/h (0 Bft) O 84 ° 0 min 0,000 mm 0,0 UV-I 0 W/m² 11,9 °C 12,8 °C 0,0 km/h (0 Bft)
04.06.2019 00:05 12,8 °C 94 % 1013,9 hPa 0,0 mm 0,0 km/h (0 Bft) O 84 ° 0 min 0,000 mm 0,0 UV-I 0 W/m² 11,9 °C 12,8 °C 0,0 km/h (0 Bft)
04.06.2019 00:06 12,8 °C 94 % 1014,0 hPa 0,0 mm 0,0 km/h (0 Bft) O 84 ° 0 min 0,000 mm 0,0 UV-I 0 W/m² 11,9 °C 12,8 °C 0,0 km/h (0 Bft)
04.06.2019 00:07 12,7 °C 94 % 1014,0 hPa 0,0 mm 0,0 km/h (0 Bft) O 84 ° 0 min 0,000 mm 0,0 UV-I 0 W/m² 11,8 °C 12,7 °C 0,0 km/h (0 Bft)
04.06.2019 00:08 12,7 °C 94 % 1014,0 hPa 0,0 mm 0,1 km/h (0 Bft) O 84 ° 0 min 0,000 mm 0,0 UV-I 0 W/m² 11,8 °C 12,7 °C 1,6 km/h (1 Bft)
04.06.2019 00:09 12,8 °C 94 % 1013,9 hPa 0,0 mm 0,0 km/h (0 Bft) O 84 ° 0 min 0,000 mm 0,0 UV-I 0 W/m² 11,9 °C 12,8 °C 0,0 km/h (0 Bft)
04.06.2019 00:10 12,8 °C 94 % 1013,9 hPa 0,0 mm 0,0 km/h (0 Bft) O 84 ° 0 min 0,000 mm 0,0 UV-I 0 W/m² 11,9 °C 12,8 °C 0,0 km/h (0 Bft)
04.06.2019 00:11 12,7 °C 94 % 1013,9 hPa 0,0 mm 0,7 km/h (0 Bft) O 84 ° 0 min 0,000 mm 0,0 UV-I 0 W/m² 11,8 °C 12,7 °C 3,2 km/h (1 Bft)
04.06.2019 00:12 12,7 °C 94 % 1013,9 hPa 0,0 mm 0,3 km/h (0 Bft) O 82 ° 0 min 0,000 mm 0,0 UV-I 0 W/m² 11,8 °C 12,7 °C 1,6 km/h (1 Bft)
04.06.2019 00:13 12,7 °C 94 % 1013,9 hPa 0,0 mm 0,1 km/h (0 Bft) O 82 ° 0 min 0,000 mm 0,0 UV-I 0 W/m² 11,8 °C 12,7 °C 1,6 km/h (1 Bft)
04.06.2019 00:14 12,7 °C 94 % 1013,9 hPa 0,0 mm 0,0 km/h (0 Bft) O 82 ° 0 min 0,000 mm 0,0 UV-I 0 W/m² 11,8 °C 12,7 °C 0,0 km/h (0 Bft)
04.06.2019 00:15 12,7 °C 94 % 1013,9 hPa 0,0 mm 0,0 km/h (0 Bft) O 82 ° 0 min 0,000 mm 0,0 UV-I 0 W/m² 11,8 °C 12,7 °C 0,0 km/h (0 Bft)
04.06.2019 00:16 12,7 °C 94 % 1013,8 hPa 0,0 mm 0,0 km/h (0 Bft) O 82 ° 0 min 0,000 mm 0,0 UV-I 0 W/m² 11,8 °C 12,7 °C 0,0 km/h (0 Bft)
04.06.2019 00:17 12,6 °C 94 % 1013,8 hPa 0,0 mm 0,0 km/h (0 Bft) O 82 ° 0 min 0,000 mm 0,0 UV-I 0 W/m² 11,7 °C 12,6 °C 0,0 km/h (0 Bft)
04.06.2019 00:18 12,6 °C 94 % 1013,8 hPa 0,0 mm 0,0 km/h (0 Bft) O 82 ° 0 min 0,000 mm 0,0 UV-I 0 W/m² 11,7 °C 12,6 °C 0,0 km/h (0 Bft)
04.06.2019 00:19 12,6 °C 94 % 1013,8 hPa 0,0 mm 0,0 km/h (0 Bft) O 82 ° 0 min 0,000 mm 0,0 UV-I 0 W/m² 11,7 °C 12,6 °C 0,0 km/h (0 Bft)
04.06.2019 00:20 12,6 °C 94 % 1013,8 hPa 0,0 mm 0,1 km/h (0 Bft) O 82 ° 0 min 0,000 mm 0,0 UV-I 0 W/m² 11,7 °C 12,6 °C 1,6 km/h (1 Bft)
04.06.2019 00:21 12,6 °C 94 % 1013,7 hPa 0,0 mm 0,0 km/h (0 Bft) O 82 ° 0 min 0,000 mm 0,0 UV-I 0 W/m² 11,7 °C 12,6 °C 0,0 km/h (0 Bft)
04.06.2019 00:22 12,6 °C 94 % 1013,7 hPa 0,0 mm 0,6 km/h (0 Bft) O 87 ° 0 min 0,000 mm 0,0 UV-I 0 W/m² 11,7 °C 12,6 °C 3,2 km/h (1 Bft)
04.06.2019 00:23 12,6 °C 94 % 1013,7 hPa 0,0 mm 0,7 km/h (0 Bft) O 87 ° 0 min 0,000 mm 0,0 UV-I 0 W/m² 11,7 °C 12,6 °C 3,2 km/h (1 Bft)
04.06.2019 00:24 12,5 °C 94 % 1013,6 hPa 0,0 mm 0,2 km/h (0 Bft) O 87 ° 0 min 0,000 mm 0,0 UV-I 0 W/m² 11,6 °C 12,5 °C 1,6 km/h (1 Bft)
04.06.2019 00:25 12,6 °C 94 % 1013,6 hPa 0,0 mm 0,4 km/h (0 Bft) O 98 ° 0 min 0,000 mm 0,0 UV-I 0 W/m² 11,7 °C 12,6 °C 1,6 km/h (1 Bft)
04.06.2019 00:26 12,6 °C 94 % 1013,6 hPa 0,0 mm 0,5 km/h (0 Bft) O 90 ° 0 min 0,000 mm 0,0 UV-I 0 W/m² 11,7 °C 12,6 °C 1,6 km/h (1 Bft)
04.06.2019 00:27 12,5 °C 94 % 1013,6 hPa 0,0 mm 0,1 km/h (0 Bft) O 90 ° 0 min 0,000 mm 0,0 UV-I 0 W/m² 11,6 °C 12,5 °C 1,6 km/h (1 Bft)
04.06.2019 00:28 12,6 °C 94 % 1013,5 hPa 0,0 mm 0,0 km/h (0 Bft) O 90 ° 0 min 0,000 mm 0,0 UV-I 0 W/m² 11,7 °C 12,6 °C 0,0 km/h (0 Bft)
04.06.2019 00:29 12,6 °C 94 % 1013,5 hPa 0,0 mm 0,1 km/h (0 Bft) O 90 ° 0 min 0,000 mm 0,0 UV-I 0 W/m² 11,7 °C 12,6 °C 1,6 km/h (1 Bft)
04.06.2019 00:30 12,5 °C 94 % 1013,5 hPa 0,0 mm 0,1 km/h (0 Bft) O 90 ° 0 min 0,000 mm 0,0 UV-I 0 W/m² 11,6 °C 12,5 °C 1,6 km/h (1 Bft)
04.06.2019 00:31 12,5 °C 94 % 1013,5 hPa 0,0 mm 0,0 km/h (0 Bft) O 90 ° 0 min 0,000 mm 0,0 UV-I 0 W/m² 11,6 °C 12,5 °C 0,0 km/h (0 Bft)
04.06.2019 00:32 12,5 °C 94 % 1013,5 hPa 0,0 mm 0,1 km/h (0 Bft) O 90 ° 0 min 0,000 mm 0,0 UV-I 0 W/m² 11,6 °C 12,5 °C 1,6 km/h (1 Bft)
04.06.2019 00:33 12,5 °C 94 % 1013,5 hPa 0,0 mm 0,2 km/h (0 Bft) O 90 ° 0 min 0,000 mm 0,0 UV-I 0 W/m² 11,6 °C 12,5 °C 1,6 km/h (1 Bft)
04.06.2019 00:34 12,5 °C 95 % 1013,5 hPa 0,0 mm 0,0 km/h (0 Bft) O 90 ° 0 min 0,000 mm 0,0 UV-I 0 W/m² 11,7 °C 12,5 °C 0,0 km/h (0 Bft)
04.06.2019 00:35 12,5 °C 95 % 1013,4 hPa 0,0 mm 0,0 km/h (0 Bft) O 90 ° 0 min 0,000 mm 0,0 UV-I 0 W/m² 11,7 °C 12,5 °C 0,0 km/h (0 Bft)
04.06.2019 00:36 12,5 °C 95 % 1013,5 hPa 0,0 mm 0,0 km/h (0 Bft) O 90 ° 0 min 0,000 mm 0,0 UV-I 0 W/m² 11,7 °C 12,5 °C 0,0 km/h (0 Bft)
04.06.2019 00:37 12,4 °C 95 % 1013,5 hPa 0,0 mm 0,0 km/h (0 Bft) O 90 ° 0 min 0,000 mm 0,0 UV-I 0 W/m² 11,6 °C 12,4 °C 0,0 km/h (0 Bft)
04.06.2019 00:38 12,4 °C 94 % 1013,4 hPa 0,0 mm 0,0 km/h (0 Bft) O 90 ° 0 min 0,000 mm 0,0 UV-I 0 W/m² 11,5 °C 12,4 °C 0,0 km/h (0 Bft)
04.06.2019 00:39 12,4 °C 94 % 1013,4 hPa 0,0 mm 0,0 km/h (0 Bft) O 90 ° 0 min 0,000 mm 0,0 UV-I 0 W/m² 11,5 °C 12,4 °C 0,0 km/h (0 Bft)
04.06.2019 00:40 12,4 °C 95 % 1013,4 hPa 0,0 mm 0,0 km/h (0 Bft) O 90 ° 0 min 0,000 mm 0,0 UV-I 0 W/m² 11,6 °C 12,4 °C 0,0 km/h (0 Bft)
04.06.2019 00:41 12,4 °C 95 % 1013,4 hPa 0,0 mm 0,0 km/h (0 Bft) O 90 ° 0 min 0,000 mm 0,0 UV-I 0 W/m² 11,6 °C 12,4 °C 0,0 km/h (0 Bft)
04.06.2019 00:42 12,4 °C 95 % 1013,4 hPa 0,0 mm 0,0 km/h (0 Bft) O 90 ° 0 min 0,000 mm 0,0 UV-I 0 W/m² 11,6 °C 12,4 °C 0,0 km/h (0 Bft)
04.06.2019 00:43 12,4 °C 95 % 1013,4 hPa 0,0 mm 0,0 km/h (0 Bft) O 90 ° 0 min 0,000 mm 0,0 UV-I 0 W/m² 11,6 °C 12,4 °C 0,0 km/h (0 Bft)
04.06.2019 00:44 12,5 °C 95 % 1013,4 hPa 0,0 mm 0,0 km/h (0 Bft) O 90 ° 0 min 0,000 mm 0,0 UV-I 0 W/m² 11,7 °C 12,5 °C 0,0 km/h (0 Bft)
04.06.2019 00:45 12,6 °C 95 % 1013,4 hPa 0,0 mm 0,0 km/h (0 Bft) O 90 ° 0 min 0,000 mm 0,0 UV-I 0 W/m² 11,8 °C 12,6 °C 0,0 km/h (0 Bft)
04.06.2019 00:46 12,5 °C 95 % 1013,4 hPa 0,0 mm 0,0 km/h (0 Bft) O 90 ° 0 min 0,000 mm 0,0 UV-I 0 W/m² 11,7 °C 12,5 °C 0,0 km/h (0 Bft)
04.06.2019 00:47 12,4 °C 94 % 1013,3 hPa 0,0 mm 0,0 km/h (0 Bft) O 90 ° 0 min 0,000 mm 0,0 UV-I 0 W/m² 11,5 °C 12,4 °C 0,0 km/h (0 Bft)
04.06.2019 00:48 12,4 °C 94 % 1013,3 hPa 0,0 mm 0,0 km/h (0 Bft) O 90 ° 0 min 0,000 mm 0,0 UV-I 0 W/m² 11,5 °C 12,4 °C 0,0 km/h (0 Bft)
04.06.2019 00:49 12,4 °C 95 % 1013,2 hPa 0,0 mm 0,0 km/h (0 Bft) O 90 ° 0 min 0,000 mm 0,0 UV-I 0 W/m² 11,6 °C 12,4 °C 0,0 km/h (0 Bft)
04.06.2019 00:50 12,3 °C 95 % 1013,2 hPa 0,0 mm 0,0 km/h (0 Bft) O 90 ° 0 min 0,000 mm 0,0 UV-I 0 W/m² 11,5 °C 12,3 °C 0,0 km/h (0 Bft)
04.06.2019 00:51 12,3 °C 94 % 1013,2 hPa 0,0 mm 0,0 km/h (0 Bft) O 90 ° 0 min 0,000 mm 0,0 UV-I 0 W/m² 11,4 °C 12,3 °C 0,0 km/h (0 Bft)
04.06.2019 00:52 12,3 °C 94 % 1013,2 hPa 0,0 mm 0,0 km/h (0 Bft) O 90 ° 0 min 0,000 mm 0,0 UV-I 0 W/m² 11,4 °C 12,3 °C 0,0 km/h (0 Bft)
04.06.2019 00:53 12,4 °C 95 % 1013,2 hPa 0,0 mm 0,0 km/h (0 Bft) O 90 ° 0 min 0,000 mm 0,0 UV-I 0 W/m² 11,6 °C 12,4 °C 0,0 km/h (0 Bft)
04.06.2019 00:54 12,3 °C 94 % 1013,2 hPa 0,0 mm 0,0 km/h (0 Bft) O 90 ° 0 min 0,000 mm 0,0 UV-I 0 W/m² 11,4 °C 12,3 °C 0,0 km/h (0 Bft)
04.06.2019 00:55 12,3 °C 94 % 1013,2 hPa 0,0 mm 0,0 km/h (0 Bft) O 90 ° 0 min 0,000 mm 0,0 UV-I 0 W/m² 11,4 °C 12,3 °C 0,0 km/h (0 Bft)
04.06.2019 00:56 12,3 °C 94 % 1013,2 hPa 0,0 mm 0,0 km/h (0 Bft) O 90 ° 0 min 0,000 mm 0,0 UV-I 0 W/m² 11,4 °C 12,3 °C 0,0 km/h (0 Bft)
04.06.2019 00:57 12,3 °C 95 % 1013,2 hPa 0,0 mm 0,0 km/h (0 Bft) O 90 ° 0 min 0,000 mm 0,0 UV-I 0 W/m² 11,5 °C 12,3 °C 0,0 km/h (0 Bft)
04.06.2019 00:58 12,4 °C 95 % 1013,2 hPa 0,0 mm 0,0 km/h (0 Bft) O 90 ° 0 min 0,000 mm 0,0 UV-I 0 W/m² 11,6 °C 12,4 °C 0,0 km/h (0 Bft)
04.06.2019 00:59 12,4 °C 95 % 1013,2 hPa 0,0 mm 0,0 km/h (0 Bft) O 90 ° 0 min 0,000 mm 0,0 UV-I 0 W/m² 11,6 °C 12,4 °C 0,0 km/h (0 Bft)
04.06.2019 01:00 12,3 °C 95 % 1013,2 hPa 0,0 mm 0,0 km/h (0 Bft) O 90 ° 0 min 0,000 mm 0,0 UV-I 0 W/m² 11,5 °C 12,3 °C 0,0 km/h (0 Bft)
04.06.2019 01:01 12,3 °C 95 % 1013,2 hPa 0,0 mm 0,0 km/h (0 Bft) O 90 ° 0 min 0,000 mm 0,0 UV-I 0 W/m² 11,5 °C 12,3 °C 0,0 km/h (0 Bft)
04.06.2019 01:02 12,4 °C 95 % 1013,2 hPa 0,0 mm 0,0 km/h (0 Bft) O 90 ° 0 min 0,000 mm 0,0 UV-I 0 W/m² 11,6 °C 12,4 °C 0,0 km/h (0 Bft)
04.06.2019 01:03 12,3 °C 94 % 1013,2 hPa 0,0 mm 0,0 km/h (0 Bft) O 90 ° 0 min 0,000 mm 0,0 UV-I 0 W/m² 11,4 °C 12,3 °C 0,0 km/h (0 Bft)
04.06.2019 01:04 12,3 °C 95 % 1013,1 hPa 0,0 mm 0,0 km/h (0 Bft) O 90 ° 0 min 0,000 mm 0,0 UV-I 0 W/m² 11,5 °C 12,3 °C 0,0 km/h (0 Bft)
04.06.2019 01:05 12,3 °C 95 % 1013,1 hPa 0,0 mm 0,0 km/h (0 Bft) O 90 ° 0 min 0,000 mm 0,0 UV-I 0 W/m² 11,5 °C 12,3 °C 0,0 km/h (0 Bft)
04.06.2019 01:06 12,3 °C 95 % 1013,1 hPa 0,0 mm 0,0 km/h (0 Bft) O 90 ° 0 min 0,000 mm 0,0 UV-I 0 W/m² 11,5 °C 12,3 °C 0,0 km/h (0 Bft)
04.06.2019 01:07 12,3 °C 95 % 1013,1 hPa 0,0 mm 0,0 km/h (0 Bft) O 90 ° 0 min 0,000 mm 0,0 UV-I 0 W/m² 11,5 °C 12,3 °C 0,0 km/h (0 Bft)
04.06.2019 01:08 12,3 °C 94 % 1013,1 hPa 0,0 mm 0,0 km/h (0 Bft) O 90 ° 0 min 0,000 mm 0,0 UV-I 0 W/m² 11,4 °C 12,3 °C 0,0 km/h (0 Bft)
04.06.2019 01:09 12,3 °C 95 % 1013,1 hPa 0,0 mm 0,0 km/h (0 Bft) O 90 ° 0 min 0,000 mm 0,0 UV-I 0 W/m² 11,5 °C 12,3 °C 0,0 km/h (0 Bft)
04.06.2019 01:10 12,2 °C 95 % 1013,1 hPa 0,0 mm 0,0 km/h (0 Bft) O 90 ° 0 min 0,000 mm 0,0 UV-I 0 W/m² 11,4 °C 12,2 °C 0,0 km/h (0 Bft)
04.06.2019 01:11 12,2 °C 95 % 1013,1 hPa 0,0 mm 0,0 km/h (0 Bft) O 90 ° 0 min 0,000 mm 0,0 UV-I 0 W/m² 11,4 °C 12,2 °C 0,0 km/h (0 Bft)
04.06.2019 01:12 12,2 °C 95 % 1013,1 hPa 0,0 mm 0,0 km/h (0 Bft) O 90 ° 0 min 0,000 mm 0,0 UV-I 0 W/m² 11,4 °C 12,2 °C 0,0 km/h (0 Bft)
04.06.2019 01:13 12,2 °C 95 % 1013,0 hPa 0,0 mm 0,0 km/h (0 Bft) O 90 ° 0 min 0,000 mm 0,0 UV-I 0 W/m² 11,4 °C 12,2 °C 0,0 km/h (0 Bft)
04.06.2019 01:14 12,2 °C 95 % 1013,0 hPa 0,0 mm 0,0 km/h (0 Bft) O 90 ° 0 min 0,000 mm 0,0 UV-I 0 W/m² 11,4 °C 12,2 °C 0,0 km/h (0 Bft)
04.06.2019 01:15 12,2 °C 95 % 1013,0 hPa 0,0 mm 0,0 km/h (0 Bft) O 90 ° 0 min 0,000 mm 0,0 UV-I 0 W/m² 11,4 °C 12,2 °C 0,0 km/h (0 Bft)
04.06.2019 01:16 12,2 °C 95 % 1013,0 hPa 0,0 mm 0,0 km/h (0 Bft) O 90 ° 0 min 0,000 mm 0,0 UV-I 0 W/m² 11,4 °C 12,2 °C 0,0 km/h (0 Bft)
04.06.2019 01:17 12,2 °C 95 % 1013,0 hPa 0,0 mm 0,0 km/h (0 Bft) O 90 ° 0 min 0,000 mm 0,0 UV-I 0 W/m² 11,4 °C 12,2 °C 0,0 km/h (0 Bft)
04.06.2019 01:18 12,2 °C 95 % 1013,0 hPa 0,0 mm 0,0 km/h (0 Bft) O 90 ° 0 min 0,000 mm 0,0 UV-I 0 W/m² 11,4 °C 12,2 °C 0,0 km/h (0 Bft)
04.06.2019 01:19 12,2 °C 95 % 1012,9 hPa 0,0 mm 0,0 km/h (0 Bft) O 90 ° 0 min 0,000 mm 0,0 UV-I 0 W/m² 11,4 °C 12,2 °C 0,0 km/h (0 Bft)
04.06.2019 01:20 12,2 °C 95 % 1013,0 hPa 0,0 mm 0,0 km/h (0 Bft) O 90 ° 0 min 0,000 mm 0,0 UV-I 0 W/m² 11,4 °C 12,2 °C 0,0 km/h (0 Bft)
04.06.2019 01:21 12,2 °C 95 % 1013,0 hPa 0,0 mm 0,0 km/h (0 Bft) O 90 ° 0 min 0,000 mm 0,0 UV-I 0 W/m² 11,4 °C 12,2 °C 0,0 km/h (0 Bft)
04.06.2019 01:22 12,2 °C 95 % 1012,9 hPa 0,0 mm 0,0 km/h (0 Bft) O 90 ° 0 min 0,000 mm 0,0 UV-I 0 W/m² 11,4 °C 12,2 °C 0,0 km/h (0 Bft)
04.06.2019 01:23 12,1 °C 95 % 1012,9 hPa 0,0 mm 0,0 km/h (0 Bft) O 90 ° 0 min 0,000 mm 0,0 UV-I 0 W/m² 11,3 °C 12,1 °C 0,0 km/h (0 Bft)
04.06.2019 01:24 12,1 °C 95 % 1012,9 hPa 0,0 mm 0,0 km/h (0 Bft) O 90 ° 0 min 0,000 mm 0,0 UV-I 0 W/m² 11,3 °C 12,1 °C 0,0 km/h (0 Bft)
04.06.2019 01:25 12,1 °C 95 % 1012,9 hPa 0,0 mm 0,0 km/h (0 Bft) O 90 ° 0 min 0,000 mm 0,0 UV-I 0 W/m² 11,3 °C 12,1 °C 0,0 km/h (0 Bft)
04.06.2019 01:26 12,1 °C 95 % 1012,9 hPa 0,0 mm 2,6 km/h (1 Bft) N 360 ° 0 min 0,000 mm 0,0 UV-I 0 W/m² 11,3 °C 12,1 °C 4,8 km/h (1 Bft)
04.06.2019 01:27 12,1 °C 95 % 1012,9 hPa 0,0 mm 0,3 km/h (0 Bft) N 360 ° 0 min 0,000 mm 0,0 UV-I 0 W/m² 11,3 °C 12,1 °C 3,2 km/h (1 Bft)
04.06.2019 01:28 12,2 °C 95 % 1012,8 hPa 0,0 mm 1,7 km/h (1 Bft) N 360 ° 0 min 0,000 mm 0,0 UV-I 0 W/m² 11,4 °C 12,2 °C 6,4 km/h (2 Bft)
04.06.2019 01:29 12,1 °C 95 % 1012,9 hPa 0,0 mm 1,0 km/h (0 Bft) N 350 ° 0 min 0,000 mm 0,0 UV-I 0 W/m² 11,3 °C 12,1 °C 3,2 km/h (1 Bft)
04.06.2019 01:30 12,1 °C 95 % 1012,9 hPa 0,0 mm 0,5 km/h (0 Bft) N 355 ° 0 min 0,000 mm 0,0 UV-I 0 W/m² 11,3 °C 12,1 °C 1,6 km/h (1 Bft)
04.06.2019 01:31 12,2 °C 95 % 1012,9 hPa 0,0 mm 1,0 km/h (0 Bft) N 355 ° 0 min 0,000 mm 0,0 UV-I 0 W/m² 11,4 °C 12,2 °C 3,2 km/h (1 Bft)
04.06.2019 01:32 12,2 °C 95 % 1012,9 hPa 0,0 mm 3,7 km/h (1 Bft) NW 309 ° 0 min 0,000 mm 0,0 UV-I 0 W/m² 11,4 °C 12,2 °C 6,4 km/h (2 Bft)
04.06.2019 01:33 12,2 °C 95 % 1012,9 hPa 0,0 mm 2,5 km/h (1 Bft) W 268 ° 0 min 0,000 mm 0,0 UV-I 0 W/m² 11,4 °C 12,2 °C 3,2 km/h (1 Bft)
04.06.2019 01:34 12,2 °C 95 % 1013,0 hPa 0,0 mm 3,7 km/h (1 Bft) W 275 ° 0 min 0,000 mm 0,0 UV-I 0 W/m² 11,4 °C 12,2 °C 8,0 km/h (2 Bft)
04.06.2019 01:35 12,2 °C 95 % 1013,0 hPa 0,0 mm 2,0 km/h (1 Bft) NW 305 ° 0 min 0,000 mm 0,0 UV-I 0 W/m² 11,4 °C 12,2 °C 4,8 km/h (1 Bft)
04.06.2019 01:36 12,3 °C 95 % 1013,0 hPa 0,0 mm 1,0 km/h (0 Bft) NW 305 ° 0 min 0,000 mm 0,0 UV-I 0 W/m² 11,5 °C 12,3 °C 3,2 km/h (1 Bft)
04.06.2019 01:37 12,3 °C 95 % 1012,9 hPa 0,0 mm 0,9 km/h (0 Bft) W-NW 299 ° 0 min 0,000 mm 0,0 UV-I 0 W/m² 11,5 °C 12,3 °C 3,2 km/h (1 Bft)
04.06.2019 01:38 12,2 °C 95 % 1013,0 hPa 0,0 mm 0,2 km/h (0 Bft) W-NW 299 ° 0 min 0,000 mm 0,0 UV-I 0 W/m² 11,4 °C 12,2 °C 1,6 km/h (1 Bft)
04.06.2019 01:39 12,2 °C 95 % 1012,9 hPa 0,0 mm 0,0 km/h (0 Bft) W-NW 299 ° 0 min 0,000 mm 0,0 UV-I 0 W/m² 11,4 °C 12,2 °C 0,0 km/h (0 Bft)
04.06.2019 01:40 12,2 °C 95 % 1012,9 hPa 0,0 mm 0,0 km/h (0 Bft) W-NW 299 ° 0 min 0,000 mm 0,0 UV-I 0 W/m² 11,4 °C 12,2 °C 0,0 km/h (0 Bft)
04.06.2019 01:41 12,1 °C 95 % 1012,9 hPa 0,0 mm 0,0 km/h (0 Bft) W-NW 299 ° 0 min 0,000 mm 0,0 UV-I 0 W/m² 11,3 °C 12,1 °C 0,0 km/h (0 Bft)
04.06.2019 01:42 12,1 °C 95 % 1012,9 hPa 0,0 mm 0,0 km/h (0 Bft) W-NW 299 ° 0 min 0,000 mm 0,0 UV-I 0 W/m² 11,3 °C 12,1 °C 0,0 km/h (0 Bft)
04.06.2019 01:43 12,1 °C 95 % 1012,9 hPa 0,0 mm 0,0 km/h (0 Bft) W-NW 299 ° 0 min 0,000 mm 0,0 UV-I 0 W/m² 11,3 °C 12,1 °C 0,0 km/h (0 Bft)
04.06.2019 01:44 12,1 °C 95 % 1012,8 hPa 0,0 mm 0,0 km/h (0 Bft) W-NW 299 ° 0 min 0,000 mm 0,0 UV-I 0 W/m² 11,3 °C 12,1 °C 0,0 km/h (0 Bft)
04.06.2019 01:45 12,1 °C 95 % 1012,8 hPa 0,0 mm 0,0 km/h (0 Bft) W-NW 299 ° 0 min 0,000 mm 0,0 UV-I 0 W/m² 11,3 °C 12,1 °C 0,0 km/h (0 Bft)
04.06.2019 01:46 12,0 °C 94 % 1012,8 hPa 0,0 mm 0,0 km/h (0 Bft) W-NW 299 ° 0 min 0,000 mm 0,0 UV-I 0 W/m² 11,1 °C 12,0 °C 0,0 km/h (0 Bft)
04.06.2019 01:47 12,0 °C 95 % 1012,8 hPa 0,0 mm 0,0 km/h (0 Bft) W-NW 299 ° 0 min 0,000 mm 0,0 UV-I 0 W/m² 11,2 °C 12,0 °C 0,0 km/h (0 Bft)
04.06.2019 01:48 11,9 °C 94 % 1012,7 hPa 0,0 mm 0,0 km/h (0 Bft) W-NW 299 ° 0 min 0,000 mm 0,0 UV-I 0 W/m² 11,0 °C 11,9 °C 0,0 km/h (0 Bft)
04.06.2019 01:49 11,9 °C 94 % 1012,7 hPa 0,0 mm 0,0 km/h (0 Bft) W-NW 299 ° 0 min 0,000 mm 0,0 UV-I 0 W/m² 11,0 °C 11,9 °C 0,0 km/h (0 Bft)
04.06.2019 01:50 11,9 °C 94 % 1012,7 hPa 0,0 mm 0,0 km/h (0 Bft) W-NW 299 ° 0 min 0,000 mm 0,0 UV-I 0 W/m² 11,0 °C 11,9 °C 0,0 km/h (0 Bft)
04.06.2019 01:51 11,9 °C 95 % 1012,7 hPa 0,0 mm 0,0 km/h (0 Bft) W-NW 299 ° 0 min 0,000 mm 0,0 UV-I 0 W/m² 11,1 °C 11,9 °C 0,0 km/h (0 Bft)
04.06.2019 01:52 11,9 °C 95 % 1012,7 hPa 0,0 mm 0,0 km/h (0 Bft) W-NW 299 ° 0 min 0,000 mm 0,0 UV-I 0 W/m² 11,1 °C 11,9 °C 0,0 km/h (0 Bft)
04.06.2019 01:53 11,9 °C 95 % 1012,7 hPa 0,0 mm 0,0 km/h (0 Bft) W-NW 299 ° 0 min 0,000 mm 0,0 UV-I 0 W/m² 11,1 °C 11,9 °C 0,0 km/h (0 Bft)
04.06.2019 01:54 11,9 °C 95 % 1012,7 hPa 0,0 mm 0,0 km/h (0 Bft) W-NW 299 ° 0 min 0,000 mm 0,0 UV-I 0 W/m² 11,1 °C 11,9 °C 0,0 km/h (0 Bft)
04.06.2019 01:55 11,9 °C 95 % 1012,7 hPa 0,0 mm 0,0 km/h (0 Bft) W-NW 299 ° 0 min 0,000 mm 0,0 UV-I 0 W/m² 11,1 °C 11,9 °C 0,0 km/h (0 Bft)
04.06.2019 01:56 12,0 °C 95 % 1012,6 hPa 0,0 mm 0,0 km/h (0 Bft) NW 309 ° 0 min 0,000 mm 0,0 UV-I 0 W/m² 11,2 °C 12,0 °C 0,0 km/h (0 Bft)
04.06.2019 01:57 12,0 °C 95 % 1012,6 hPa 0,0 mm 0,4 km/h (0 Bft) NW 309 ° 0 min 0,000 mm 0,0 UV-I 0 W/m² 11,2 °C 12,0 °C 1,6 km/h (1 Bft)
04.06.2019 01:58 12,0 °C 95 % 1012,6 hPa 0,0 mm 0,0 km/h (0 Bft) NW 309 ° 0 min 0,000 mm 0,0 UV-I 0 W/m² 11,2 °C 12,0 °C 0,0 km/h (0 Bft)
04.06.2019 01:59 11,9 °C 95 % 1012,6 hPa 0,0 mm 0,0 km/h (0 Bft) NW 309 ° 0 min 0,000 mm 0,0 UV-I 0 W/m² 11,1 °C 11,9 °C 0,0 km/h (0 Bft)
04.06.2019 02:00 11,9 °C 95 % 1012,7 hPa 0,0 mm 0,0 km/h (0 Bft) NW 309 ° 0 min 0,000 mm 0,0 UV-I 0 W/m² 11,1 °C 11,9 °C 0,0 km/h (0 Bft)
04.06.2019 02:01 11,9 °C 95 % 1012,7 hPa 0,0 mm 0,1 km/h (0 Bft) NW 309 ° 0 min 0,000 mm 0,0 UV-I 0 W/m² 11,1 °C 11,9 °C 1,6 km/h (1 Bft)
04.06.2019 02:02 11,9 °C 95 % 1012,6 hPa 0,0 mm 0,0 km/h (0 Bft) NW 309 ° 0 min 0,000 mm 0,0 UV-I 0 W/m² 11,1 °C 11,9 °C 0,0 km/h (0 Bft)
04.06.2019 02:03 11,9 °C 95 % 1012,6 hPa 0,0 mm 0,0 km/h (0 Bft) NW 309 ° 0 min 0,000 mm 0,0 UV-I 0 W/m² 11,1 °C 11,9 °C 0,0 km/h (0 Bft)
04.06.2019 02:04 11,9 °C 95 % 1012,6 hPa 0,0 mm 0,0 km/h (0 Bft) NW 309 ° 0 min 0,000 mm 0,0 UV-I 0 W/m² 11,1 °C 11,9 °C 0,0 km/h (0 Bft)
04.06.2019 02:05 11,9 °C 95 % 1012,6 hPa 0,0 mm 0,1 km/h (0 Bft) NW 309 ° 0 min 0,000 mm 0,0 UV-I 0 W/m² 11,1 °C 11,9 °C 1,6 km/h (1 Bft)
04.06.2019 02:06 11,9 °C 95 % 1012,7 hPa 0,0 mm 0,0 km/h (0 Bft) NW 309 ° 0 min 0,000 mm 0,0 UV-I 0 W/m² 11,1 °C 11,9 °C 0,0 km/h (0 Bft)
04.06.2019 02:07 11,9 °C 95 % 1012,6 hPa 0,0 mm 0,4 km/h (0 Bft) NW 309 ° 0 min 0,000 mm 0,0 UV-I 0 W/m² 11,1 °C 11,9 °C 3,2 km/h (1 Bft)
04.06.2019 02:08 11,9 °C 95 % 1012,6 hPa 0,0 mm 0,2 km/h (0 Bft) NW 309 ° 0 min 0,000 mm 0,0 UV-I 0 W/m² 11,1 °C 11,9 °C 1,6 km/h (1 Bft)
04.06.2019 02:09 11,9 °C 95 % 1012,6 hPa 0,0 mm 0,0 km/h (0 Bft) NW 309 ° 0 min 0,000 mm 0,0 UV-I 0 W/m² 11,1 °C 11,9 °C 0,0 km/h (0 Bft)
04.06.2019 02:10 11,9 °C 95 % 1012,5 hPa 0,0 mm 0,0 km/h (0 Bft) NW 309 ° 0 min 0,000 mm 0,0 UV-I 0 W/m² 11,1 °C 11,9 °C 0,0 km/h (0 Bft)
04.06.2019 02:11 11,9 °C 95 % 1012,5 hPa 0,0 mm 0,0 km/h (0 Bft) NW 309 ° 0 min 0,000 mm 0,0 UV-I 0 W/m² 11,1 °C 11,9 °C 0,0 km/h (0 Bft)
04.06.2019 02:12 11,8 °C 95 % 1012,6 hPa 0,0 mm 0,0 km/h (0 Bft) NW 309 ° 0 min 0,000 mm 0,0 UV-I 0 W/m² 11,0 °C 11,8 °C 0,0 km/h (0 Bft)
04.06.2019 02:13 11,8 °C 95 % 1012,5 hPa 0,0 mm 0,0 km/h (0 Bft) NW 309 ° 0 min 0,000 mm 0,0 UV-I 0 W/m² 11,0 °C 11,8 °C 0,0 km/h (0 Bft)
04.06.2019 02:14 11,8 °C 95 % 1012,5 hPa 0,0 mm 0,9 km/h (0 Bft) NW 309 ° 0 min 0,000 mm 0,0 UV-I 0 W/m² 11,0 °C 11,8 °C 3,2 km/h (1 Bft)
04.06.2019 02:15 11,8 °C 95 % 1012,5 hPa 0,0 mm 0,9 km/h (0 Bft) NW 309 ° 0 min 0,000 mm 0,0 UV-I 0 W/m² 11,0 °C 11,8 °C 3,2 km/h (1 Bft)
04.06.2019 02:16 11,9 °C 95 % 1012,6 hPa 0,0 mm 0,0 km/h (0 Bft) NW 309 ° 0 min 0,000 mm 0,0 UV-I 0 W/m² 11,1 °C 11,9 °C 0,0 km/h (0 Bft)
04.06.2019 02:17 11,8 °C 95 % 1012,6 hPa 0,0 mm 0,5 km/h (0 Bft) NW 309 ° 0 min 0,000 mm 0,0 UV-I 0 W/m² 11,0 °C 11,8 °C 1,6 km/h (1 Bft)
04.06.2019 02:18 11,8 °C 95 % 1012,6 hPa 0,0 mm 0,2 km/h (0 Bft) NW 309 ° 0 min 0,000 mm 0,0 UV-I 0 W/m² 11,0 °C 11,8 °C 1,6 km/h (1 Bft)
04.06.2019 02:19 11,9 °C 95 % 1012,6 hPa 0,0 mm 0,0 km/h (0 Bft) NW 309 ° 0 min 0,000 mm 0,0 UV-I 0 W/m² 11,1 °C 11,9 °C 0,0 km/h (0 Bft)
04.06.2019 02:20 11,8 °C 95 % 1012,6 hPa 0,0 mm 0,0 km/h (0 Bft) NW 309 ° 0 min 0,000 mm 0,0 UV-I 0 W/m² 11,0 °C 11,8 °C 0,0 km/h (0 Bft)
04.06.2019 02:21 11,8 °C 95 % 1012,6 hPa 0,0 mm 0,0 km/h (0 Bft) NW 309 ° 0 min 0,000 mm 0,0 UV-I 0 W/m² 11,0 °C 11,8 °C 0,0 km/h (0 Bft)
04.06.2019 02:22 11,8 °C 95 % 1012,6 hPa 0,0 mm 0,0 km/h (0 Bft) NW 309 ° 0 min 0,000 mm 0,0 UV-I 0 W/m² 11,0 °C 11,8 °C 0,0 km/h (0 Bft)
04.06.2019 02:23 11,8 °C 95 % 1012,6 hPa 0,0 mm 0,0 km/h (0 Bft) NW 309 ° 0 min 0,000 mm 0,0 UV-I 0 W/m² 11,0 °C 11,8 °C 0,0 km/h (0 Bft)
04.06.2019 02:24 11,8 °C 95 % 1012,6 hPa 0,0 mm 1,8 km/h (1 Bft) N-NW 345 ° 0 min 0,000 mm 0,0 UV-I 0 W/m² 11,0 °C 11,8 °C 4,8 km/h (1 Bft)
04.06.2019 02:25 11,8 °C 95 % 1012,6 hPa 0,0 mm 0,0 km/h (0 Bft) N-NW 345 ° 0 min 0,000 mm 0,0 UV-I 0 W/m² 11,0 °C 11,8 °C 0,0 km/h (0 Bft)
04.06.2019 02:26 11,7 °C 95 % 1012,6 hPa 0,0 mm 1,1 km/h (1 Bft) N-NW 345 ° 0 min 0,000 mm 0,0 UV-I 0 W/m² 10,9 °C 11,7 °C 3,2 km/h (1 Bft)
04.06.2019 02:27 11,7 °C 95 % 1012,6 hPa 0,0 mm 0,1 km/h (0 Bft) N-NW 345 ° 0 min 0,000 mm 0,0 UV-I 0 W/m² 10,9 °C 11,7 °C 1,6 km/h (1 Bft)
04.06.2019 02:28 11,7 °C 95 % 1012,6 hPa 0,0 mm 0,0 km/h (0 Bft) N-NW 345 ° 0 min 0,000 mm 0,0 UV-I 0 W/m² 10,9 °C 11,7 °C 0,0 km/h (0 Bft)
04.06.2019 02:29 11,7 °C 95 % 1012,5 hPa 0,0 mm 2,1 km/h (1 Bft) SW 226 ° 0 min 0,000 mm 0,0 UV-I 0 W/m² 10,9 °C 11,7 °C 4,8 km/h (1 Bft)
04.06.2019 02:30 11,8 °C 95 % 1012,6 hPa 0,0 mm 3,9 km/h (1 Bft) W 259 ° 0 min 0,000 mm 0,0 UV-I 0 W/m² 11,0 °C 11,8 °C 6,4 km/h (2 Bft)
04.06.2019 02:31 11,8 °C 95 % 1012,5 hPa 0,0 mm 4,1 km/h (1 Bft) S-SW 206 ° 0 min 0,000 mm 0,0 UV-I 0 W/m² 11,0 °C 11,8 °C 6,4 km/h (2 Bft)
04.06.2019 02:32 11,8 °C 95 % 1012,6 hPa 0,0 mm 0,5 km/h (0 Bft) S-SW 206 ° 0 min 0,000 mm 0,0 UV-I 0 W/m² 11,0 °C 11,8 °C 3,2 km/h (1 Bft)
04.06.2019 02:33 11,8 °C 95 % 1012,5 hPa 0,0 mm 0,0 km/h (0 Bft) S-SW 206 ° 0 min 0,000 mm 0,0 UV-I 0 W/m² 11,0 °C 11,8 °C 0,0 km/h (0 Bft)
04.06.2019 02:34 11,8 °C 95 % 1012,5 hPa 0,0 mm 0,0 km/h (0 Bft) S-SW 206 ° 0 min 0,000 mm 0,0 UV-I 0 W/m² 11,0 °C 11,8 °C 0,0 km/h (0 Bft)
04.06.2019 02:35 11,8 °C 95 % 1012,4 hPa 0,0 mm 0,0 km/h (0 Bft) S-SW 206 ° 0 min 0,000 mm 0,0 UV-I 0 W/m² 11,0 °C 11,8 °C 0,0 km/h (0 Bft)
04.06.2019 02:36 11,8 °C 95 % 1012,4 hPa 0,0 mm 0,0 km/h (0 Bft) S-SW 206 ° 0 min 0,000 mm 0,0 UV-I 0 W/m² 11,0 °C 11,8 °C 0,0 km/h (0 Bft)
04.06.2019 02:37 11,8 °C 95 % 1012,5 hPa 0,0 mm 0,0 km/h (0 Bft) S-SW 206 ° 0 min 0,000 mm 0,0 UV-I 0 W/m² 11,0 °C 11,8 °C 0,0 km/h (0 Bft)
04.06.2019 02:38 11,7 °C 94 % 1012,4 hPa 0,0 mm 0,0 km/h (0 Bft) S-SW 206 ° 0 min 0,000 mm 0,0 UV-I 0 W/m² 10,8 °C 11,7 °C 0,0 km/h (0 Bft)
04.06.2019 02:39 11,7 °C 94 % 1012,5 hPa 0,0 mm 0,0 km/h (0 Bft) S-SW 206 ° 0 min 0,000 mm 0,0 UV-I 0 W/m² 10,8 °C 11,7 °C 0,0 km/h (0 Bft)
04.06.2019 02:40 11,7 °C 94 % 1012,5 hPa 0,0 mm 0,0 km/h (0 Bft) S-SW 206 ° 0 min 0,000 mm 0,0 UV-I 0 W/m² 10,8 °C 11,7 °C 0,0 km/h (0 Bft)
04.06.2019 02:41 11,6 °C 94 % 1012,4 hPa 0,0 mm 0,0 km/h (0 Bft) S-SW 206 ° 0 min 0,000 mm 0,0 UV-I 0 W/m² 10,7 °C 11,6 °C 0,0 km/h (0 Bft)
04.06.2019 02:42 11,6 °C 94 % 1012,5 hPa 0,0 mm 0,0 km/h (0 Bft) S-SW 206 ° 0 min 0,000 mm 0,0 UV-I 0 W/m² 10,7 °C 11,6 °C 0,0 km/h (0 Bft)
04.06.2019 02:43 11,6 °C 94 % 1012,4 hPa 0,0 mm 0,4 km/h (0 Bft) S-SW 206 ° 0 min 0,000 mm 0,0 UV-I 0 W/m² 10,7 °C 11,6 °C 3,2 km/h (1 Bft)
04.06.2019 02:44 11,6 °C 94 % 1012,4 hPa 0,0 mm 1,3 km/h (1 Bft) W-SW 258 ° 0 min 0,000 mm 0,0 UV-I 0 W/m² 10,7 °C 11,6 °C 3,2 km/h (1 Bft)
04.06.2019 02:45 11,7 °C 94 % 1012,4 hPa 0,0 mm 0,1 km/h (0 Bft) W-SW 258 ° 0 min 0,000 mm 0,0 UV-I 0 W/m² 10,8 °C 11,7 °C 1,6 km/h (1 Bft)
04.06.2019 02:46 11,7 °C 95 % 1012,4 hPa 0,0 mm 0,9 km/h (0 Bft) W-NW 286 ° 0 min 0,000 mm 0,0 UV-I 0 W/m² 10,9 °C 11,7 °C 3,2 km/h (1 Bft)
04.06.2019 02:47 11,6 °C 94 % 1012,4 hPa 0,0 mm 3,0 km/h (1 Bft) W-NW 285 ° 0 min 0,000 mm 0,0 UV-I 0 W/m² 10,7 °C 11,6 °C 6,4 km/h (2 Bft)
04.06.2019 02:48 11,6 °C 94 % 1012,4 hPa 0,0 mm 1,2 km/h (1 Bft) W-NW 285 ° 0 min 0,000 mm 0,0 UV-I 0 W/m² 10,7 °C 11,6 °C 3,2 km/h (1 Bft)
04.06.2019 02:49 11,6 °C 94 % 1012,4 hPa 0,0 mm 0,9 km/h (0 Bft) W-NW 285 ° 0 min 0,000 mm 0,0 UV-I 0 W/m² 10,7 °C 11,6 °C 1,6 km/h (1 Bft)
04.06.2019 02:50 11,6 °C 94 % 1012,4 hPa 0,0 mm 0,0 km/h (0 Bft) W-NW 285 ° 0 min 0,000 mm 0,0 UV-I 0 W/m² 10,7 °C 11,6 °C 0,0 km/h (0 Bft)
04.06.2019 02:51 11,6 °C 94 % 1012,4 hPa 0,0 mm 0,0 km/h (0 Bft) W-NW 285 ° 0 min 0,000 mm 0,0 UV-I 0 W/m² 10,7 °C 11,6 °C 0,0 km/h (0 Bft)
04.06.2019 02:52 11,6 °C 94 % 1012,5 hPa 0,0 mm 0,0 km/h (0 Bft) W-NW 285 ° 0 min 0,000 mm 0,0 UV-I 0 W/m² 10,7 °C 11,6 °C 0,0 km/h (0 Bft)
04.06.2019 02:53 11,6 °C 94 % 1012,5 hPa 0,0 mm 0,0 km/h (0 Bft) W-NW 285 ° 0 min 0,000 mm 0,0 UV-I 0 W/m² 10,7 °C 11,6 °C 0,0 km/h (0 Bft)
04.06.2019 02:54 11,5 °C 94 % 1012,4 hPa 0,0 mm 0,1 km/h (0 Bft) W-NW 285 ° 0 min 0,000 mm 0,0 UV-I 0 W/m² 10,6 °C 11,5 °C 1,6 km/h (1 Bft)
04.06.2019 02:55 11,5 °C 94 % 1012,3 hPa 0,0 mm 0,0 km/h (0 Bft) W-NW 285 ° 0 min 0,000 mm 0,0 UV-I 0 W/m² 10,6 °C 11,5 °C 0,0 km/h (0 Bft)
04.06.2019 02:56 11,5 °C 94 % 1012,3 hPa 0,0 mm 0,0 km/h (0 Bft) W-NW 285 ° 0 min 0,000 mm 0,0 UV-I 0 W/m² 10,6 °C 11,5 °C 0,0 km/h (0 Bft)
04.06.2019 02:57 11,4 °C 95 % 1012,3 hPa 0,0 mm 0,0 km/h (0 Bft) W-NW 285 ° 0 min 0,000 mm 0,0 UV-I 0 W/m² 10,6 °C 11,4 °C 0,0 km/h (0 Bft)
04.06.2019 02:58 11,5 °C 95 % 1012,3 hPa 0,0 mm 1,0 km/h (0 Bft) W-NW 285 ° 0 min 0,000 mm 0,0 UV-I 0 W/m² 10,7 °C 11,5 °C 3,2 km/h (1 Bft)
04.06.2019 02:59 11,5 °C 95 % 1012,3 hPa 0,0 mm 2,1 km/h (1 Bft) W-NW 285 ° 0 min 0,000 mm 0,0 UV-I 0 W/m² 10,7 °C 11,5 °C 3,2 km/h (1 Bft)
04.06.2019 03:00 11,4 °C 94 % 1012,3 hPa 0,0 mm 0,7 km/h (0 Bft) W 279 ° 0 min 0,000 mm 0,0 UV-I 0 W/m² 10,5 °C 11,4 °C 4,8 km/h (1 Bft)
04.06.2019 03:01 11,4 °C 95 % 1012,3 hPa 0,0 mm 0,0 km/h (0 Bft) W 279 ° 0 min 0,000 mm 0,0 UV-I 0 W/m² 10,6 °C 11,4 °C 0,0 km/h (0 Bft)
04.06.2019 03:02 11,5 °C 95 % 1012,3 hPa 0,0 mm 3,2 km/h (1 Bft) W-NW 287 ° 0 min 0,000 mm 0,0 UV-I 0 W/m² 10,7 °C 11,5 °C 4,8 km/h (1 Bft)
04.06.2019 03:03 11,5 °C 95 % 1012,3 hPa 0,0 mm 3,6 km/h (1 Bft) W-NW 287 ° 0 min 0,000 mm 0,0 UV-I 0 W/m² 10,7 °C 11,5 °C 4,8 km/h (1 Bft)
04.06.2019 03:04 11,5 °C 95 % 1012,3 hPa 0,0 mm 2,2 km/h (1 Bft) W-NW 287 ° 0 min 0,000 mm 0,0 UV-I 0 W/m² 10,7 °C 11,5 °C 4,8 km/h (1 Bft)
04.06.2019 03:05 11,6 °C 94 % 1012,3 hPa 0,0 mm 0,0 km/h (0 Bft) W-NW 287 ° 0 min 0,000 mm 0,0 UV-I 0 W/m² 10,7 °C 11,6 °C 0,0 km/h (0 Bft)
04.06.2019 03:06 11,6 °C 95 % 1012,3 hPa 0,0 mm 0,0 km/h (0 Bft) W-NW 287 ° 0 min 0,000 mm 0,0 UV-I 0 W/m² 10,8 °C 11,6 °C 0,0 km/h (0 Bft)
04.06.2019 03:07 11,5 °C 94 % 1012,3 hPa 0,0 mm 0,1 km/h (0 Bft) W-NW 287 ° 0 min 0,000 mm 0,0 UV-I 0 W/m² 10,6 °C 11,5 °C 1,6 km/h (1 Bft)
04.06.2019 03:08 11,4 °C 94 % 1012,2 hPa 0,0 mm 0,0 km/h (0 Bft) W-NW 287 ° 0 min 0,000 mm 0,0 UV-I 0 W/m² 10,5 °C 11,4 °C 0,0 km/h (0 Bft)
04.06.2019 03:09 11,4 °C 94 % 1012,2 hPa 0,0 mm 0,0 km/h (0 Bft) W-NW 287 ° 0 min 0,000 mm 0,0 UV-I 0 W/m² 10,5 °C 11,4 °C 0,0 km/h (0 Bft)
04.06.2019 03:10 11,4 °C 94 % 1012,2 hPa 0,0 mm 0,1 km/h (0 Bft) W-NW 287 ° 0 min 0,000 mm 0,0 UV-I 0 W/m² 10,5 °C 11,4 °C 1,6 km/h (1 Bft)
04.06.2019 03:11 11,5 °C 95 % 1012,2 hPa 0,0 mm 0,5 km/h (0 Bft) W-NW 287 ° 0 min 0,000 mm 0,0 UV-I 0 W/m² 10,7 °C 11,5 °C 1,6 km/h (1 Bft)
04.06.2019 03:12 11,5 °C 95 % 1012,2 hPa 0,0 mm 1,8 km/h (1 Bft) W-NW 287 ° 0 min 0,000 mm 0,0 UV-I 0 W/m² 10,7 °C 11,5 °C 3,2 km/h (1 Bft)
04.06.2019 03:13 11,4 °C 95 % 1012,2 hPa 0,0 mm 1,2 km/h (1 Bft) W-NW 292 ° 0 min 0,000 mm 0,0 UV-I 0 W/m² 10,6 °C 11,4 °C 3,2 km/h (1 Bft)
04.06.2019 03:14 11,4 °C 94 % 1012,1 hPa 0,0 mm 0,0 km/h (0 Bft) W-NW 292 ° 0 min 0,000 mm 0,0 UV-I 0 W/m² 10,5 °C 11,4 °C 0,0 km/h (0 Bft)
04.06.2019 03:15 11,4 °C 94 % 1012,1 hPa 0,0 mm 0,0 km/h (0 Bft) W-NW 292 ° 0 min 0,000 mm 0,0 UV-I 0 W/m² 10,5 °C 11,4 °C 0,0 km/h (0 Bft)
04.06.2019 03:16 11,4 °C 94 % 1012,1 hPa 0,0 mm 0,3 km/h (0 Bft) W-NW 291 ° 0 min 0,000 mm 0,0 UV-I 0 W/m² 10,5 °C 11,4 °C 1,6 km/h (1 Bft)
04.06.2019 03:17 11,3 °C 94 % 1012,1 hPa 0,0 mm 0,1 km/h (0 Bft) W-NW 291 ° 0 min 0,000 mm 0,0 UV-I 0 W/m² 10,4 °C 11,3 °C 1,6 km/h (1 Bft)
04.06.2019 03:18 11,3 °C 94 % 1012,2 hPa 0,0 mm 0,0 km/h (0 Bft) W-NW 291 ° 0 min 0,000 mm 0,0 UV-I 0 W/m² 10,4 °C 11,3 °C 0,0 km/h (0 Bft)
04.06.2019 03:19 11,3 °C 94 % 1012,2 hPa 0,0 mm 0,0 km/h (0 Bft) W-NW 291 ° 0 min 0,000 mm 0,0 UV-I 0 W/m² 10,4 °C 11,3 °C 0,0 km/h (0 Bft)
04.06.2019 03:20 11,3 °C 95 % 1012,1 hPa 0,0 mm 0,0 km/h (0 Bft) W-NW 291 ° 0 min 0,000 mm 0,0 UV-I 0 W/m² 10,5 °C 11,3 °C 0,0 km/h (0 Bft)
04.06.2019 03:21 11,4 °C 95 % 1012,2 hPa 0,0 mm 1,0 km/h (0 Bft) W-NW 291 ° 0 min 0,000 mm 0,0 UV-I 0 W/m² 10,6 °C 11,4 °C 1,6 km/h (1 Bft)
04.06.2019 03:22 11,4 °C 95 % 1012,2 hPa 0,0 mm 0,1 km/h (0 Bft) W-NW 291 ° 0 min 0,000 mm 0,0 UV-I 0 W/m² 10,6 °C 11,4 °C 1,6 km/h (1 Bft)
04.06.2019 03:23 11,4 °C 94 % 1012,2 hPa 0,0 mm 0,7 km/h (0 Bft) N-NW 332 ° 0 min 0,000 mm 0,0 UV-I 0 W/m² 10,5 °C 11,4 °C 4,8 km/h (1 Bft)
04.06.2019 03:24 11,4 °C 95 % 1012,1 hPa 0,0 mm 0,6 km/h (0 Bft) N-NW 332 ° 0 min 0,000 mm 0,0 UV-I 0 W/m² 10,6 °C 11,4 °C 3,2 km/h (1 Bft)
04.06.2019 03:25 11,4 °C 94 % 1012,1 hPa 0,0 mm 1,9 km/h (1 Bft) N-NW 327 ° 0 min 0,000 mm 0,0 UV-I 0 W/m² 10,5 °C 11,4 °C 4,8 km/h (1 Bft)
04.06.2019 03:26 11,3 °C 94 % 1012,1 hPa 0,0 mm 0,0 km/h (0 Bft) N-NW 327 ° 0 min 0,000 mm 0,0 UV-I 0 W/m² 10,4 °C 11,3 °C 0,0 km/h (0 Bft)
04.06.2019 03:27 11,3 °C 94 % 1012,0 hPa 0,0 mm 0,4 km/h (0 Bft) N-NW 327 ° 0 min 0,000 mm 0,0 UV-I 0 W/m² 10,4 °C 11,3 °C 1,6 km/h (1 Bft)
04.06.2019 03:28 11,3 °C 95 % 1012,0 hPa 0,0 mm 0,2 km/h (0 Bft) N-NW 327 ° 0 min 0,000 mm 0,0 UV-I 0 W/m² 10,5 °C 11,3 °C 1,6 km/h (1 Bft)
04.06.2019 03:29 11,3 °C 94 % 1012,0 hPa 0,0 mm 0,1 km/h (0 Bft) N-NW 327 ° 0 min 0,000 mm 0,0 UV-I 0 W/m² 10,4 °C 11,3 °C 1,6 km/h (1 Bft)
04.06.2019 03:30 11,3 °C 94 % 1012,0 hPa 0,0 mm 0,1 km/h (0 Bft) N-NW 327 ° 0 min 0,000 mm 0,0 UV-I 0 W/m² 10,4 °C 11,3 °C 1,6 km/h (1 Bft)
04.06.2019 03:31 11,3 °C 94 % 1012,0 hPa 0,0 mm 0,2 km/h (0 Bft) N-NW 327 ° 0 min 0,000 mm 0,0 UV-I 0 W/m² 10,4 °C 11,3 °C 1,6 km/h (1 Bft)
04.06.2019 03:32 11,3 °C 95 % 1012,0 hPa 0,0 mm 0,3 km/h (0 Bft) N-NW 327 ° 0 min 0,000 mm 0,0 UV-I 0 W/m² 10,5 °C 11,3 °C 1,6 km/h (1 Bft)
04.06.2019 03:33 11,3 °C 94 % 1012,0 hPa 0,0 mm 0,5 km/h (0 Bft) N-NW 327 ° 0 min 0,000 mm 0,0 UV-I 0 W/m² 10,4 °C 11,3 °C 1,6 km/h (1 Bft)
04.06.2019 03:34 11,3 °C 94 % 1012,0 hPa 0,0 mm 0,6 km/h (0 Bft) N-NW 327 ° 0 min 0,000 mm 0,0 UV-I 0 W/m² 10,4 °C 11,3 °C 1,6 km/h (1 Bft)
04.06.2019 03:35 11,3 °C 95 % 1012,0 hPa 0,0 mm 2,2 km/h (1 Bft) N-NW 327 ° 0 min 0,000 mm 0,0 UV-I 0 W/m² 10,5 °C 11,3 °C 4,8 km/h (1 Bft)
04.06.2019 03:36 11,3 °C 95 % 1011,9 hPa 0,0 mm 1,2 km/h (1 Bft) N-NW 327 ° 0 min 0,000 mm 0,0 UV-I 0 W/m² 10,5 °C 11,3 °C 3,2 km/h (1 Bft)
04.06.2019 03:37 11,3 °C 94 % 1012,0 hPa 0,0 mm 2,0 km/h (1 Bft) N-NW 327 ° 0 min 0,000 mm 0,0 UV-I 0 W/m² 10,4 °C 11,3 °C 3,2 km/h (1 Bft)
04.06.2019 03:38 11,3 °C 94 % 1011,9 hPa 0,0 mm 1,7 km/h (1 Bft) N-NW 327 ° 0 min 0,000 mm 0,0 UV-I 0 W/m² 10,4 °C 11,3 °C 3,2 km/h (1 Bft)
04.06.2019 03:39 11,3 °C 94 % 1011,9 hPa 0,0 mm 0,4 km/h (0 Bft) N-NW 327 ° 0 min 0,000 mm 0,0 UV-I 0 W/m² 10,4 °C 11,3 °C 1,6 km/h (1 Bft)
04.06.2019 03:40 11,2 °C 94 % 1011,9 hPa 0,0 mm 0,1 km/h (0 Bft) N-NW 327 ° 0 min 0,000 mm 0,0 UV-I 0 W/m² 10,3 °C 11,2 °C 1,6 km/h (1 Bft)
04.06.2019 03:41 11,2 °C 94 % 1011,9 hPa 0,0 mm 0,0 km/h (0 Bft) N-NW 327 ° 0 min 0,000 mm 0,0 UV-I 0 W/m² 10,3 °C 11,2 °C 0,0 km/h (0 Bft)
04.06.2019 03:42 11,2 °C 94 % 1011,9 hPa 0,0 mm 0,0 km/h (0 Bft) N-NW 327 ° 0 min 0,000 mm 0,0 UV-I 0 W/m² 10,3 °C 11,2 °C 0,0 km/h (0 Bft)
04.06.2019 03:43 11,2 °C 94 % 1011,9 hPa 0,0 mm 0,0 km/h (0 Bft) N-NW 327 ° 0 min 0,000 mm 0,0 UV-I 0 W/m² 10,3 °C 11,2 °C 0,0 km/h (0 Bft)
04.06.2019 03:44 11,2 °C 94 % 1011,9 hPa 0,0 mm 0,7 km/h (0 Bft) N-NW 327 ° 0 min 0,000 mm 0,0 UV-I 0 W/m² 10,3 °C 11,2 °C 1,6 km/h (1 Bft)
04.06.2019 03:45 11,2 °C 94 % 1011,9 hPa 0,0 mm 0,3 km/h (0 Bft) N-NW 327 ° 0 min 0,000 mm 0,0 UV-I 0 W/m² 10,3 °C 11,2 °C 1,6 km/h (1 Bft)
04.06.2019 03:46 11,2 °C 94 % 1011,9 hPa 0,0 mm 0,7 km/h (0 Bft) N-NW 327 ° 0 min 0,000 mm 0,0 UV-I 0 W/m² 10,3 °C 11,2 °C 1,6 km/h (1 Bft)
04.06.2019 03:47 11,2 °C 94 % 1011,9 hPa 0,0 mm 0,3 km/h (0 Bft) N-NW 327 ° 0 min 0,000 mm 0,0 UV-I 0 W/m² 10,3 °C 11,2 °C 1,6 km/h (1 Bft)
04.06.2019 03:48 11,2 °C 94 % 1011,9 hPa 0,0 mm 1,5 km/h (1 Bft) N-NW 327 ° 0 min 0,000 mm 0,0 UV-I 0 W/m² 10,3 °C 11,2 °C 3,2 km/h (1 Bft)
04.06.2019 03:49 11,2 °C 94 % 1011,9 hPa 0,0 mm 2,4 km/h (1 Bft) NW 325 ° 0 min 0,000 mm 0,0 UV-I 0 W/m² 10,3 °C 11,2 °C 4,8 km/h (1 Bft)
04.06.2019 03:50 11,2 °C 94 % 1011,9 hPa 0,0 mm 0,6 km/h (0 Bft) SW 217 ° 0 min 0,000 mm 0,0 UV-I 0 W/m² 10,3 °C 11,2 °C 1,6 km/h (1 Bft)
04.06.2019 03:51 11,2 °C 94 % 1011,9 hPa 0,0 mm 0,0 km/h (0 Bft) SW 217 ° 0 min 0,000 mm 0,0 UV-I 0 W/m² 10,3 °C 11,2 °C 0,0 km/h (0 Bft)
04.06.2019 03:52 11,3 °C 94 % 1011,9 hPa 0,0 mm 0,0 km/h (0 Bft) SW 217 ° 0 min 0,000 mm 0,0 UV-I 0 W/m² 10,4 °C 11,3 °C 0,0 km/h (0 Bft)
04.06.2019 03:53 11,3 °C 94 % 1011,9 hPa 0,0 mm 0,0 km/h (0 Bft) SW 217 ° 0 min 0,000 mm 0,0 UV-I 0 W/m² 10,4 °C 11,3 °C 0,0 km/h (0 Bft)
04.06.2019 03:54 11,3 °C 94 % 1011,8 hPa 0,0 mm 2,0 km/h (1 Bft) W-NW 301 ° 0 min 0,000 mm 0,0 UV-I 0 W/m² 10,4 °C 11,3 °C 4,8 km/h (1 Bft)
04.06.2019 03:55 11,2 °C 94 % 1011,8 hPa 0,0 mm 1,0 km/h (0 Bft) W-NW 301 ° 0 min 0,000 mm 0,0 UV-I 0 W/m² 10,3 °C 11,2 °C 3,2 km/h (1 Bft)
04.06.2019 03:56 11,3 °C 94 % 1011,8 hPa 0,0 mm 0,1 km/h (0 Bft) W-NW 301 ° 0 min 0,000 mm 0,0 UV-I 0 W/m² 10,4 °C 11,3 °C 1,6 km/h (1 Bft)
04.06.2019 03:57 11,3 °C 94 % 1011,8 hPa 0,0 mm 0,7 km/h (0 Bft) S-SW 198 ° 0 min 0,000 mm 0,0 UV-I 0 W/m² 10,4 °C 11,3 °C 3,2 km/h (1 Bft)
04.06.2019 03:58 11,3 °C 94 % 1011,8 hPa 0,0 mm 1,7 km/h (1 Bft) S 173 ° 0 min 0,000 mm 0,0 UV-I 0 W/m² 10,4 °C 11,3 °C 4,8 km/h (1 Bft)
04.06.2019 03:59 11,3 °C 95 % 1011,8 hPa 0,0 mm 1,5 km/h (1 Bft) O-NO 61 ° 0 min 0,000 mm 0,0 UV-I 0 W/m² 10,5 °C 11,3 °C 3,2 km/h (1 Bft)
04.06.2019 04:00 11,3 °C 95 % 1011,8 hPa 0,0 mm 2,4 km/h (1 Bft) SW 227 ° 0 min 0,000 mm 0,0 UV-I 0 W/m² 10,5 °C 11,3 °C 4,8 km/h (1 Bft)
04.06.2019 04:01 11,3 °C 95 % 1011,8 hPa 0,0 mm 1,7 km/h (1 Bft) S-SW 210 ° 0 min 0,000 mm 0,0 UV-I 0 W/m² 10,5 °C 11,3 °C 3,2 km/h (1 Bft)
04.06.2019 04:02 11,4 °C 94 % 1011,7 hPa 0,0 mm 0,1 km/h (0 Bft) S-SW 210 ° 0 min 0,000 mm 0,0 UV-I 0 W/m² 10,5 °C 11,4 °C 1,6 km/h (1 Bft)
04.06.2019 04:03 11,3 °C 95 % 1011,7 hPa 0,0 mm 0,1 km/h (0 Bft) S-SW 210 ° 0 min 0,000 mm 0,0 UV-I 0 W/m² 10,5 °C 11,3 °C 1,6 km/h (1 Bft)
04.06.2019 04:04 11,3 °C 94 % 1011,8 hPa 0,0 mm 1,3 km/h (1 Bft) N-NW 334 ° 0 min 0,000 mm 0,0 UV-I 0 W/m² 10,4 °C 11,3 °C 4,8 km/h (1 Bft)
04.06.2019 04:05 11,3 °C 94 % 1011,7 hPa 0,0 mm 1,1 km/h (1 Bft) N-NW 340 ° 0 min 0,000 mm 0,0 UV-I 0 W/m² 10,4 °C 11,3 °C 3,2 km/h (1 Bft)
04.06.2019 04:06 11,3 °C 94 % 1011,7 hPa 0,0 mm 0,0 km/h (0 Bft) N-NW 340 ° 0 min 0,000 mm 0,0 UV-I 0 W/m² 10,4 °C 11,3 °C 0,0 km/h (0 Bft)
04.06.2019 04:07 11,3 °C 94 % 1011,8 hPa 0,0 mm 0,0 km/h (0 Bft) N-NW 340 ° 0 min 0,000 mm 0,0 UV-I 0 W/m² 10,4 °C 11,3 °C 0,0 km/h (0 Bft)
04.06.2019 04:08 11,3 °C 94 % 1011,8 hPa 0,0 mm 0,5 km/h (0 Bft) N-NW 340 ° 0 min 0,000 mm 0,0 UV-I 0 W/m² 10,4 °C 11,3 °C 3,2 km/h (1 Bft)
04.06.2019 04:09 11,3 °C 94 % 1011,8 hPa 0,0 mm 0,7 km/h (0 Bft) N-NW 340 ° 0 min 0,000 mm 0,0 UV-I 0 W/m² 10,4 °C 11,3 °C 3,2 km/h (1 Bft)
04.06.2019 04:10 11,3 °C 94 % 1011,8 hPa 0,0 mm 0,1 km/h (0 Bft) N-NW 340 ° 0 min 0,000 mm 0,0 UV-I 0 W/m² 10,4 °C 11,3 °C 1,6 km/h (1 Bft)
04.06.2019 04:11 11,3 °C 94 % 1011,7 hPa 0,0 mm 0,5 km/h (0 Bft) N-NW 340 ° 0 min 0,000 mm 0,0 UV-I 0 W/m² 10,4 °C 11,3 °C 4,8 km/h (1 Bft)
04.06.2019 04:12 11,2 °C 94 % 1011,7 hPa 0,0 mm 1,6 km/h (1 Bft) NW 325 ° 0 min 0,000 mm 0,0 UV-I 0 W/m² 10,3 °C 11,2 °C 6,4 km/h (2 Bft)
04.06.2019 04:13 11,3 °C 94 % 1011,7 hPa 0,0 mm 0,0 km/h (0 Bft) NW 325 ° 0 min 0,000 mm 0,0 UV-I 0 W/m² 10,4 °C 11,3 °C 0,0 km/h (0 Bft)
04.06.2019 04:14 11,2 °C 94 % 1011,7 hPa 0,0 mm 0,0 km/h (0 Bft) NW 325 ° 0 min 0,000 mm 0,0 UV-I 0 W/m² 10,3 °C 11,2 °C 0,0 km/h (0 Bft)
04.06.2019 04:15 11,2 °C 94 % 1011,7 hPa 0,0 mm 1,3 km/h (1 Bft) N-NW 329 ° 0 min 0,000 mm 0,0 UV-I 0 W/m² 10,3 °C 11,2 °C 3,2 km/h (1 Bft)
04.06.2019 04:16 11,2 °C 94 % 1011,7 hPa 0,0 mm 0,4 km/h (0 Bft) N-NW 329 ° 0 min 0,000 mm 0,0 UV-I 0 W/m² 10,3 °C 11,2 °C 3,2 km/h (1 Bft)
04.06.2019 04:17 11,2 °C 94 % 1011,7 hPa 0,0 mm 0,0 km/h (0 Bft) N-NW 329 ° 0 min 0,000 mm 0,0 UV-I 0 W/m² 10,3 °C 11,2 °C 0,0 km/h (0 Bft)
04.06.2019 04:18 11,2 °C 94 % 1011,7 hPa 0,0 mm 1,5 km/h (1 Bft) NW 320 ° 0 min 0,000 mm 0,0 UV-I 0 W/m² 10,3 °C 11,2 °C 3,2 km/h (1 Bft)
04.06.2019 04:19 11,1 °C 94 % 1011,7 hPa 0,0 mm 1,0 km/h (0 Bft) NW 320 ° 0 min 0,000 mm 0,0 UV-I 0 W/m² 10,2 °C 11,1 °C 3,2 km/h (1 Bft)
04.06.2019 04:20 11,2 °C 94 % 1011,7 hPa 0,0 mm 0,9 km/h (0 Bft) NW 321 ° 0 min 0,000 mm 0,0 UV-I 0 W/m² 10,3 °C 11,2 °C 1,6 km/h (1 Bft)
04.06.2019 04:21 11,2 °C 94 % 1011,7 hPa 0,0 mm 0,2 km/h (0 Bft) NW 321 ° 0 min 0,000 mm 0,0 UV-I 0 W/m² 10,3 °C 11,2 °C 1,6 km/h (1 Bft)
04.06.2019 04:22 11,2 °C 94 % 1011,7 hPa 0,0 mm 0,0 km/h (0 Bft) NW 321 ° 0 min 0,000 mm 0,0 UV-I 0 W/m² 10,3 °C 11,2 °C 0,0 km/h (0 Bft)
04.06.2019 04:23 11,2 °C 94 % 1011,7 hPa 0,0 mm 0,0 km/h (0 Bft) NW 321 ° 0 min 0,000 mm 0,0 UV-I 0 W/m² 10,3 °C 11,2 °C 0,0 km/h (0 Bft)
04.06.2019 04:24 11,2 °C 94 % 1011,7 hPa 0,0 mm 1,1 km/h (1 Bft) N-NW 329 ° 0 min 0,000 mm 0,0 UV-I 0 W/m² 10,3 °C 11,2 °C 3,2 km/h (1 Bft)
04.06.2019 04:25 11,2 °C 94 % 1011,6 hPa 0,0 mm 1,0 km/h (0 Bft) N-NW 329 ° 0 min 0,000 mm 0,0 UV-I 0 W/m² 10,3 °C 11,2 °C 3,2 km/h (1 Bft)
04.06.2019 04:26 11,3 °C 94 % 1011,6 hPa 0,0 mm 0,0 km/h (0 Bft) N-NW 329 ° 0 min 0,000 mm 0,0 UV-I 0 W/m² 10,4 °C 11,3 °C 0,0 km/h (0 Bft)
04.06.2019 04:27 11,4 °C 94 % 1011,6 hPa 0,0 mm 0,5 km/h (0 Bft) N-NW 329 ° 0 min 0,000 mm 0,0 UV-I 0 W/m² 10,5 °C 11,4 °C 3,2 km/h (1 Bft)
04.06.2019 04:28 11,4 °C 94 % 1011,6 hPa 0,0 mm 0,0 km/h (0 Bft) N-NW 329 ° 0 min 0,000 mm 0,0 UV-I 0 W/m² 10,5 °C 11,4 °C 0,0 km/h (0 Bft)
04.06.2019 04:29 11,5 °C 94 % 1011,6 hPa 0,0 mm 0,0 km/h (0 Bft) N-NW 329 ° 0 min 0,000 mm 0,0 UV-I 0 W/m² 10,6 °C 11,5 °C 0,0 km/h (0 Bft)
04.06.2019 04:30 11,6 °C 94 % 1011,6 hPa 0,0 mm 0,0 km/h (0 Bft) N-NW 329 ° 0 min 0,000 mm 0,0 UV-I 0 W/m² 10,7 °C 11,6 °C 0,0 km/h (0 Bft)
04.06.2019 04:31 11,7 °C 94 % 1011,6 hPa 0,0 mm 0,0 km/h (0 Bft) N-NW 329 ° 0 min 0,000 mm 0,0 UV-I 0 W/m² 10,8 °C 11,7 °C 0,0 km/h (0 Bft)
04.06.2019 04:32 11,7 °C 94 % 1011,5 hPa 0,0 mm 0,0 km/h (0 Bft) N-NW 329 ° 0 min 0,000 mm 0,0 UV-I 0 W/m² 10,8 °C 11,7 °C 0,0 km/h (0 Bft)
04.06.2019 04:33 11,7 °C 94 % 1011,5 hPa 0,0 mm 0,2 km/h (0 Bft) N-NW 338 ° 0 min 0,000 mm 0,0 UV-I 0 W/m² 10,8 °C 11,7 °C 3,2 km/h (1 Bft)
04.06.2019 04:34 11,7 °C 93 % 1011,5 hPa 0,0 mm 1,4 km/h (1 Bft) N-NW 338 ° 0 min 0,000 mm 0,0 UV-I 0 W/m² 10,6 °C 11,7 °C 3,2 km/h (1 Bft)
04.06.2019 04:35 11,7 °C 93 % 1011,5 hPa 0,0 mm 0,1 km/h (0 Bft) N-NW 338 ° 0 min 0,000 mm 0,0 UV-I 0 W/m² 10,6 °C 11,7 °C 1,6 km/h (1 Bft)
04.06.2019 04:36 11,6 °C 93 % 1011,5 hPa 0,0 mm 0,1 km/h (0 Bft) N-NW 338 ° 0 min 0,000 mm 0,0 UV-I 0 W/m² 10,5 °C 11,6 °C 1,6 km/h (1 Bft)
04.06.2019 04:37 11,6 °C 93 % 1011,4 hPa 0,0 mm 0,3 km/h (0 Bft) N-NW 338 ° 0 min 0,000 mm 0,0 UV-I 0 W/m² 10,5 °C 11,6 °C 1,6 km/h (1 Bft)
04.06.2019 04:38 11,5 °C 93 % 1011,4 hPa 0,0 mm 0,9 km/h (0 Bft) N-NW 337 ° 0 min 0,000 mm 0,0 UV-I 0 W/m² 10,4 °C 11,5 °C 3,2 km/h (1 Bft)
04.06.2019 04:39 11,4 °C 93 % 1011,3 hPa 0,0 mm 1,7 km/h (1 Bft) N-NW 337 ° 0 min 0,000 mm 0,0 UV-I 0 W/m² 10,3 °C 11,4 °C 3,2 km/h (1 Bft)
04.06.2019 04:40 11,4 °C 93 % 1011,3 hPa 0,0 mm 0,1 km/h (0 Bft) N-NW 337 ° 0 min 0,000 mm 0,0 UV-I 0 W/m² 10,3 °C 11,4 °C 1,6 km/h (1 Bft)
04.06.2019 04:41 11,4 °C 93 % 1011,3 hPa 0,0 mm 0,3 km/h (0 Bft) N-NW 337 ° 0 min 0,000 mm 0,0 UV-I 0 W/m² 10,3 °C 11,4 °C 3,2 km/h (1 Bft)
04.06.2019 04:42 11,3 °C 93 % 1011,3 hPa 0,0 mm 3,0 km/h (1 Bft) N-NO 26 ° 0 min 0,000 mm 0,0 UV-I 0 W/m² 10,2 °C 11,3 °C 6,4 km/h (2 Bft)
04.06.2019 04:43 11,3 °C 93 % 1011,3 hPa 0,0 mm 2,3 km/h (1 Bft) O-SO 106 ° 0 min 0,000 mm 0,0 UV-I 0 W/m² 10,2 °C 11,3 °C 4,8 km/h (1 Bft)
04.06.2019 04:44 11,3 °C 93 % 1011,2 hPa 0,0 mm 0,0 km/h (0 Bft) O 84 ° 0 min 0,000 mm 0,0 UV-I 0 W/m² 10,2 °C 11,3 °C 0,0 km/h (0 Bft)
04.06.2019 04:45 11,3 °C 93 % 1011,3 hPa 0,0 mm 0,1 km/h (0 Bft) O 84 ° 0 min 0,000 mm 0,0 UV-I 0 W/m² 10,2 °C 11,3 °C 1,6 km/h (1 Bft)
04.06.2019 04:46 11,3 °C 93 % 1011,2 hPa 0,0 mm 0,8 km/h (0 Bft) O 84 ° 0 min 0,000 mm 0,0 UV-I 0 W/m² 10,2 °C 11,3 °C 3,2 km/h (1 Bft)
04.06.2019 04:47 11,3 °C 93 % 1011,3 hPa 0,0 mm 1,2 km/h (1 Bft) N-NO 15 ° 0 min 0,000 mm 0,0 UV-I 0 W/m² 10,2 °C 11,3 °C 3,2 km/h (1 Bft)
04.06.2019 04:48 11,3 °C 93 % 1011,3 hPa 0,0 mm 0,3 km/h (0 Bft) N-NO 15 ° 0 min 0,000 mm 0,0 UV-I 0 W/m² 10,2 °C 11,3 °C 3,2 km/h (1 Bft)
04.06.2019 04:49 11,3 °C 93 % 1011,3 hPa 0,0 mm 4,5 km/h (1 Bft) N-NW 346 ° 0 min 0,000 mm 0,0 UV-I 0 W/m² 10,2 °C 11,3 °C 6,4 km/h (2 Bft)
04.06.2019 04:50 11,3 °C 93 % 1011,4 hPa 0,0 mm 0,5 km/h (0 Bft) N-NW 346 ° 0 min 0,000 mm 0,0 UV-I 0 W/m² 10,2 °C 11,3 °C 3,2 km/h (1 Bft)
04.06.2019 04:51 11,3 °C 93 % 1011,4 hPa 0,0 mm 0,9 km/h (0 Bft) N-NW 346 ° 0 min 0,000 mm 0,0 UV-I 0 W/m² 10,2 °C 11,3 °C 1,6 km/h (1 Bft)
04.06.2019 04:52 11,3 °C 93 % 1011,4 hPa 0,0 mm 0,1 km/h (0 Bft) N-NW 346 ° 0 min 0,000 mm 0,0 UV-I 0 W/m² 10,2 °C 11,3 °C 1,6 km/h (1 Bft)
04.06.2019 04:53 11,3 °C 93 % 1011,4 hPa 0,0 mm 0,3 km/h (0 Bft) N-NW 342 ° 0 min 0,000 mm 0,0 UV-I 0 W/m² 10,2 °C 11,3 °C 1,6 km/h (1 Bft)
04.06.2019 04:54 11,3 °C 93 % 1011,4 hPa 0,0 mm 0,0 km/h (0 Bft) N-NW 342 ° 0 min 0,000 mm 0,0 UV-I 0 W/m² 10,2 °C 11,3 °C 0,0 km/h (0 Bft)
04.06.2019 04:55 11,3 °C 93 % 1011,4 hPa 0,0 mm 0,0 km/h (0 Bft) N-NW 342 ° 0 min 0,000 mm 0,0 UV-I 0 W/m² 10,2 °C 11,3 °C 0,0 km/h (0 Bft)
04.06.2019 04:56 11,3 °C 93 % 1011,4 hPa 0,0 mm 0,0 km/h (0 Bft) N-NW 342 ° 0 min 0,000 mm 0,0 UV-I 0 W/m² 10,2 °C 11,3 °C 0,0 km/h (0 Bft)
04.06.2019 04:57 11,4 °C 93 % 1011,4 hPa 0,0 mm 0,0 km/h (0 Bft) N-NW 342 ° 0 min 0,000 mm 0,0 UV-I 0 W/m² 10,3 °C 11,4 °C 0,0 km/h (0 Bft)
04.06.2019 04:58 11,4 °C 93 % 1011,4 hPa 0,0 mm 0,0 km/h (0 Bft) N-NW 342 ° 0 min 0,000 mm 0,0 UV-I 0 W/m² 10,3 °C 11,4 °C 0,0 km/h (0 Bft)
04.06.2019 04:59 11,5 °C 93 % 1011,4 hPa 0,0 mm 0,0 km/h (0 Bft) N-NW 342 ° 0 min 0,000 mm 0,0 UV-I 0 W/m² 10,4 °C 11,5 °C 0,0 km/h (0 Bft)
04.06.2019 05:00 11,4 °C 93 % 1011,4 hPa 0,0 mm 0,0 km/h (0 Bft) N-NW 342 ° 0 min 0,000 mm 0,0 UV-I 0 W/m² 10,3 °C 11,4 °C 0,0 km/h (0 Bft)
04.06.2019 05:01 11,4 °C 93 % 1011,4 hPa 0,0 mm 0,0 km/h (0 Bft) N-NW 342 ° 0 min 0,000 mm 0,0 UV-I 0 W/m² 10,3 °C 11,4 °C 0,0 km/h (0 Bft)
04.06.2019 05:02 11,5 °C 93 % 1011,4 hPa 0,0 mm 0,0 km/h (0 Bft) N-NW 342 ° 0 min 0,000 mm 0,0 UV-I 0 W/m² 10,4 °C 11,5 °C 0,0 km/h (0 Bft)
04.06.2019 05:03 11,6 °C 93 % 1011,4 hPa 0,0 mm 0,0 km/h (0 Bft) N-NW 342 ° 0 min 0,000 mm 0,0 UV-I 0 W/m² 10,5 °C 11,6 °C 0,0 km/h (0 Bft)
04.06.2019 05:04 11,6 °C 93 % 1011,5 hPa 0,0 mm 0,0 km/h (0 Bft) N-NW 342 ° 0 min 0,000 mm 0,0 UV-I 0 W/m² 10,5 °C 11,6 °C 0,0 km/h (0 Bft)
04.06.2019 05:05 11,6 °C 93 % 1011,4 hPa 0,0 mm 0,0 km/h (0 Bft) N-NW 342 ° 0 min 0,000 mm 0,0 UV-I 0 W/m² 10,5 °C 11,6 °C 0,0 km/h (0 Bft)
04.06.2019 05:06 11,6 °C 93 % 1011,4 hPa 0,0 mm 0,0 km/h (0 Bft) N-NW 342 ° 0 min 0,000 mm 0,0 UV-I 0 W/m² 10,5 °C 11,6 °C 0,0 km/h (0 Bft)
04.06.2019 05:07 11,6 °C 92 % 1011,5 hPa 0,0 mm 0,0 km/h (0 Bft) N-NW 342 ° 0 min 0,000 mm 0,0 UV-I 0 W/m² 10,3 °C 11,6 °C 0,0 km/h (0 Bft)
04.06.2019 05:08 11,6 °C 92 % 1011,5 hPa 0,0 mm 0,0 km/h (0 Bft) N-NW 342 ° 0 min 0,000 mm 0,0 UV-I 0 W/m² 10,3 °C 11,6 °C 0,0 km/h (0 Bft)
04.06.2019 05:09 11,6 °C 92 % 1011,4 hPa 0,0 mm 0,0 km/h (0 Bft) N-NW 342 ° 0 min 0,000 mm 0,0 UV-I 0 W/m² 10,3 °C 11,6 °C 0,0 km/h (0 Bft)
04.06.2019 05:10 11,6 °C 92 % 1011,5 hPa 0,0 mm 0,0 km/h (0 Bft) N-NW 342 ° 0 min 0,000 mm 0,0 UV-I 0 W/m² 10,3 °C 11,6 °C 0,0 km/h (0 Bft)
04.06.2019 05:11 11,6 °C 92 % 1011,5 hPa 0,0 mm 0,0 km/h (0 Bft) N-NW 342 ° 0 min 0,000 mm 0,0 UV-I 0 W/m² 10,3 °C 11,6 °C 0,0 km/h (0 Bft)
04.06.2019 05:12 11,5 °C 92 % 1011,5 hPa 0,0 mm 0,0 km/h (0 Bft) N-NW 342 ° 0 min 0,000 mm 0,0 UV-I 0 W/m² 10,2 °C 11,5 °C 0,0 km/h (0 Bft)
04.06.2019 05:13 11,5 °C 92 % 1011,5 hPa 0,0 mm 0,0 km/h (0 Bft) N-NW 342 ° 0 min 0,000 mm 0,0 UV-I 0 W/m² 10,2 °C 11,5 °C 0,0 km/h (0 Bft)
04.06.2019 05:14 11,5 °C 92 % 1011,5 hPa 0,0 mm 0,0 km/h (0 Bft) N-NW 342 ° 0 min 0,000 mm 0,0 UV-I 0 W/m² 10,2 °C 11,5 °C 0,0 km/h (0 Bft)
04.06.2019 05:15 11,4 °C 92 % 1011,5 hPa 0,0 mm 0,0 km/h (0 Bft) N-NW 342 ° 0 min 0,000 mm 0,0 UV-I 0 W/m² 10,1 °C 11,4 °C 0,0 km/h (0 Bft)
04.06.2019 05:16 11,4 °C 92 % 1011,5 hPa 0,0 mm 0,0 km/h (0 Bft) N-NW 342 ° 0 min 0,000 mm 0,0 UV-I 0 W/m² 10,1 °C 11,4 °C 0,0 km/h (0 Bft)
04.06.2019 05:17 11,4 °C 92 % 1011,4 hPa 0,0 mm 0,0 km/h (0 Bft) N-NW 342 ° 0 min 0,000 mm 0,0 UV-I 0 W/m² 10,1 °C 11,4 °C 0,0 km/h (0 Bft)
04.06.2019 05:18 11,3 °C 93 % 1011,4 hPa 0,0 mm 0,0 km/h (0 Bft) N-NW 342 ° 0 min 0,000 mm 0,0 UV-I 0 W/m² 10,2 °C 11,3 °C 0,0 km/h (0 Bft)
04.06.2019 05:19 11,3 °C 92 % 1011,4 hPa 0,0 mm 0,0 km/h (0 Bft) N-NW 342 ° 0 min 0,000 mm 0,0 UV-I 0 W/m² 10,0 °C 11,3 °C 0,0 km/h (0 Bft)
04.06.2019 05:20 11,2 °C 92 % 1011,4 hPa 0,0 mm 0,0 km/h (0 Bft) N-NW 342 ° 0 min 0,000 mm 0,0 UV-I 0 W/m² 9,9 °C 11,2 °C 0,0 km/h (0 Bft)
04.06.2019 05:21 11,2 °C 92 % 1011,3 hPa 0,0 mm 0,0 km/h (0 Bft) N-NW 342 ° 0 min 0,000 mm 0,0 UV-I 0 W/m² 9,9 °C 11,2 °C 0,0 km/h (0 Bft)
04.06.2019 05:22 11,2 °C 92 % 1011,4 hPa 0,0 mm 0,0 km/h (0 Bft) N-NW 342 ° 0 min 0,000 mm 0,0 UV-I 5 W/m² 9,9 °C 11,2 °C 0,0 km/h (0 Bft)
04.06.2019 05:23 11,1 °C 92 % 1011,3 hPa 0,0 mm 0,0 km/h (0 Bft) N-NW 342 ° 0 min 0,000 mm 0,0 UV-I 5 W/m² 9,8 °C 11,1 °C 0,0 km/h (0 Bft)
04.06.2019 05:24 11,1 °C 93 % 1011,3 hPa 0,0 mm 0,0 km/h (0 Bft) N-NW 342 ° 0 min 0,000 mm 0,0 UV-I 5 W/m² 10,0 °C 11,1 °C 0,0 km/h (0 Bft)
04.06.2019 05:25 11,0 °C 93 % 1011,4 hPa 0,0 mm 0,0 km/h (0 Bft) N-NW 342 ° 0 min 0,000 mm 0,0 UV-I 5 W/m² 9,9 °C 11,0 °C 0,0 km/h (0 Bft)
04.06.2019 05:26 11,0 °C 93 % 1011,4 hPa 0,0 mm 0,0 km/h (0 Bft) N-NW 342 ° 0 min 0,000 mm 0,0 UV-I 7 W/m² 9,9 °C 11,0 °C 0,0 km/h (0 Bft)
04.06.2019 05:27 11,0 °C 93 % 1011,3 hPa 0,0 mm 0,0 km/h (0 Bft) N-NW 342 ° 0 min 0,000 mm 0,0 UV-I 7 W/m² 9,9 °C 11,0 °C 0,0 km/h (0 Bft)
04.06.2019 05:28 11,0 °C 93 % 1011,4 hPa 0,0 mm 0,0 km/h (0 Bft) N-NW 342 ° 0 min 0,000 mm 0,0 UV-I 9 W/m² 9,9 °C 11,0 °C 0,0 km/h (0 Bft)
04.06.2019 05:29 11,0 °C 93 % 1011,3 hPa 0,0 mm 0,0 km/h (0 Bft) N-NW 342 ° 0 min 0,000 mm 0,0 UV-I 9 W/m² 9,9 °C 11,0 °C 0,0 km/h (0 Bft)
04.06.2019 05:30 10,9 °C 93 % 1011,4 hPa 0,0 mm 0,0 km/h (0 Bft) N-NW 342 ° 0 min 0,000 mm 0,0 UV-I 9 W/m² 9,8 °C 10,9 °C 0,0 km/h (0 Bft)
04.06.2019 05:31 10,9 °C 93 % 1011,3 hPa 0,0 mm 0,0 km/h (0 Bft) N-NW 342 ° 0 min 0,000 mm 0,0 UV-I 11 W/m² 9,8 °C 10,9 °C 0,0 km/h (0 Bft)
04.06.2019 05:32 10,9 °C 93 % 1011,3 hPa 0,0 mm 0,0 km/h (0 Bft) N-NW 342 ° 0 min 0,000 mm 0,0 UV-I 11 W/m² 9,8 °C 10,9 °C 0,0 km/h (0 Bft)
04.06.2019 05:33 10,9 °C 93 % 1011,4 hPa 0,0 mm 0,0 km/h (0 Bft) N-NW 342 ° 0 min 0,000 mm 0,0 UV-I 11 W/m² 9,8 °C 10,9 °C 0,0 km/h (0 Bft)
04.06.2019 05:34 10,9 °C 93 % 1011,3 hPa 0,0 mm 0,0 km/h (0 Bft) N-NW 342 ° 0 min 0,000 mm 0,0 UV-I 12 W/m² 9,8 °C 10,9 °C 0,0 km/h (0 Bft)
04.06.2019 05:35 10,9 °C 93 % 1011,3 hPa 0,0 mm 0,0 km/h (0 Bft) N-NW 342 ° 0 min 0,000 mm 0,0 UV-I 12 W/m² 9,8 °C 10,9 °C 0,0 km/h (0 Bft)
04.06.2019 05:36 10,9 °C 93 % 1011,3 hPa 0,0 mm 0,0 km/h (0 Bft) N-NW 342 ° 0 min 0,000 mm 0,0 UV-I 12 W/m² 9,8 °C 10,9 °C 0,0 km/h (0 Bft)
04.06.2019 05:37 10,9 °C 93 % 1011,3 hPa 0,0 mm 0,0 km/h (0 Bft) N-NW 342 ° 0 min 0,000 mm 0,0 UV-I 12 W/m² 9,8 °C 10,9 °C 0,0 km/h (0 Bft)
04.06.2019 05:38 10,9 °C 93 % 1011,3 hPa 0,0 mm 0,0 km/h (0 Bft) N-NW 342 ° 0 min 0,000 mm 0,0 UV-I 14 W/m² 9,8 °C 10,9 °C 0,0 km/h (0 Bft)
04.06.2019 05:39 10,9 °C 93 % 1011,3 hPa 0,0 mm 0,0 km/h (0 Bft) N-NW 342 ° 0 min 0,000 mm 0,0 UV-I 14 W/m² 9,8 °C 10,9 °C 0,0 km/h (0 Bft)
04.06.2019 05:40 10,9 °C 93 % 1011,3 hPa 0,0 mm 0,0 km/h (0 Bft) N-NW 342 ° 0 min 0,000 mm 0,0 UV-I 14 W/m² 9,8 °C 10,9 °C 0,0 km/h (0 Bft)
04.06.2019 05:41 10,9 °C 93 % 1011,3 hPa 0,0 mm 0,0 km/h (0 Bft) N-NW 342 ° 0 min 0,000 mm 0,0 UV-I 14 W/m² 9,8 °C 10,9 °C 0,0 km/h (0 Bft)
04.06.2019 05:42 10,9 °C 93 % 1011,3 hPa 0,0 mm 0,0 km/h (0 Bft) N-NW 342 ° 0 min 0,000 mm 0,0 UV-I 16 W/m² 9,8 °C 10,9 °C 0,0 km/h (0 Bft)
04.06.2019 05:43 10,9 °C 93 % 1011,3 hPa 0,0 mm 0,0 km/h (0 Bft) N-NW 342 ° 0 min 0,000 mm 0,0 UV-I 16 W/m² 9,8 °C 10,9 °C 0,0 km/h (0 Bft)
04.06.2019 05:44 11,0 °C 93 % 1011,3 hPa 0,0 mm 0,0 km/h (0 Bft) N-NW 342 ° 0 min 0,000 mm 0,0 UV-I 16 W/m² 9,9 °C 11,0 °C 0,0 km/h (0 Bft)
04.06.2019 05:45 11,1 °C 93 % 1011,2 hPa 0,0 mm 0,0 km/h (0 Bft) N-NW 342 ° 0 min 0,000 mm 0,0 UV-I 16 W/m² 10,0 °C 11,1 °C 0,0 km/h (0 Bft)
04.06.2019 05:46 11,1 °C 93 % 1011,2 hPa 0,0 mm 0,0 km/h (0 Bft) N-NW 342 ° 0 min 0,000 mm 0,0 UV-I 18 W/m² 10,0 °C 11,1 °C 0,0 km/h (0 Bft)
04.06.2019 05:47 11,1 °C 93 % 1011,3 hPa 0,0 mm 0,0 km/h (0 Bft) N-NW 342 ° 0 min 0,000 mm 0,0 UV-I 19 W/m² 10,0 °C 11,1 °C 0,0 km/h (0 Bft)
04.06.2019 05:48 11,1 °C 93 % 1011,2 hPa 0,0 mm 0,0 km/h (0 Bft) N-NW 342 ° 0 min 0,000 mm 0,0 UV-I 19 W/m² 10,0 °C 11,1 °C 0,0 km/h (0 Bft)
04.06.2019 05:49 11,2 °C 93 % 1011,2 hPa 0,0 mm 0,0 km/h (0 Bft) N-NW 342 ° 0 min 0,000 mm 0,0 UV-I 19 W/m² 10,1 °C 11,2 °C 0,0 km/h (0 Bft)
04.06.2019 05:50 11,2 °C 93 % 1011,3 hPa 0,0 mm 0,0 km/h (0 Bft) N-NW 342 ° 0 min 0,000 mm 0,0 UV-I 19 W/m² 10,1 °C 11,2 °C 0,0 km/h (0 Bft)
04.06.2019 05:51 11,2 °C 93 % 1011,2 hPa 0,0 mm 0,0 km/h (0 Bft) N-NW 342 ° 0 min 0,000 mm 0,0 UV-I 19 W/m² 10,1 °C 11,2 °C 0,0 km/h (0 Bft)
04.06.2019 05:52 11,3 °C 93 % 1011,2 hPa 0,0 mm 0,0 km/h (0 Bft) N-NW 342 ° 0 min 0,000 mm 0,0 UV-I 21 W/m² 10,2 °C 11,3 °C 0,0 km/h (0 Bft)
04.06.2019 05:53 11,3 °C 93 % 1011,3 hPa 0,0 mm 0,1 km/h (0 Bft) N-NW 342 ° 0 min 0,000 mm 0,0 UV-I 21 W/m² 10,2 °C 11,3 °C 1,6 km/h (1 Bft)
04.06.2019 05:54 11,3 °C 93 % 1011,3 hPa 0,0 mm 2,8 km/h (1 Bft) N-NW 342 ° 0 min 0,000 mm 0,0 UV-I 23 W/m² 10,2 °C 11,3 °C 3,2 km/h (1 Bft)
04.06.2019 05:55 11,3 °C 93 % 1011,2 hPa 0,0 mm 1,6 km/h (1 Bft) N-NW 342 ° 0 min 0,000 mm 0,0 UV-I 23 W/m² 10,2 °C 11,3 °C 3,2 km/h (1 Bft)
04.06.2019 05:56 11,3 °C 93 % 1011,2 hPa 0,0 mm 1,1 km/h (1 Bft) N-NW 342 ° 0 min 0,000 mm 0,0 UV-I 25 W/m² 10,2 °C 11,3 °C 3,2 km/h (1 Bft)
04.06.2019 05:57 11,4 °C 92 % 1011,3 hPa 0,0 mm 3,0 km/h (1 Bft) N-NW 342 ° 0 min 0,000 mm 0,0 UV-I 25 W/m² 10,1 °C 11,4 °C 4,8 km/h (1 Bft)
04.06.2019 05:58 11,4 °C 92 % 1011,3 hPa 0,0 mm 1,5 km/h (1 Bft) N-NW 342 ° 0 min 0,000 mm 0,0 UV-I 26 W/m² 10,1 °C 11,4 °C 3,2 km/h (1 Bft)
04.06.2019 05:59 11,4 °C 92 % 1011,3 hPa 0,0 mm 0,0 km/h (0 Bft) N-NW 342 ° 0 min 0,000 mm 0,0 UV-I 28 W/m² 10,1 °C 11,4 °C 0,0 km/h (0 Bft)
04.06.2019 06:00 11,4 °C 92 % 1011,3 hPa 0,0 mm 0,2 km/h (0 Bft) N-NW 342 ° 0 min 0,000 mm 0,0 UV-I 28 W/m² 10,1 °C 11,4 °C 1,6 km/h (1 Bft)
04.06.2019 06:01 11,4 °C 92 % 1011,3 hPa 0,0 mm 0,0 km/h (0 Bft) N-NW 342 ° 0 min 0,000 mm 0,0 UV-I 28 W/m² 10,1 °C 11,4 °C 0,0 km/h (0 Bft)
04.06.2019 06:02 11,3 °C 92 % 1011,3 hPa 0,0 mm 0,0 km/h (0 Bft) N-NW 342 ° 0 min 0,000 mm 0,0 UV-I 30 W/m² 10,0 °C 11,3 °C 0,0 km/h (0 Bft)
04.06.2019 06:03 11,3 °C 92 % 1011,3 hPa 0,0 mm 0,0 km/h (0 Bft) N-NW 342 ° 0 min 0,000 mm 0,0 UV-I 30 W/m² 10,0 °C 11,3 °C 0,0 km/h (0 Bft)
04.06.2019 06:04 11,2 °C 92 % 1011,3 hPa 0,0 mm 0,0 km/h (0 Bft) N-NW 342 ° 0 min 0,000 mm 0,0 UV-I 33 W/m² 9,9 °C 11,2 °C 0,0 km/h (0 Bft)
04.06.2019 06:05 11,2 °C 92 % 1011,3 hPa 0,0 mm 0,0 km/h (0 Bft) N-NW 342 ° 0 min 0,000 mm 0,0 UV-I 35 W/m² 9,9 °C 11,2 °C 0,0 km/h (0 Bft)
04.06.2019 06:06 11,1 °C 92 % 1011,3 hPa 0,0 mm 0,2 km/h (0 Bft) N-NW 342 ° 0 min 0,000 mm 0,0 UV-I 35 W/m² 9,8 °C 11,1 °C 1,6 km/h (1 Bft)
04.06.2019 06:07 11,1 °C 92 % 1011,3 hPa 0,0 mm 0,0 km/h (0 Bft) N-NW 342 ° 0 min 0,000 mm 0,0 UV-I 37 W/m² 9,8 °C 11,1 °C 0,0 km/h (0 Bft)
04.06.2019 06:08 11,1 °C 93 % 1011,3 hPa 0,0 mm 0,0 km/h (0 Bft) N-NW 342 ° 0 min 0,000 mm 0,0 UV-I 35 W/m² 10,0 °C 11,1 °C 0,0 km/h (0 Bft)
04.06.2019 06:09 11,2 °C 93 % 1011,2 hPa 0,0 mm 0,0 km/h (0 Bft) N-NW 342 ° 0 min 0,000 mm 0,0 UV-I 35 W/m² 10,1 °C 11,2 °C 0,0 km/h (0 Bft)
04.06.2019 06:10 11,2 °C 93 % 1011,3 hPa 0,0 mm 0,0 km/h (0 Bft) N-NW 342 ° 0 min 0,000 mm 0,0 UV-I 37 W/m² 10,1 °C 11,2 °C 0,0 km/h (0 Bft)
04.06.2019 06:11 11,2 °C 93 % 1011,2 hPa 0,0 mm 0,0 km/h (0 Bft) N-NW 342 ° 0 min 0,000 mm 0,0 UV-I 40 W/m² 10,1 °C 11,2 °C 0,0 km/h (0 Bft)
04.06.2019 06:12 11,2 °C 93 % 1011,2 hPa 0,0 mm 0,0 km/h (0 Bft) N-NW 342 ° 0 min 0,000 mm 0,0 UV-I 44 W/m² 10,1 °C 11,2 °C 0,0 km/h (0 Bft)
04.06.2019 06:13 11,2 °C 93 % 1011,3 hPa 0,0 mm 0,0 km/h (0 Bft) N-NW 342 ° 0 min 0,000 mm 0,0 UV-I 46 W/m² 10,1 °C 11,2 °C 0,0 km/h (0 Bft)
04.06.2019 06:14 11,2 °C 93 % 1011,3 hPa 0,0 mm 0,0 km/h (0 Bft) N-NW 342 ° 0 min 0,000 mm 0,0 UV-I 47 W/m² 10,1 °C 11,2 °C 0,0 km/h (0 Bft)
04.06.2019 06:15 11,2 °C 93 % 1011,3 hPa 0,0 mm 0,0 km/h (0 Bft) N-NW 342 ° 0 min 0,000 mm 0,0 UV-I 47 W/m² 10,1 °C 11,2 °C 0,0 km/h (0 Bft)
04.06.2019 06:16 11,2 °C 93 % 1011,3 hPa 0,0 mm 0,0 km/h (0 Bft) N-NW 342 ° 0 min 0,000 mm 0,0 UV-I 49 W/m² 10,1 °C 11,2 °C 0,0 km/h (0 Bft)
04.06.2019 06:17 11,3 °C 93 % 1011,2 hPa 0,0 mm 0,0 km/h (0 Bft) N-NW 342 ° 0 min 0,000 mm 0,0 UV-I 53 W/m² 10,2 °C 11,3 °C 0,0 km/h (0 Bft)
04.06.2019 06:18 11,4 °C 93 % 1011,3 hPa 0,0 mm 0,0 km/h (0 Bft) N-NW 342 ° 0 min 0,000 mm 0,0 UV-I 54 W/m² 10,3 °C 11,4 °C 0,0 km/h (0 Bft)
04.06.2019 06:19 11,5 °C 92 % 1011,2 hPa 0,0 mm 0,0 km/h (0 Bft) N-NW 342 ° 0 min 0,000 mm 0,0 UV-I 56 W/m² 10,2 °C 11,5 °C 0,0 km/h (0 Bft)
04.06.2019 06:20 11,6 °C 92 % 1011,2 hPa 0,0 mm 0,0 km/h (0 Bft) N-NW 342 ° 0 min 0,000 mm 0,0 UV-I 58 W/m² 10,3 °C 11,6 °C 0,0 km/h (0 Bft)
04.06.2019 06:21 11,7 °C 92 % 1011,2 hPa 0,0 mm 0,5 km/h (0 Bft) N-NW 342 ° 0 min 0,000 mm 0,0 UV-I 60 W/m² 10,4 °C 11,7 °C 1,6 km/h (1 Bft)
04.06.2019 06:22 11,8 °C 92 % 1011,2 hPa 0,0 mm 0,1 km/h (0 Bft) N-NW 342 ° 0 min 0,000 mm 0,0 UV-I 62 W/m² 10,5 °C 11,8 °C 1,6 km/h (1 Bft)
04.06.2019 06:23 11,9 °C 92 % 1011,3 hPa 0,0 mm 0,4 km/h (0 Bft) N-NW 342 ° 0 min 0,000 mm 0,0 UV-I 63 W/m² 10,6 °C 11,9 °C 1,6 km/h (1 Bft)
04.06.2019 06:24 11,9 °C 92 % 1011,2 hPa 0,0 mm 1,1 km/h (1 Bft) N-NW 342 ° 0 min 0,000 mm 0,0 UV-I 63 W/m² 10,6 °C 11,9 °C 3,2 km/h (1 Bft)
04.06.2019 06:25 12,0 °C 91 % 1011,2 hPa 0,0 mm 0,1 km/h (0 Bft) N-NW 342 ° 0 min 0,000 mm 0,0 UV-I 65 W/m² 10,6 °C 12,0 °C 1,6 km/h (1 Bft)
04.06.2019 06:26 12,1 °C 91 % 1011,3 hPa 0,0 mm 1,9 km/h (1 Bft) N-NW 342 ° 0 min 0,000 mm 0,0 UV-I 67 W/m² 10,7 °C 12,1 °C 3,2 km/h (1 Bft)
04.06.2019 06:27 12,1 °C 91 % 1011,3 hPa 0,0 mm 1,6 km/h (1 Bft) N-NW 344 ° 0 min 0,000 mm 0,0 UV-I 70 W/m² 10,7 °C 12,1 °C 3,2 km/h (1 Bft)
04.06.2019 06:28 12,2 °C 91 % 1011,3 hPa 0,0 mm 1,1 km/h (1 Bft) N-NW 343 ° 0 min 0,000 mm 0,0 UV-I 72 W/m² 10,8 °C 12,2 °C 3,2 km/h (1 Bft)
04.06.2019 06:29 12,2 °C 91 % 1011,3 hPa 0,0 mm 0,0 km/h (0 Bft) N-NW 343 ° 0 min 0,000 mm 0,0 UV-I 74 W/m² 10,8 °C 12,2 °C 0,0 km/h (0 Bft)
04.06.2019 06:30 12,3 °C 91 % 1011,2 hPa 0,0 mm 0,0 km/h (0 Bft) N-NW 343 ° 0 min 0,000 mm 0,0 UV-I 76 W/m² 10,9 °C 12,3 °C 0,0 km/h (0 Bft)
04.06.2019 06:31 12,3 °C 92 % 1011,2 hPa 0,0 mm 0,0 km/h (0 Bft) N-NW 343 ° 0 min 0,000 mm 0,0 UV-I 77 W/m² 11,0 °C 12,3 °C 0,0 km/h (0 Bft)
04.06.2019 06:32 12,4 °C 91 % 1011,3 hPa 0,0 mm 0,0 km/h (0 Bft) N-NW 343 ° 0 min 0,000 mm 0,0 UV-I 81 W/m² 11,0 °C 12,4 °C 0,0 km/h (0 Bft)
04.06.2019 06:33 12,3 °C 91 % 1011,3 hPa 0,0 mm 0,0 km/h (0 Bft) N-NW 343 ° 0 min 0,000 mm 0,0 UV-I 84 W/m² 10,9 °C 12,3 °C 0,0 km/h (0 Bft)
04.06.2019 06:34 12,4 °C 91 % 1011,3 hPa 0,0 mm 0,4 km/h (0 Bft) N-NW 343 ° 0 min 0,000 mm 0,0 UV-I 86 W/m² 11,0 °C 12,4 °C 1,6 km/h (1 Bft)
04.06.2019 06:35 12,4 °C 91 % 1011,4 hPa 0,0 mm 0,7 km/h (0 Bft) N-NW 343 ° 0 min 0,000 mm 0,0 UV-I 88 W/m² 11,0 °C 12,4 °C 3,2 km/h (1 Bft)
04.06.2019 06:36 12,5 °C 91 % 1011,3 hPa 0,0 mm 1,9 km/h (1 Bft) N-NW 343 ° 0 min 0,000 mm 0,0 UV-I 90 W/m² 11,1 °C 12,5 °C 3,2 km/h (1 Bft)
04.06.2019 06:37 12,6 °C 90 % 1011,3 hPa 0,0 mm 0,0 km/h (0 Bft) N-NW 343 ° 0 min 0,000 mm 0,0 UV-I 91 W/m² 11,0 °C 12,6 °C 0,0 km/h (0 Bft)
04.06.2019 06:38 12,7 °C 90 % 1011,3 hPa 0,0 mm 0,0 km/h (0 Bft) N-NW 343 ° 0 min 0,000 mm 0,0 UV-I 93 W/m² 11,1 °C 12,7 °C 0,0 km/h (0 Bft)
04.06.2019 06:39 12,7 °C 90 % 1011,3 hPa 0,0 mm 0,1 km/h (0 Bft) N-NW 343 ° 0 min 0,000 mm 0,0 UV-I 98 W/m² 11,1 °C 12,7 °C 1,6 km/h (1 Bft)
04.06.2019 06:40 12,6 °C 90 % 1011,4 hPa 0,0 mm 0,0 km/h (0 Bft) N-NW 343 ° 0 min 0,000 mm 0,0 UV-I 100 W/m² 11,0 °C 12,6 °C 0,0 km/h (0 Bft)
04.06.2019 06:41 12,7 °C 90 % 1011,3 hPa 0,0 mm 0,0 km/h (0 Bft) N-NW 343 ° 0 min 0,000 mm 0,0 UV-I 102 W/m² 11,1 °C 12,7 °C 0,0 km/h (0 Bft)
04.06.2019 06:42 12,6 °C 90 % 1011,4 hPa 0,0 mm 0,0 km/h (0 Bft) N-NW 343 ° 0 min 0,000 mm 0,0 UV-I 102 W/m² 11,0 °C 12,6 °C 0,0 km/h (0 Bft)
04.06.2019 06:43 12,6 °C 90 % 1011,3 hPa 0,0 mm 0,0 km/h (0 Bft) N-NW 343 ° 0 min 0,000 mm 0,0 UV-I 104 W/m² 11,0 °C 12,6 °C 0,0 km/h (0 Bft)
04.06.2019 06:44 12,6 °C 90 % 1011,3 hPa 0,0 mm 0,0 km/h (0 Bft) N-NW 343 ° 0 min 0,000 mm 0,0 UV-I 107 W/m² 11,0 °C 12,6 °C 0,0 km/h (0 Bft)
04.06.2019 06:45 12,6 °C 90 % 1011,3 hPa 0,0 mm 0,0 km/h (0 Bft) N-NW 343 ° 0 min 0,000 mm 0,0 UV-I 111 W/m² 11,0 °C 12,6 °C 0,0 km/h (0 Bft)
04.06.2019 06:46 12,6 °C 90 % 1011,3 hPa 0,0 mm 0,0 km/h (0 Bft) N-NW 343 ° 0 min 0,000 mm 0,0 UV-I 118 W/m² 11,0 °C 12,6 °C 0,0 km/h (0 Bft)
04.06.2019 06:47 12,6 °C 90 % 1011,3 hPa 0,0 mm 0,0 km/h (0 Bft) N-NW 343 ° 0 min 0,000 mm 0,5 UV-I 123 W/m² 11,0 °C 12,6 °C 0,0 km/h (0 Bft)
04.06.2019 06:48 12,6 °C 91 % 1011,3 hPa 0,0 mm 0,0 km/h (0 Bft) N-NW 343 ° 0 min 0,000 mm 0,5 UV-I 128 W/m² 11,2 °C 12,6 °C 0,0 km/h (0 Bft)
04.06.2019 06:49 12,6 °C 91 % 1011,3 hPa 0,0 mm 0,0 km/h (0 Bft) N-NW 343 ° 0 min 0,000 mm 0,5 UV-I 130 W/m² 11,2 °C 12,6 °C 0,0 km/h (0 Bft)
04.06.2019 06:50 12,7 °C 91 % 1011,3 hPa 0,0 mm 0,0 km/h (0 Bft) N-NW 343 ° 0 min 0,000 mm 0,5 UV-I 134 W/m² 11,3 °C 12,7 °C 0,0 km/h (0 Bft)
04.06.2019 06:51 12,7 °C 90 % 1011,3 hPa 0,0 mm 0,0 km/h (0 Bft) N-NW 343 ° 0 min 0,000 mm 0,5 UV-I 139 W/m² 11,1 °C 12,7 °C 0,0 km/h (0 Bft)
04.06.2019 06:52 12,7 °C 90 % 1011,3 hPa 0,0 mm 0,0 km/h (0 Bft) N-NW 343 ° 0 min 0,000 mm 0,5 UV-I 141 W/m² 11,1 °C 12,7 °C 0,0 km/h (0 Bft)
04.06.2019 06:53 12,8 °C 90 % 1011,3 hPa 0,0 mm 0,0 km/h (0 Bft) N-NW 343 ° 0 min 0,000 mm 0,5 UV-I 144 W/m² 11,2 °C 12,8 °C 0,0 km/h (0 Bft)
04.06.2019 06:54 12,8 °C 90 % 1011,3 hPa 0,0 mm 0,0 km/h (0 Bft) N-NW 343 ° 0 min 0,000 mm 0,5 UV-I 146 W/m² 11,2 °C 12,8 °C 0,0 km/h (0 Bft)
04.06.2019 06:55 12,9 °C 90 % 1011,3 hPa 0,0 mm 0,0 km/h (0 Bft) N-NW 343 ° 0 min 0,000 mm 0,5 UV-I 148 W/m² 11,3 °C 12,9 °C 0,0 km/h (0 Bft)
04.06.2019 06:56 13,0 °C 89 % 1011,3 hPa 0,0 mm 0,0 km/h (0 Bft) N-NW 343 ° 0 min 0,000 mm 0,5 UV-I 155 W/m² 11,2 °C 13,0 °C 0,0 km/h (0 Bft)
04.06.2019 06:57 13,1 °C 90 % 1011,3 hPa 0,0 mm 0,0 km/h (0 Bft) N-NW 343 ° 0 min 0,000 mm 0,5 UV-I 158 W/m² 11,5 °C 13,1 °C 0,0 km/h (0 Bft)
04.06.2019 06:58 13,2 °C 90 % 1011,3 hPa 0,0 mm 0,0 km/h (0 Bft) N-NW 343 ° 0 min 0,000 mm 0,6 UV-I 160 W/m² 11,6 °C 13,2 °C 0,0 km/h (0 Bft)
04.06.2019 06:59 13,3 °C 89 % 1011,3 hPa 0,0 mm 0,0 km/h (0 Bft) N-NW 343 ° 0 min 0,000 mm 0,6 UV-I 163 W/m² 11,5 °C 13,3 °C 0,0 km/h (0 Bft)
04.06.2019 07:00 13,4 °C 89 % 1011,3 hPa 0,0 mm 0,0 km/h (0 Bft) N-NW 343 ° 0 min 0,000 mm 0,6 UV-I 167 W/m² 11,6 °C 13,4 °C 0,0 km/h (0 Bft)
04.06.2019 07:01 13,5 °C 89 % 1011,2 hPa 0,0 mm 0,0 km/h (0 Bft) N-NW 343 ° 0 min 0,051 mm 0,6 UV-I 172 W/m² 11,7 °C 13,5 °C 0,0 km/h (0 Bft)
04.06.2019 07:02 13,6 °C 88 % 1011,2 hPa 0,0 mm 0,0 km/h (0 Bft) N-NW 343 ° 0 min 0,000 mm 0,6 UV-I 179 W/m² 11,6 °C 13,6 °C 0,0 km/h (0 Bft)
04.06.2019 07:03 13,6 °C 88 % 1011,3 hPa 0,0 mm 0,0 km/h (0 Bft) N-NW 343 ° 0 min 0,000 mm 0,6 UV-I 183 W/m² 11,6 °C 13,6 °C 0,0 km/h (0 Bft)
04.06.2019 07:04 13,6 °C 88 % 1011,2 hPa 0,0 mm 0,0 km/h (0 Bft) N-NW 343 ° 0 min 0,000 mm 0,6 UV-I 186 W/m² 11,6 °C 13,6 °C 0,0 km/h (0 Bft)
04.06.2019 07:05 13,7 °C 87 % 1011,2 hPa 0,0 mm 0,3 km/h (0 Bft) N-NW 343 ° 0 min 0,000 mm 0,6 UV-I 192 W/m² 11,6 °C 13,7 °C 1,6 km/h (1 Bft)
04.06.2019 07:06 13,8 °C 88 % 1011,2 hPa 0,0 mm 0,0 km/h (0 Bft) N-NW 343 ° 0 min 0,000 mm 0,6 UV-I 195 W/m² 11,8 °C 13,8 °C 0,0 km/h (0 Bft)
04.06.2019 07:07 13,8 °C 88 % 1011,2 hPa 0,0 mm 0,0 km/h (0 Bft) N-NW 343 ° 0 min 0,000 mm 0,6 UV-I 199 W/m² 11,8 °C 13,8 °C 0,0 km/h (0 Bft)
04.06.2019 07:08 13,9 °C 89 % 1011,2 hPa 0,0 mm 0,0 km/h (0 Bft) N-NW 343 ° 0 min 0,000 mm 0,7 UV-I 207 W/m² 12,1 °C 13,9 °C 0,0 km/h (0 Bft)
04.06.2019 07:09 14,0 °C 89 % 1011,2 hPa 0,0 mm 0,0 km/h (0 Bft) N-NW 343 ° 0 min 0,000 mm 0,7 UV-I 211 W/m² 12,2 °C 14,0 °C 0,0 km/h (0 Bft)
04.06.2019 07:10 14,1 °C 88 % 1011,2 hPa 0,0 mm 0,0 km/h (0 Bft) N-NW 343 ° 0 min 0,000 mm 0,7 UV-I 216 W/m² 12,1 °C 14,1 °C 0,0 km/h (0 Bft)
04.06.2019 07:11 14,3 °C 89 % 1011,1 hPa 0,0 mm 0,0 km/h (0 Bft) N-NW 343 ° 0 min 0,000 mm 0,7 UV-I 220 W/m² 12,5 °C 14,3 °C 0,0 km/h (0 Bft)
04.06.2019 07:12 14,4 °C 88 % 1011,2 hPa 0,0 mm 0,0 km/h (0 Bft) N-NW 343 ° 0 min 0,000 mm 0,7 UV-I 223 W/m² 12,4 °C 14,4 °C 0,0 km/h (0 Bft)
04.06.2019 07:13 14,5 °C 87 % 1011,2 hPa 0,0 mm 0,0 km/h (0 Bft) N-NW 343 ° 0 min 0,000 mm 0,7 UV-I 227 W/m² 12,4 °C 14,5 °C 0,0 km/h (0 Bft)
04.06.2019 07:14 14,7 °C 87 % 1011,2 hPa 0,0 mm 0,0 km/h (0 Bft) N-NW 343 ° 0 min 0,000 mm 0,7 UV-I 232 W/m² 12,6 °C 14,7 °C 0,0 km/h (0 Bft)
04.06.2019 07:15 14,7 °C 87 % 1011,2 hPa 0,0 mm 0,0 km/h (0 Bft) N-NW 343 ° 0 min 0,000 mm 0,7 UV-I 236 W/m² 12,6 °C 14,7 °C 0,0 km/h (0 Bft)
04.06.2019 07:16 14,8 °C 87 % 1011,2 hPa 0,0 mm 0,0 km/h (0 Bft) N-NW 343 ° 0 min 0,000 mm 0,8 UV-I 239 W/m² 12,7 °C 14,8 °C 0,0 km/h (0 Bft)
04.06.2019 07:17 14,9 °C 87 % 1011,3 hPa 0,0 mm 0,0 km/h (0 Bft) N-NW 343 ° 0 min 0,000 mm 0,8 UV-I 243 W/m² 12,8 °C 14,9 °C 0,0 km/h (0 Bft)
04.06.2019 07:18 14,9 °C 87 % 1011,2 hPa 0,0 mm 0,0 km/h (0 Bft) N-NW 343 ° 0 min 0,000 mm 0,8 UV-I 243 W/m² 12,8 °C 14,9 °C 0,0 km/h (0 Bft)
04.06.2019 07:19 14,9 °C 88 % 1011,3 hPa 0,0 mm 0,0 km/h (0 Bft) N-NW 343 ° 0 min 0,000 mm 0,8 UV-I 237 W/m² 12,9 °C 14,9 °C 0,0 km/h (0 Bft)
04.06.2019 07:20 15,0 °C 86 % 1011,2 hPa 0,0 mm 0,0 km/h (0 Bft) N-NW 343 ° 0 min 0,000 mm 0,8 UV-I 195 W/m² 12,7 °C 15,0 °C 0,0 km/h (0 Bft)
04.06.2019 07:21 15,0 °C 86 % 1011,2 hPa 0,0 mm 0,0 km/h (0 Bft) N-NW 343 ° 0 min 0,000 mm 0,7 UV-I 120 W/m² 12,7 °C 15,0 °C 0,0 km/h (0 Bft)
04.06.2019 07:22 15,0 °C 85 % 1011,2 hPa 0,0 mm 0,0 km/h (0 Bft) N-NW 343 ° 0 min 0,000 mm 0,7 UV-I 107 W/m² 12,5 °C 15,0 °C 0,0 km/h (0 Bft)
04.06.2019 07:23 15,0 °C 86 % 1011,2 hPa 0,0 mm 0,0 km/h (0 Bft) N-NW 343 ° 0 min 0,000 mm 0,7 UV-I 104 W/m² 12,7 °C 15,0 °C 0,0 km/h (0 Bft)
04.06.2019 07:24 14,9 °C 87 % 1011,2 hPa 0,0 mm 0,0 km/h (0 Bft) N-NW 343 ° 0 min 0,000 mm 0,7 UV-I 105 W/m² 12,8 °C 14,9 °C 0,0 km/h (0 Bft)
04.06.2019 07:25 14,9 °C 86 % 1011,2 hPa 0,0 mm 0,0 km/h (0 Bft) N-NW 343 ° 0 min 0,000 mm 0,7 UV-I 100 W/m² 12,6 °C 14,9 °C 0,0 km/h (0 Bft)
04.06.2019 07:26 14,9 °C 86 % 1011,2 hPa 0,0 mm 0,0 km/h (0 Bft) N-NW 343 ° 0 min 0,000 mm 0,7 UV-I 105 W/m² 12,6 °C 14,9 °C 0,0 km/h (0 Bft)
04.06.2019 07:27 14,9 °C 86 % 1011,3 hPa 0,0 mm 0,0 km/h (0 Bft) N-NW 343 ° 0 min 0,000 mm 0,7 UV-I 98 W/m² 12,6 °C 14,9 °C 0,0 km/h (0 Bft)
04.06.2019 07:28 14,8 °C 86 % 1011,3 hPa 0,0 mm 0,0 km/h (0 Bft) N-NW 343 ° 0 min 0,000 mm 0,7 UV-I 104 W/m² 12,5 °C 14,8 °C 0,0 km/h (0 Bft)
04.06.2019 07:29 14,7 °C 86 % 1011,3 hPa 0,0 mm 0,0 km/h (0 Bft) N-NW 343 ° 0 min 0,000 mm 0,7 UV-I 107 W/m² 12,4 °C 14,7 °C 0,0 km/h (0 Bft)
04.06.2019 07:30 14,6 °C 86 % 1011,4 hPa 0,0 mm 1,3 km/h (1 Bft) N-NO 32 ° 0 min 0,000 mm 0,7 UV-I 86 W/m² 12,3 °C 14,6 °C 3,2 km/h (1 Bft)
04.06.2019 07:31 14,4 °C 87 % 1011,4 hPa 0,0 mm 2,5 km/h (1 Bft) N-NO 32 ° 0 min 0,000 mm 0,7 UV-I 88 W/m² 12,3 °C 14,4 °C 4,8 km/h (1 Bft)
04.06.2019 07:32 14,3 °C 87 % 1011,4 hPa 0,0 mm 2,7 km/h (1 Bft) N-NO 32 ° 0 min 0,000 mm 0,7 UV-I 86 W/m² 12,2 °C 14,3 °C 3,2 km/h (1 Bft)
04.06.2019 07:33 14,3 °C 87 % 1011,4 hPa 0,0 mm 2,8 km/h (1 Bft) NO 39 ° 0 min 0,000 mm 0,8 UV-I 83 W/m² 12,2 °C 14,3 °C 3,2 km/h (1 Bft)
04.06.2019 07:34 14,2 °C 87 % 1011,4 hPa 0,0 mm 3,1 km/h (1 Bft) NO 39 ° 0 min 0,000 mm 0,8 UV-I 97 W/m² 12,1 °C 14,2 °C 3,2 km/h (1 Bft)
04.06.2019 07:35 14,2 °C 87 % 1011,4 hPa 0,0 mm 1,5 km/h (1 Bft) NO 39 ° 0 min 0,000 mm 0,8 UV-I 162 W/m² 12,1 °C 14,2 °C 3,2 km/h (1 Bft)
04.06.2019 07:36 14,2 °C 88 % 1011,4 hPa 0,0 mm 0,7 km/h (0 Bft) NO 39 ° 0 min 0,000 mm 0,8 UV-I 93 W/m² 12,2 °C 14,2 °C 1,6 km/h (1 Bft)
04.06.2019 07:37 14,2 °C 88 % 1011,4 hPa 0,0 mm 0,6 km/h (0 Bft) NO 39 ° 0 min 0,000 mm 0,9 UV-I 93 W/m² 12,2 °C 14,2 °C 1,6 km/h (1 Bft)
04.06.2019 07:38 14,1 °C 88 % 1011,4 hPa 0,0 mm 0,0 km/h (0 Bft) NO 39 ° 0 min 0,000 mm 0,8 UV-I 90 W/m² 12,1 °C 14,1 °C 0,0 km/h (0 Bft)
04.06.2019 07:39 14,1 °C 89 % 1011,4 hPa 0,0 mm 0,0 km/h (0 Bft) NO 39 ° 0 min 0,000 mm 0,8 UV-I 90 W/m² 12,3 °C 14,1 °C 0,0 km/h (0 Bft)
04.06.2019 07:40 14,0 °C 89 % 1011,4 hPa 0,0 mm 0,0 km/h (0 Bft) NO 39 ° 0 min 0,000 mm 0,9 UV-I 93 W/m² 12,2 °C 14,0 °C 0,0 km/h (0 Bft)
04.06.2019 07:41 14,0 °C 90 % 1011,4 hPa 0,0 mm 0,0 km/h (0 Bft) NO 39 ° 0 min 0,000 mm 0,9 UV-I 100 W/m² 12,4 °C 14,0 °C 0,0 km/h (0 Bft)
04.06.2019 07:42 13,9 °C 90 % 1011,4 hPa 0,0 mm 0,0 km/h (0 Bft) NO 39 ° 0 min 0,000 mm 0,9 UV-I 84 W/m² 12,3 °C 13,9 °C 0,0 km/h (0 Bft)
04.06.2019 07:43 13,8 °C 90 % 1011,4 hPa 0,2 mm 0,0 km/h (0 Bft) NO 39 ° 0 min 0,000 mm 0,9 UV-I 77 W/m² 12,2 °C 13,8 °C 0,0 km/h (0 Bft)
04.06.2019 07:44 13,8 °C 90 % 1011,4 hPa 0,0 mm 0,0 km/h (0 Bft) NO 39 ° 0 min 0,000 mm 1,1 UV-I 77 W/m² 12,2 °C 13,8 °C 0,0 km/h (0 Bft)
04.06.2019 07:45 13,8 °C 90 % 1011,4 hPa 0,0 mm 0,0 km/h (0 Bft) NO 39 ° 0 min 0,000 mm 1,0 UV-I 146 W/m² 12,2 °C 13,8 °C 0,0 km/h (0 Bft)
04.06.2019 07:46 13,8 °C 91 % 1011,4 hPa 0,0 mm 0,0 km/h (0 Bft) NO 39 ° 0 min 0,000 mm 1,1 UV-I 146 W/m² 12,4 °C 13,8 °C 0,0 km/h (0 Bft)
04.06.2019 07:47 13,9 °C 91 % 1011,4 hPa 0,0 mm 0,0 km/h (0 Bft) NO 39 ° 0 min 0,000 mm 1,1 UV-I 267 W/m² 12,5 °C 13,9 °C 0,0 km/h (0 Bft)
04.06.2019 07:48 14,1 °C 91 % 1011,4 hPa 0,0 mm 0,0 km/h (0 Bft) NO 39 ° 0 min 0,000 mm 1,1 UV-I 265 W/m² 12,7 °C 14,1 °C 0,0 km/h (0 Bft)
04.06.2019 07:49 14,1 °C 91 % 1011,4 hPa 0,0 mm 0,0 km/h (0 Bft) NO 39 ° 0 min 0,000 mm 1,1 UV-I 274 W/m² 12,7 °C 14,1 °C 0,0 km/h (0 Bft)
04.06.2019 07:50 14,2 °C 91 % 1011,4 hPa 0,0 mm 0,0 km/h (0 Bft) NO 39 ° 0 min 0,000 mm 1,2 UV-I 276 W/m² 12,8 °C 14,2 °C 0,0 km/h (0 Bft)
04.06.2019 07:51 14,3 °C 90 % 1011,4 hPa 0,0 mm 0,0 km/h (0 Bft) NO 39 ° 0 min 0,000 mm 1,2 UV-I 278 W/m² 12,7 °C 14,3 °C 0,0 km/h (0 Bft)
04.06.2019 07:52 14,4 °C 90 % 1011,4 hPa 0,0 mm 0,0 km/h (0 Bft) NO 39 ° 0 min 0,000 mm 1,2 UV-I 279 W/m² 12,8 °C 14,4 °C 0,0 km/h (0 Bft)
04.06.2019 07:53 14,6 °C 90 % 1011,4 hPa 0,0 mm 0,0 km/h (0 Bft) NO 39 ° 0 min 0,000 mm 1,2 UV-I 281 W/m² 13,0 °C 14,6 °C 0,0 km/h (0 Bft)
04.06.2019 07:54 14,7 °C 90 % 1011,4 hPa 0,0 mm 0,0 km/h (0 Bft) NO 39 ° 0 min 0,000 mm 1,2 UV-I 283 W/m² 13,1 °C 14,7 °C 0,0 km/h (0 Bft)
04.06.2019 07:55 14,7 °C 89 % 1011,4 hPa 0,0 mm 0,0 km/h (0 Bft) NO 39 ° 0 min 0,000 mm 1,2 UV-I 290 W/m² 12,9 °C 14,7 °C 0,0 km/h (0 Bft)
04.06.2019 07:56 14,7 °C 88 % 1011,4 hPa 0,0 mm 0,0 km/h (0 Bft) NO 39 ° 0 min 0,000 mm 1,3 UV-I 292 W/m² 12,7 °C 14,7 °C 0,0 km/h (0 Bft)
04.06.2019 07:57 14,8 °C 88 % 1011,4 hPa 0,0 mm 0,0 km/h (0 Bft) NO 39 ° 0 min 0,000 mm 1,3 UV-I 295 W/m² 12,8 °C 14,8 °C 0,0 km/h (0 Bft)
04.06.2019 07:58 14,8 °C 88 % 1011,4 hPa 0,0 mm 0,0 km/h (0 Bft) NO 39 ° 0 min 0,000 mm 1,3 UV-I 297 W/m² 12,8 °C 14,8 °C 0,0 km/h (0 Bft)
04.06.2019 07:59 14,8 °C 87 % 1011,5 hPa 0,0 mm 0,0 km/h (0 Bft) NO 39 ° 0 min 0,000 mm 1,3 UV-I 299 W/m² 12,7 °C 14,8 °C 0,0 km/h (0 Bft)
04.06.2019 08:00 14,8 °C 87 % 1011,4 hPa 0,0 mm 0,0 km/h (0 Bft) NO 39 ° 0 min 0,000 mm 1,3 UV-I 301 W/m² 12,7 °C 14,8 °C 0,0 km/h (0 Bft)
04.06.2019 08:01 14,9 °C 88 % 1011,4 hPa 0,0 mm 0,0 km/h (0 Bft) NO 39 ° 0 min 0,101 mm 1,3 UV-I 304 W/m² 12,9 °C 14,9 °C 0,0 km/h (0 Bft)
04.06.2019 08:02 15,0 °C 87 % 1011,4 hPa 0,0 mm 0,0 km/h (0 Bft) NO 39 ° 0 min 0,000 mm 1,3 UV-I 306 W/m² 12,9 °C 15,0 °C 0,0 km/h (0 Bft)
04.06.2019 08:03 15,1 °C 87 % 1011,4 hPa 0,0 mm 0,0 km/h (0 Bft) NO 39 ° 0 min 0,000 mm 1,4 UV-I 309 W/m² 13,0 °C 15,1 °C 0,0 km/h (0 Bft)
04.06.2019 08:04 15,1 °C 86 % 1011,4 hPa 0,0 mm 0,0 km/h (0 Bft) NO 39 ° 0 min 0,000 mm 1,4 UV-I 311 W/m² 12,8 °C 15,1 °C 0,0 km/h (0 Bft)
04.06.2019 08:05 15,1 °C 86 % 1011,4 hPa 0,0 mm 0,0 km/h (0 Bft) NO 39 ° 0 min 0,000 mm 1,4 UV-I 315 W/m² 12,8 °C 15,1 °C 0,0 km/h (0 Bft)
04.06.2019 08:06 15,1 °C 86 % 1011,4 hPa 0,0 mm 0,0 km/h (0 Bft) NO 39 ° 0 min 0,000 mm 1,4 UV-I 316 W/m² 12,8 °C 15,1 °C 0,0 km/h (0 Bft)
04.06.2019 08:07 15,2 °C 87 % 1011,4 hPa 0,0 mm 0,0 km/h (0 Bft) NO 39 ° 0 min 0,000 mm 1,4 UV-I 322 W/m² 13,0 °C 15,2 °C 0,0 km/h (0 Bft)
04.06.2019 08:08 15,2 °C 86 % 1011,4 hPa 0,0 mm 0,0 km/h (0 Bft) NO 39 ° 0 min 0,000 mm 1,5 UV-I 325 W/m² 12,9 °C 15,2 °C 0,0 km/h (0 Bft)
04.06.2019 08:09 15,2 °C 85 % 1011,4 hPa 0,0 mm 0,0 km/h (0 Bft) NO 39 ° 0 min 0,000 mm 1,5 UV-I 327 W/m² 12,7 °C 15,2 °C 0,0 km/h (0 Bft)
04.06.2019 08:10 15,3 °C 85 % 1011,5 hPa 0,0 mm 0,0 km/h (0 Bft) NO 39 ° 0 min 0,000 mm 1,5 UV-I 329 W/m² 12,8 °C 15,3 °C 0,0 km/h (0 Bft)
04.06.2019 08:11 15,4 °C 85 % 1011,4 hPa 0,0 mm 0,0 km/h (0 Bft) NO 39 ° 0 min 0,000 mm 1,5 UV-I 330 W/m² 12,9 °C 15,4 °C 0,0 km/h (0 Bft)
04.06.2019 08:12 15,6 °C 85 % 1011,4 hPa 0,0 mm 0,0 km/h (0 Bft) NO 39 ° 0 min 0,000 mm 1,5 UV-I 338 W/m² 13,1 °C 15,6 °C 0,0 km/h (0 Bft)
04.06.2019 08:13 15,6 °C 85 % 1011,4 hPa 0,0 mm 0,0 km/h (0 Bft) NO 39 ° 0 min 0,000 mm 1,5 UV-I 339 W/m² 13,1 °C 15,6 °C 0,0 km/h (0 Bft)
04.06.2019 08:14 15,6 °C 84 % 1011,3 hPa 0,0 mm 0,0 km/h (0 Bft) NO 39 ° 0 min 0,000 mm 1,6 UV-I 341 W/m² 12,9 °C 15,6 °C 0,0 km/h (0 Bft)
04.06.2019 08:15 15,7 °C 84 % 1011,4 hPa 0,0 mm 0,0 km/h (0 Bft) NO 39 ° 0 min 0,000 mm 1,6 UV-I 343 W/m² 13,0 °C 15,7 °C 0,0 km/h (0 Bft)
04.06.2019 08:16 15,8 °C 85 % 1011,3 hPa 0,0 mm 0,0 km/h (0 Bft) NO 39 ° 0 min 0,000 mm 1,6 UV-I 346 W/m² 13,3 °C 15,8 °C 0,0 km/h (0 Bft)
04.06.2019 08:17 15,8 °C 84 % 1011,3 hPa 0,0 mm 0,0 km/h (0 Bft) NO 39 ° 0 min 0,000 mm 1,6 UV-I 350 W/m² 13,1 °C 15,8 °C 0,0 km/h (0 Bft)
04.06.2019 08:18 15,9 °C 86 % 1011,3 hPa 0,0 mm 0,0 km/h (0 Bft) NO 39 ° 0 min 0,000 mm 1,6 UV-I 357 W/m² 13,6 °C 15,9 °C 0,0 km/h (0 Bft)
04.06.2019 08:19 15,9 °C 85 % 1011,3 hPa 0,0 mm 0,0 km/h (0 Bft) NO 39 ° 0 min 0,000 mm 1,7 UV-I 359 W/m² 13,4 °C 15,9 °C 0,0 km/h (0 Bft)
04.06.2019 08:20 15,9 °C 86 % 1011,3 hPa 0,0 mm 0,0 km/h (0 Bft) NO 39 ° 0 min 0,000 mm 1,7 UV-I 362 W/m² 13,6 °C 15,9 °C 0,0 km/h (0 Bft)
04.06.2019 08:21 16,0 °C 85 % 1011,3 hPa 0,0 mm 0,0 km/h (0 Bft) NO 39 ° 0 min 0,000 mm 1,8 UV-I 364 W/m² 13,5 °C 16,0 °C 0,0 km/h (0 Bft)
04.06.2019 08:22 16,1 °C 84 % 1011,3 hPa 0,0 mm 0,0 km/h (0 Bft) NO 39 ° 0 min 0,000 mm 1,8 UV-I 367 W/m² 13,4 °C 16,1 °C 0,0 km/h (0 Bft)
04.06.2019 08:23 16,2 °C 86 % 1011,3 hPa 0,0 mm 0,0 km/h (0 Bft) NO 39 ° 0 min 0,000 mm 1,8 UV-I 369 W/m² 13,9 °C 16,2 °C 0,0 km/h (0 Bft)
04.06.2019 08:24 16,3 °C 85 % 1011,3 hPa 0,0 mm 0,0 km/h (0 Bft) NO 39 ° 0 min 0,000 mm 1,8 UV-I 374 W/m² 13,8 °C 16,3 °C 0,0 km/h (0 Bft)
04.06.2019 08:25 16,4 °C 86 % 1011,3 hPa 0,0 mm 0,0 km/h (0 Bft) NO 39 ° 0 min 0,000 mm 1,9 UV-I 376 W/m² 14,1 °C 16,4 °C 0,0 km/h (0 Bft)
04.06.2019 08:26 16,3 °C 85 % 1011,3 hPa 0,0 mm 0,0 km/h (0 Bft) NO 39 ° 0 min 0,000 mm 1,9 UV-I 380 W/m² 13,8 °C 16,3 °C 0,0 km/h (0 Bft)
04.06.2019 08:27 16,3 °C 85 % 1011,3 hPa 0,0 mm 0,0 km/h (0 Bft) NO 39 ° 0 min 0,000 mm 1,9 UV-I 381 W/m² 13,8 °C 16,3 °C 0,0 km/h (0 Bft)
04.06.2019 08:28 16,4 °C 85 % 1011,3 hPa 0,0 mm 0,0 km/h (0 Bft) NO 39 ° 0 min 0,000 mm 1,9 UV-I 385 W/m² 13,9 °C 16,4 °C 0,0 km/h (0 Bft)
04.06.2019 08:29 16,4 °C 86 % 1011,3 hPa 0,0 mm 0,0 km/h (0 Bft) NO 39 ° 0 min 0,000 mm 1,9 UV-I 387 W/m² 14,1 °C 16,4 °C 0,0 km/h (0 Bft)
04.06.2019 08:30 16,4 °C 85 % 1011,3 hPa 0,0 mm 0,0 km/h (0 Bft) NO 39 ° 0 min 0,000 mm 1,9 UV-I 392 W/m² 13,9 °C 16,4 °C 0,0 km/h (0 Bft)
04.06.2019 08:31 16,4 °C 85 % 1011,3 hPa 0,0 mm 0,0 km/h (0 Bft) NO 39 ° 0 min 0,000 mm 2,0 UV-I 396 W/m² 13,9 °C 16,4 °C 0,0 km/h (0 Bft)
04.06.2019 08:32 16,4 °C 85 % 1011,3 hPa 0,0 mm 0,0 km/h (0 Bft) NO 39 ° 0 min 0,000 mm 2,0 UV-I 397 W/m² 13,9 °C 16,4 °C 0,0 km/h (0 Bft)
04.06.2019 08:33 16,6 °C 85 % 1011,2 hPa 0,0 mm 0,0 km/h (0 Bft) NO 39 ° 0 min 0,000 mm 2,0 UV-I 401 W/m² 14,1 °C 16,6 °C 0,0 km/h (0 Bft)
04.06.2019 08:34 16,6 °C 85 % 1011,2 hPa 0,0 mm 0,0 km/h (0 Bft) NO 39 ° 0 min 0,000 mm 2,0 UV-I 404 W/m² 14,1 °C 16,6 °C 0,0 km/h (0 Bft)
04.06.2019 08:35 16,8 °C 88 % 1011,2 hPa 0,0 mm 0,0 km/h (0 Bft) NO 39 ° 0 min 0,000 mm 2,1 UV-I 406 W/m² 14,8 °C 16,8 °C 0,0 km/h (0 Bft)
04.06.2019 08:36 16,8 °C 86 % 1011,2 hPa 0,0 mm 0,0 km/h (0 Bft) NO 39 ° 0 min 0,000 mm 2,1 UV-I 410 W/m² 14,4 °C 16,8 °C 0,0 km/h (0 Bft)
04.06.2019 08:37 16,8 °C 85 % 1011,2 hPa 0,0 mm 0,0 km/h (0 Bft) NO 39 ° 0 min 0,000 mm 2,1 UV-I 413 W/m² 14,3 °C 16,8 °C 0,0 km/h (0 Bft)
04.06.2019 08:38 16,9 °C 85 % 1011,1 hPa 0,0 mm 0,0 km/h (0 Bft) NO 39 ° 0 min 0,000 mm 2,1 UV-I 415 W/m² 14,4 °C 16,9 °C 0,0 km/h (0 Bft)
04.06.2019 08:39 17,0 °C 85 % 1011,1 hPa 0,0 mm 0,0 km/h (0 Bft) NO 39 ° 0 min 0,000 mm 2,1 UV-I 417 W/m² 14,5 °C 17,0 °C 0,0 km/h (0 Bft)
04.06.2019 08:40 17,1 °C 84 % 1011,1 hPa 0,0 mm 1,1 km/h (1 Bft) NO 39 ° 0 min 0,000 mm 2,2 UV-I 418 W/m² 14,4 °C 17,1 °C 3,2 km/h (1 Bft)
04.06.2019 08:41 17,3 °C 85 % 1011,1 hPa 0,0 mm 0,2 km/h (0 Bft) NO 39 ° 0 min 0,000 mm 2,2 UV-I 422 W/m² 14,8 °C 17,3 °C 1,6 km/h (1 Bft)
04.06.2019 08:42 17,3 °C 86 % 1011,1 hPa 0,0 mm 0,4 km/h (0 Bft) NO 39 ° 0 min 0,000 mm 2,2 UV-I 427 W/m² 14,9 °C 17,3 °C 3,2 km/h (1 Bft)
04.06.2019 08:43 17,4 °C 83 % 1011,1 hPa 0,0 mm 2,0 km/h (1 Bft) NO 39 ° 0 min 0,000 mm 2,2 UV-I 431 W/m² 14,5 °C 17,4 °C 4,8 km/h (1 Bft)
04.06.2019 08:44 17,6 °C 84 % 1011,1 hPa 0,0 mm 1,3 km/h (1 Bft) NO 39 ° 0 min 0,000 mm 2,3 UV-I 432 W/m² 14,9 °C 17,6 °C 3,2 km/h (1 Bft)
04.06.2019 08:45 17,6 °C 79 % 1011,1 hPa 0,0 mm 0,7 km/h (0 Bft) NO 39 ° 0 min 0,000 mm 2,3 UV-I 434 W/m² 13,9 °C 17,6 °C 3,2 km/h (1 Bft)
04.06.2019 08:46 17,6 °C 80 % 1011,1 hPa 0,0 mm 1,1 km/h (1 Bft) NO 39 ° 0 min 0,000 mm 2,3 UV-I 436 W/m² 14,1 °C 17,6 °C 3,2 km/h (1 Bft)
04.06.2019 08:47 17,6 °C 77 % 1011,1 hPa 0,0 mm 0,5 km/h (0 Bft) NO 39 ° 0 min 0,000 mm 2,3 UV-I 439 W/m² 13,5 °C 17,6 °C 1,6 km/h (1 Bft)
04.06.2019 08:48 17,8 °C 79 % 1011,1 hPa 0,0 mm 0,3 km/h (0 Bft) NO 39 ° 0 min 0,000 mm 2,3 UV-I 445 W/m² 14,1 °C 17,8 °C 1,6 km/h (1 Bft)
04.06.2019 08:49 17,9 °C 83 % 1011,1 hPa 0,0 mm 0,1 km/h (0 Bft) NO 39 ° 0 min 0,000 mm 2,4 UV-I 446 W/m² 15,0 °C 17,9 °C 1,6 km/h (1 Bft)
04.06.2019 08:50 17,9 °C 77 % 1011,1 hPa 0,0 mm 1,6 km/h (1 Bft) NO 39 ° 0 min 0,000 mm 2,4 UV-I 448 W/m² 13,8 °C 17,9 °C 3,2 km/h (1 Bft)
04.06.2019 08:51 18,1 °C 79 % 1011,1 hPa 0,0 mm 2,4 km/h (1 Bft) NO 39 ° 0 min 0,000 mm 2,5 UV-I 450 W/m² 14,4 °C 18,1 °C 3,2 km/h (1 Bft)
04.06.2019 08:52 18,1 °C 79 % 1011,1 hPa 0,0 mm 1,5 km/h (1 Bft) NO 39 ° 0 min 0,000 mm 2,5 UV-I 454 W/m² 14,4 °C 18,1 °C 3,2 km/h (1 Bft)
04.06.2019 08:53 18,2 °C 77 % 1011,1 hPa 0,0 mm 1,5 km/h (1 Bft) NO 39 ° 0 min 0,000 mm 2,5 UV-I 457 W/m² 14,1 °C 18,2 °C 3,2 km/h (1 Bft)
04.06.2019 08:54 18,2 °C 77 % 1011,1 hPa 0,0 mm 0,9 km/h (0 Bft) NO 39 ° 0 min 0,000 mm 2,5 UV-I 462 W/m² 14,1 °C 18,2 °C 1,6 km/h (1 Bft)
04.06.2019 08:55 18,3 °C 78 % 1011,0 hPa 0,0 mm 1,7 km/h (1 Bft) NO 39 ° 0 min 0,000 mm 2,6 UV-I 464 W/m² 14,4 °C 18,3 °C 3,2 km/h (1 Bft)
04.06.2019 08:56 18,2 °C 77 % 1011,1 hPa 0,0 mm 1,5 km/h (1 Bft) NO 39 ° 0 min 0,000 mm 2,6 UV-I 468 W/m² 14,1 °C 18,2 °C 3,2 km/h (1 Bft)
04.06.2019 08:57 18,3 °C 75 % 1011,1 hPa 0,0 mm 0,9 km/h (0 Bft) NO 39 ° 0 min 0,000 mm 2,6 UV-I 469 W/m² 13,8 °C 18,3 °C 3,2 km/h (1 Bft)
04.06.2019 08:58 18,3 °C 76 % 1011,1 hPa 0,0 mm 2,0 km/h (1 Bft) NO 39 ° 0 min 0,000 mm 2,6 UV-I 471 W/m² 14,0 °C 18,3 °C 3,2 km/h (1 Bft)
04.06.2019 08:59 18,3 °C 76 % 1011,1 hPa 0,0 mm 1,7 km/h (1 Bft) NO 39 ° 0 min 0,000 mm 2,7 UV-I 475 W/m² 14,0 °C 18,3 °C 3,2 km/h (1 Bft)
04.06.2019 09:00 18,3 °C 74 % 1011,1 hPa 0,0 mm 3,1 km/h (1 Bft) N 360 ° 0 min 0,000 mm 2,7 UV-I 480 W/m² 13,6 °C 18,3 °C 6,4 km/h (2 Bft)
04.06.2019 09:01 18,3 °C 75 % 1011,1 hPa 0,0 mm 1,7 km/h (1 Bft) N 360 ° 0 min 0,204 mm 2,7 UV-I 483 W/m² 13,8 °C 18,3 °C 3,2 km/h (1 Bft)
04.06.2019 09:02 18,3 °C 77 % 1011,1 hPa 0,0 mm 0,8 km/h (0 Bft) N 360 ° 0 min 0,000 mm 2,7 UV-I 485 W/m² 14,2 °C 18,3 °C 4,8 km/h (1 Bft)
04.06.2019 09:03 18,4 °C 77 % 1011,1 hPa 0,0 mm 3,8 km/h (1 Bft) N 360 ° 0 min 0,000 mm 2,8 UV-I 485 W/m² 14,3 °C 18,4 °C 4,8 km/h (1 Bft)
04.06.2019 09:04 18,4 °C 76 % 1011,1 hPa 0,0 mm 2,7 km/h (1 Bft) N 355 ° 0 min 0,000 mm 2,8 UV-I 487 W/m² 14,1 °C 18,4 °C 4,8 km/h (1 Bft)
04.06.2019 09:05 18,4 °C 75 % 1011,1 hPa 0,0 mm 3,5 km/h (1 Bft) N-NO 17 ° 0 min 0,000 mm 2,8 UV-I 492 W/m² 13,9 °C 18,4 °C 4,8 km/h (1 Bft)
04.06.2019 09:06 18,4 °C 75 % 1011,1 hPa 0,0 mm 3,0 km/h (1 Bft) N-NO 17 ° 0 min 0,000 mm 2,8 UV-I 494 W/m² 13,9 °C 18,4 °C 4,8 km/h (1 Bft)
04.06.2019 09:07 18,4 °C 73 % 1011,1 hPa 0,0 mm 1,0 km/h (0 Bft) N-NO 17 ° 0 min 0,000 mm 2,9 UV-I 496 W/m² 13,5 °C 18,4 °C 3,2 km/h (1 Bft)
04.06.2019 09:08 18,5 °C 73 % 1011,1 hPa 0,0 mm 0,2 km/h (0 Bft) N-NO 17 ° 0 min 0,000 mm 2,9 UV-I 499 W/m² 13,6 °C 18,5 °C 1,6 km/h (1 Bft)
04.06.2019 09:09 18,6 °C 75 % 1011,0 hPa 0,0 mm 0,1 km/h (0 Bft) N-NO 17 ° 0 min 0,000 mm 2,9 UV-I 501 W/m² 14,1 °C 18,6 °C 1,6 km/h (1 Bft)
04.06.2019 09:10 18,6 °C 73 % 1011,1 hPa 0,0 mm 0,1 km/h (0 Bft) N-NO 17 ° 0 min 0,000 mm 2,9 UV-I 503 W/m² 13,7 °C 18,6 °C 1,6 km/h (1 Bft)
04.06.2019 09:11 18,6 °C 74 % 1011,1 hPa 0,0 mm 0,3 km/h (0 Bft) N-NO 17 ° 0 min 0,000 mm 2,9 UV-I 508 W/m² 13,9 °C 18,6 °C 1,6 km/h (1 Bft)
04.06.2019 09:12 18,6 °C 75 % 1011,0 hPa 0,0 mm 1,7 km/h (1 Bft) N-NO 17 ° 0 min 0,000 mm 3,0 UV-I 512 W/m² 14,1 °C 18,6 °C 3,2 km/h (1 Bft)
04.06.2019 09:13 18,6 °C 76 % 1011,0 hPa 0,0 mm 1,7 km/h (1 Bft) N-NO 17 ° 0 min 0,000 mm 3,0 UV-I 515 W/m² 14,3 °C 18,6 °C 3,2 km/h (1 Bft)
04.06.2019 09:14 18,6 °C 77 % 1011,0 hPa 0,0 mm 1,7 km/h (1 Bft) O 87 ° 0 min 0,000 mm 3,0 UV-I 519 W/m² 14,5 °C 18,6 °C 4,8 km/h (1 Bft)
04.06.2019 09:15 18,6 °C 75 % 1011,0 hPa 0,0 mm 3,2 km/h (1 Bft) O 84 ° 0 min 0,000 mm 3,0 UV-I 522 W/m² 14,1 °C 18,6 °C 4,8 km/h (1 Bft)
04.06.2019 09:16 18,6 °C 76 % 1011,0 hPa 0,0 mm 1,9 km/h (1 Bft) O 84 ° 0 min 0,000 mm 3,1 UV-I 524 W/m² 14,3 °C 18,6 °C 4,8 km/h (1 Bft)
04.06.2019 09:17 18,5 °C 75 % 1011,0 hPa 0,0 mm 1,2 km/h (1 Bft) O 84 ° 0 min 0,000 mm 3,1 UV-I 529 W/m² 14,0 °C 18,5 °C 3,2 km/h (1 Bft)
04.06.2019 09:18 18,6 °C 74 % 1011,0 hPa 0,0 mm 0,9 km/h (0 Bft) O 84 ° 0 min 0,000 mm 3,1 UV-I 531 W/m² 13,9 °C 18,6 °C 3,2 km/h (1 Bft)
04.06.2019 09:19 18,6 °C 75 % 1011,0 hPa 0,0 mm 1,2 km/h (1 Bft) O 84 ° 0 min 0,000 mm 3,1 UV-I 534 W/m² 14,1 °C 18,6 °C 3,2 km/h (1 Bft)
04.06.2019 09:20 18,6 °C 74 % 1011,0 hPa 0,0 mm 1,6 km/h (1 Bft) O 84 ° 0 min 0,000 mm 3,1 UV-I 536 W/m² 13,9 °C 18,6 °C 3,2 km/h (1 Bft)
04.06.2019 09:21 18,7 °C 75 % 1011,0 hPa 0,0 mm 0,3 km/h (0 Bft) O 84 ° 0 min 0,000 mm 3,2 UV-I 540 W/m² 14,2 °C 18,7 °C 1,6 km/h (1 Bft)
04.06.2019 09:22 18,8 °C 76 % 1011,0 hPa 0,0 mm 1,2 km/h (1 Bft) O 84 ° 0 min 0,000 mm 3,2 UV-I 541 W/m² 14,5 °C 18,8 °C 3,2 km/h (1 Bft)
04.06.2019 09:23 18,7 °C 74 % 1011,0 hPa 0,0 mm 0,8 km/h (0 Bft) O 84 ° 0 min 0,000 mm 3,2 UV-I 545 W/m² 14,0 °C 18,7 °C 3,2 km/h (1 Bft)
04.06.2019 09:24 18,7 °C 77 % 1011,0 hPa 0,0 mm 2,0 km/h (1 Bft) O 83 ° 0 min 0,000 mm 3,2 UV-I 548 W/m² 14,6 °C 18,7 °C 4,8 km/h (1 Bft)
04.06.2019 09:25 18,7 °C 75 % 1011,0 hPa 0,0 mm 3,0 km/h (1 Bft) O-NO 76 ° 0 min 0,000 mm 3,3 UV-I 552 W/m² 14,2 °C 18,7 °C 4,8 km/h (1 Bft)
04.06.2019 09:26 18,8 °C 74 % 1011,0 hPa 0,0 mm 1,2 km/h (1 Bft) O-NO 76 ° 0 min 0,000 mm 3,3 UV-I 552 W/m² 14,1 °C 18,8 °C 3,2 km/h (1 Bft)
04.06.2019 09:27 18,8 °C 76 % 1011,0 hPa 0,0 mm 0,5 km/h (0 Bft) O-NO 76 ° 0 min 0,000 mm 3,3 UV-I 554 W/m² 14,5 °C 18,8 °C 3,2 km/h (1 Bft)
04.06.2019 09:28 18,8 °C 74 % 1011,0 hPa 0,0 mm 1,9 km/h (1 Bft) O-NO 76 ° 0 min 0,000 mm 3,3 UV-I 557 W/m² 14,1 °C 18,8 °C 3,2 km/h (1 Bft)
04.06.2019 09:29 18,7 °C 73 % 1011,0 hPa 0,0 mm 1,3 km/h (1 Bft) O-NO 76 ° 0 min 0,000 mm 3,3 UV-I 563 W/m² 13,8 °C 18,7 °C 3,2 km/h (1 Bft)
04.06.2019 09:30 18,8 °C 75 % 1011,0 hPa 0,0 mm 0,0 km/h (0 Bft) O-NO 76 ° 0 min 0,000 mm 3,4 UV-I 564 W/m² 14,3 °C 18,8 °C 0,0 km/h (0 Bft)
04.06.2019 09:31 18,9 °C 77 % 1011,0 hPa 0,0 mm 1,7 km/h (1 Bft) O-NO 76 ° 0 min 0,000 mm 3,4 UV-I 568 W/m² 14,8 °C 18,9 °C 3,2 km/h (1 Bft)
04.06.2019 09:32 18,9 °C 74 % 1010,9 hPa 0,0 mm 2,1 km/h (1 Bft) O-NO 76 ° 0 min 0,000 mm 3,4 UV-I 570 W/m² 14,2 °C 18,9 °C 4,8 km/h (1 Bft)
04.06.2019 09:33 18,9 °C 74 % 1010,9 hPa 0,0 mm 1,0 km/h (0 Bft) O-NO 76 ° 0 min 0,000 mm 3,5 UV-I 573 W/m² 14,2 °C 18,9 °C 1,6 km/h (1 Bft)
04.06.2019 09:34 18,9 °C 74 % 1011,0 hPa 0,0 mm 2,1 km/h (1 Bft) O-NO 76 ° 0 min 0,000 mm 3,5 UV-I 577 W/m² 14,2 °C 18,9 °C 3,2 km/h (1 Bft)
04.06.2019 09:35 18,9 °C 74 % 1011,0 hPa 0,0 mm 1,3 km/h (1 Bft) O-NO 76 ° 0 min 0,000 mm 3,5 UV-I 580 W/m² 14,2 °C 18,9 °C 3,2 km/h (1 Bft)
04.06.2019 09:36 18,9 °C 75 % 1010,9 hPa 0,0 mm 1,3 km/h (1 Bft) O-NO 76 ° 0 min 0,000 mm 3,5 UV-I 582 W/m² 14,4 °C 18,9 °C 4,8 km/h (1 Bft)
04.06.2019 09:37 18,9 °C 75 % 1010,9 hPa 0,0 mm 1,3 km/h (1 Bft) O-NO 76 ° 0 min 0,000 mm 3,6 UV-I 584 W/m² 14,4 °C 18,9 °C 3,2 km/h (1 Bft)
04.06.2019 09:38 19,1 °C 77 % 1010,9 hPa 0,0 mm 0,1 km/h (0 Bft) O-NO 76 ° 0 min 0,000 mm 3,6 UV-I 585 W/m² 15,0 °C 19,1 °C 1,6 km/h (1 Bft)
04.06.2019 09:39 19,1 °C 76 % 1010,9 hPa 0,0 mm 0,6 km/h (0 Bft) O-NO 76 ° 0 min 0,000 mm 3,6 UV-I 587 W/m² 14,8 °C 19,1 °C 3,2 km/h (1 Bft)
04.06.2019 09:40 19,2 °C 79 % 1010,9 hPa 0,0 mm 1,7 km/h (1 Bft) O-NO 76 ° 0 min 0,000 mm 3,6 UV-I 592 W/m² 15,5 °C 19,2 °C 3,2 km/h (1 Bft)
04.06.2019 09:41 19,2 °C 75 % 1010,9 hPa 0,0 mm 0,1 km/h (0 Bft) O-NO 76 ° 0 min 0,000 mm 3,6 UV-I 594 W/m² 14,7 °C 19,2 °C 1,6 km/h (1 Bft)
04.06.2019 09:42 19,3 °C 75 % 1010,9 hPa 0,0 mm 1,1 km/h (1 Bft) O-NO 76 ° 0 min 0,000 mm 3,7 UV-I 596 W/m² 14,8 °C 19,3 °C 1,6 km/h (1 Bft)
04.06.2019 09:43 19,5 °C 77 % 1010,9 hPa 0,0 mm 1,9 km/h (1 Bft) O-NO 60 ° 0 min 0,000 mm 3,7 UV-I 598 W/m² 15,4 °C 19,5 °C 3,2 km/h (1 Bft)
04.06.2019 09:44 19,5 °C 75 % 1011,0 hPa 0,0 mm 1,5 km/h (1 Bft) O-NO 60 ° 0 min 0,000 mm 3,7 UV-I 599 W/m² 14,9 °C 19,5 °C 3,2 km/h (1 Bft)
04.06.2019 09:45 19,4 °C 72 % 1010,9 hPa 0,0 mm 1,8 km/h (1 Bft) O-NO 60 ° 1 min 0,000 mm 3,7 UV-I 601 W/m² 14,2 °C 19,4 °C 3,2 km/h (1 Bft)
04.06.2019 09:46 19,4 °C 76 % 1011,0 hPa 0,0 mm 2,7 km/h (1 Bft) O-NO 60 ° 1 min 0,000 mm 3,8 UV-I 605 W/m² 15,1 °C 19,4 °C 4,8 km/h (1 Bft)
04.06.2019 09:47 19,3 °C 73 % 1011,0 hPa 0,0 mm 1,1 km/h (1 Bft) O-NO 60 ° 1 min 0,000 mm 3,8 UV-I 608 W/m² 14,3 °C 19,3 °C 3,2 km/h (1 Bft)
04.06.2019 09:48 19,4 °C 74 % 1010,9 hPa 0,0 mm 1,3 km/h (1 Bft) O-NO 60 ° 1 min 0,000 mm 3,8 UV-I 608 W/m² 14,6 °C 19,4 °C 3,2 km/h (1 Bft)
04.06.2019 09:49 19,5 °C 74 % 1011,0 hPa 0,0 mm 1,9 km/h (1 Bft) O-NO 60 ° 1 min 0,000 mm 3,8 UV-I 610 W/m² 14,7 °C 19,5 °C 3,2 km/h (1 Bft)
04.06.2019 09:50 19,6 °C 74 % 1011,0 hPa 0,0 mm 0,3 km/h (0 Bft) O-NO 60 ° 1 min 0,000 mm 3,8 UV-I 612 W/m² 14,8 °C 19,6 °C 1,6 km/h (1 Bft)
04.06.2019 09:51 19,7 °C 72 % 1011,0 hPa 0,0 mm 0,8 km/h (0 Bft) O-NO 60 ° 1 min 0,000 mm 3,9 UV-I 613 W/m² 14,5 °C 19,7 °C 3,2 km/h (1 Bft)
04.06.2019 09:52 19,7 °C 73 % 1010,9 hPa 0,0 mm 1,4 km/h (1 Bft) O-NO 60 ° 1 min 0,000 mm 3,9 UV-I 617 W/m² 14,7 °C 19,7 °C 3,2 km/h (1 Bft)
04.06.2019 09:53 19,7 °C 73 % 1010,9 hPa 0,0 mm 1,1 km/h (1 Bft) O-NO 60 ° 1 min 0,000 mm 3,9 UV-I 621 W/m² 14,7 °C 19,7 °C 3,2 km/h (1 Bft)
04.06.2019 09:54 19,7 °C 74 % 1010,9 hPa 0,0 mm 3,0 km/h (1 Bft) NO 56 ° 1 min 0,000 mm 3,9 UV-I 622 W/m² 14,9 °C 19,7 °C 4,8 km/h (1 Bft)
04.06.2019 09:55 19,8 °C 74 % 1010,9 hPa 0,0 mm 3,6 km/h (1 Bft) N-NO 19 ° 1 min 0,000 mm 3,9 UV-I 622 W/m² 15,0 °C 19,8 °C 4,8 km/h (1 Bft)
04.06.2019 09:56 19,8 °C 72 % 1010,9 hPa 0,0 mm 1,6 km/h (1 Bft) N-NO 19 ° 1 min 0,000 mm 4,0 UV-I 626 W/m² 14,6 °C 19,8 °C 3,2 km/h (1 Bft)
04.06.2019 09:57 19,9 °C 71 % 1010,9 hPa 0,0 mm 0,0 km/h (0 Bft) N-NO 19 ° 1 min 0,000 mm 4,0 UV-I 629 W/m² 14,5 °C 19,9 °C 0,0 km/h (0 Bft)
04.06.2019 09:58 19,9 °C 72 % 1010,9 hPa 0,0 mm 1,3 km/h (1 Bft) N-NO 19 ° 1 min 0,000 mm 4,0 UV-I 631 W/m² 14,7 °C 19,9 °C 3,2 km/h (1 Bft)
04.06.2019 09:59 20,0 °C 70 % 1010,9 hPa 0,0 mm 1,5 km/h (1 Bft) N-NO 19 ° 1 min 0,000 mm 4,0 UV-I 633 W/m² 14,4 °C 20,0 °C 3,2 km/h (1 Bft)
04.06.2019 10:00 20,1 °C 72 % 1010,8 hPa 0,0 mm 2,3 km/h (1 Bft) N 355 ° 1 min 0,000 mm 4,0 UV-I 635 W/m² 14,9 °C 20,1 °C 4,8 km/h (1 Bft)
04.06.2019 10:01 20,2 °C 72 % 1010,9 hPa 0,0 mm 3,5 km/h (1 Bft) N-NO 21 ° 1 min 0,330 mm 4,1 UV-I 638 W/m² 15,0 °C 20,2 °C 6,4 km/h (2 Bft)
04.06.2019 10:02 20,3 °C 71 % 1010,9 hPa 0,0 mm 2,2 km/h (1 Bft) N-NO 21 ° 1 min 0,000 mm 4,1 UV-I 640 W/m² 14,9 °C 20,3 °C 4,8 km/h (1 Bft)
04.06.2019 10:03 20,3 °C 71 % 1010,8 hPa 0,0 mm 2,0 km/h (1 Bft) N-NO 21 ° 1 min 0,000 mm 4,1 UV-I 640 W/m² 14,9 °C 20,3 °C 3,2 km/h (1 Bft)
04.06.2019 10:04 20,4 °C 70 % 1010,9 hPa 0,0 mm 3,0 km/h (1 Bft) N-NO 21 ° 1 min 0,000 mm 4,1 UV-I 642 W/m² 14,7 °C 20,4 °C 4,8 km/h (1 Bft)
04.06.2019 10:05 20,5 °C 71 % 1010,8 hPa 0,0 mm 3,5 km/h (1 Bft) N-NO 19 ° 1 min 0,000 mm 4,1 UV-I 645 W/m² 15,1 °C 20,5 °C 4,8 km/h (1 Bft)
04.06.2019 10:06 20,5 °C 70 % 1010,8 hPa 0,0 mm 3,1 km/h (1 Bft) N 5 ° 1 min 0,000 mm 4,2 UV-I 647 W/m² 14,8 °C 20,5 °C 6,4 km/h (2 Bft)
04.06.2019 10:07 20,6 °C 70 % 1010,8 hPa 0,0 mm 1,5 km/h (1 Bft) N 5 ° 1 min 0,000 mm 4,2 UV-I 649 W/m² 14,9 °C 20,6 °C 4,8 km/h (1 Bft)
04.06.2019 10:08 20,6 °C 70 % 1010,9 hPa 0,0 mm 4,0 km/h (1 Bft) N 360 ° 1 min 0,000 mm 4,2 UV-I 652 W/m² 14,9 °C 20,6 °C 4,8 km/h (1 Bft)
04.06.2019 10:09 20,6 °C 67 % 1010,8 hPa 0,0 mm 5,4 km/h (1 Bft) O-NO 60 ° 1 min 0,000 mm 4,2 UV-I 652 W/m² 14,3 °C 20,6 °C 9,7 km/h (2 Bft)
04.06.2019 10:10 20,7 °C 67 % 1010,8 hPa 0,0 mm 7,7 km/h (2 Bft) O-SO 107 ° 1 min 0,000 mm 4,2 UV-I 656 W/m² 14,3 °C 20,7 °C 12,9 km/h (3 Bft)
04.06.2019 10:11 20,8 °C 65 % 1010,8 hPa 0,0 mm 3,9 km/h (1 Bft) O 96 ° 1 min 0,000 mm 4,2 UV-I 657 W/m² 14,0 °C 20,8 °C 6,4 km/h (2 Bft)
04.06.2019 10:12 20,8 °C 65 % 1010,8 hPa 0,0 mm 6,7 km/h (2 Bft) NO 56 ° 1 min 0,000 mm 4,3 UV-I 657 W/m² 14,0 °C 20,8 °C 9,7 km/h (2 Bft)
04.06.2019 10:13 20,8 °C 66 % 1010,7 hPa 0,0 mm 5,5 km/h (1 Bft) NO 56 ° 1 min 0,000 mm 4,3 UV-I 663 W/m² 14,2 °C 20,8 °C 8,0 km/h (2 Bft)
04.06.2019 10:14 20,9 °C 71 % 1010,8 hPa 0,0 mm 6,3 km/h (2 Bft) O-NO 67 ° 1 min 0,000 mm 4,3 UV-I 663 W/m² 15,4 °C 20,9 °C 8,0 km/h (2 Bft)
04.06.2019 10:15 20,9 °C 68 % 1010,8 hPa 0,0 mm 2,1 km/h (1 Bft) NO 55 ° 1 min 0,000 mm 4,3 UV-I 670 W/m² 14,8 °C 20,9 °C 4,8 km/h (1 Bft)
04.06.2019 10:16 20,9 °C 68 % 1010,8 hPa 0,0 mm 2,8 km/h (1 Bft) N-NO 28 ° 1 min 0,000 mm 4,4 UV-I 671 W/m² 14,8 °C 20,9 °C 4,8 km/h (1 Bft)
04.06.2019 10:17 21,1 °C 69 % 1010,8 hPa 0,0 mm 2,3 km/h (1 Bft) N-NO 27 ° 1 min 0,000 mm 4,4 UV-I 673 W/m² 15,2 °C 21,1 °C 6,4 km/h (2 Bft)
04.06.2019 10:18 21,0 °C 70 % 1010,7 hPa 0,0 mm 1,8 km/h (1 Bft) O-NO 57 ° 1 min 0,000 mm 4,4 UV-I 675 W/m² 15,3 °C 21,0 °C 6,4 km/h (2 Bft)
04.06.2019 10:19 21,0 °C 72 % 1010,8 hPa 0,0 mm 6,3 km/h (2 Bft) O 88 ° 1 min 0,000 mm 4,4 UV-I 679 W/m² 15,8 °C 21,0 °C 9,7 km/h (2 Bft)
04.06.2019 10:20 21,0 °C 66 % 1010,8 hPa 0,0 mm 5,2 km/h (1 Bft) O 88 ° 1 min 0,000 mm 4,5 UV-I 682 W/m² 14,4 °C 21,0 °C 9,7 km/h (2 Bft)
04.06.2019 10:21 21,0 °C 67 % 1010,7 hPa 0,0 mm 7,2 km/h (2 Bft) NO 42 ° 1 min 0,000 mm 4,5 UV-I 686 W/m² 14,6 °C 21,0 °C 11,3 km/h (2 Bft)
04.06.2019 10:22 21,1 °C 66 % 1010,8 hPa 0,0 mm 4,9 km/h (1 Bft) O-NO 73 ° 1 min 0,000 mm 4,5 UV-I 687 W/m² 14,5 °C 21,1 °C 6,4 km/h (2 Bft)
04.06.2019 10:23 21,0 °C 64 % 1010,7 hPa 0,0 mm 4,4 km/h (1 Bft) O-NO 70 ° 1 min 0,000 mm 4,5 UV-I 691 W/m² 13,9 °C 21,0 °C 8,0 km/h (2 Bft)
04.06.2019 10:24 21,1 °C 64 % 1010,8 hPa 0,0 mm 3,2 km/h (1 Bft) NO 56 ° 1 min 0,000 mm 4,6 UV-I 693 W/m² 14,0 °C 21,1 °C 4,8 km/h (1 Bft)
04.06.2019 10:25 21,1 °C 65 % 1010,7 hPa 0,0 mm 3,9 km/h (1 Bft) O 96 ° 1 min 0,000 mm 4,6 UV-I 694 W/m² 14,3 °C 21,1 °C 6,4 km/h (2 Bft)
04.06.2019 10:26 21,1 °C 65 % 1010,8 hPa 0,0 mm 4,7 km/h (1 Bft) O-SO 115 ° 1 min 0,000 mm 4,6 UV-I 696 W/m² 14,3 °C 21,1 °C 6,4 km/h (2 Bft)
04.06.2019 10:27 21,1 °C 67 % 1010,8 hPa 0,0 mm 6,2 km/h (2 Bft) O-NO 74 ° 1 min 0,000 mm 4,6 UV-I 701 W/m² 14,7 °C 21,1 °C 9,7 km/h (2 Bft)
04.06.2019 10:28 21,0 °C 66 % 1010,7 hPa 0,0 mm 2,7 km/h (1 Bft) NO 50 ° 1 min 0,000 mm 4,7 UV-I 701 W/m² 14,4 °C 21,0 °C 4,8 km/h (1 Bft)
04.06.2019 10:29 21,0 °C 67 % 1010,7 hPa 0,0 mm 2,3 km/h (1 Bft) NO 42 ° 1 min 0,000 mm 4,7 UV-I 705 W/m² 14,6 °C 21,0 °C 4,8 km/h (1 Bft)
04.06.2019 10:30 21,2 °C 71 % 1010,7 hPa 0,0 mm 3,8 km/h (1 Bft) N 360 ° 1 min 0,000 mm 4,7 UV-I 707 W/m² 15,7 °C 21,2 °C 6,4 km/h (2 Bft)
04.06.2019 10:31 21,3 °C 67 % 1010,7 hPa 0,0 mm 4,1 km/h (1 Bft) NO 36 ° 1 min 0,000 mm 4,7 UV-I 708 W/m² 14,9 °C 21,3 °C 6,4 km/h (2 Bft)
04.06.2019 10:32 21,3 °C 64 % 1010,7 hPa 0,0 mm 6,1 km/h (2 Bft) NO 36 ° 1 min 0,000 mm 4,8 UV-I 710 W/m² 14,2 °C 21,3 °C 9,7 km/h (2 Bft)
04.06.2019 10:33 21,3 °C 64 % 1010,7 hPa 0,0 mm 5,0 km/h (1 Bft) N-NO 32 ° 1 min 0,000 mm 4,8 UV-I 714 W/m² 14,2 °C 21,3 °C 8,0 km/h (2 Bft)
04.06.2019 10:34 21,4 °C 65 % 1010,7 hPa 0,0 mm 3,3 km/h (1 Bft) NO 51 ° 1 min 0,000 mm 4,8 UV-I 717 W/m² 14,5 °C 21,4 °C 4,8 km/h (1 Bft)
04.06.2019 10:35 21,4 °C 65 % 1010,7 hPa 0,0 mm 2,3 km/h (1 Bft) O 82 ° 1 min 0,000 mm 4,8 UV-I 717 W/m² 14,5 °C 21,4 °C 6,4 km/h (2 Bft)
04.06.2019 10:36 21,3 °C 64 % 1010,7 hPa 0,0 mm 5,0 km/h (1 Bft) NO 45 ° 1 min 0,000 mm 4,8 UV-I 719 W/m² 14,2 °C 21,3 °C 8,0 km/h (2 Bft)
04.06.2019 10:37 21,4 °C 64 % 1010,7 hPa 0,0 mm 3,0 km/h (1 Bft) NO 52 ° 1 min 0,000 mm 4,9 UV-I 722 W/m² 14,3 °C 21,4 °C 6,4 km/h (2 Bft)
04.06.2019 10:38 21,4 °C 66 % 1010,7 hPa 0,0 mm 4,8 km/h (1 Bft) NO 50 ° 1 min 0,000 mm 4,9 UV-I 722 W/m² 14,8 °C 21,4 °C 6,4 km/h (2 Bft)
04.06.2019 10:39 21,4 °C 66 % 1010,7 hPa 0,0 mm 6,4 km/h (2 Bft) NO 41 ° 1 min 0,000 mm 4,9 UV-I 728 W/m² 14,8 °C 21,4 °C 8,0 km/h (2 Bft)
04.06.2019 10:40 21,4 °C 65 % 1010,7 hPa 0,0 mm 5,0 km/h (1 Bft) NO 49 ° 1 min 0,000 mm 4,9 UV-I 729 W/m² 14,5 °C 21,4 °C 6,4 km/h (2 Bft)
04.06.2019 10:41 21,4 °C 65 % 1010,7 hPa 0,0 mm 5,8 km/h (2 Bft) O-NO 64 ° 1 min 0,000 mm 5,0 UV-I 733 W/m² 14,5 °C 21,4 °C 9,7 km/h (2 Bft)
04.06.2019 10:42 21,5 °C 66 % 1010,7 hPa 0,0 mm 4,3 km/h (1 Bft) NO 46 ° 1 min 0,000 mm 5,0 UV-I 735 W/m² 14,9 °C 21,5 °C 9,7 km/h (2 Bft)
04.06.2019 10:43 21,6 °C 63 % 1010,7 hPa 0,0 mm 9,8 km/h (2 Bft) O 81 ° 1 min 0,000 mm 5,0 UV-I 737 W/m² 14,2 °C 21,6 °C 12,9 km/h (3 Bft)
04.06.2019 10:44 21,7 °C 61 % 1010,7 hPa 0,0 mm 8,5 km/h (2 Bft) NO 53 ° 1 min 0,000 mm 5,0 UV-I 738 W/m² 13,8 °C 21,7 °C 14,5 km/h (3 Bft)
04.06.2019 10:45 21,7 °C 62 % 1010,7 hPa 0,0 mm 6,4 km/h (2 Bft) NO 42 ° 1 min 0,000 mm 5,0 UV-I 744 W/m² 14,1 °C 21,7 °C 9,7 km/h (2 Bft)
04.06.2019 10:46 21,7 °C 62 % 1010,7 hPa 0,0 mm 5,4 km/h (1 Bft) NO 47 ° 1 min 0,000 mm 5,1 UV-I 744 W/m² 14,1 °C 21,7 °C 8,0 km/h (2 Bft)
04.06.2019 10:47 21,7 °C 63 % 1010,7 hPa 0,0 mm 6,0 km/h (2 Bft) NO 38 ° 1 min 0,000 mm 5,1 UV-I 745 W/m² 14,3 °C 21,7 °C 9,7 km/h (2 Bft)
04.06.2019 10:48 21,8 °C 67 % 1010,7 hPa 0,0 mm 5,0 km/h (1 Bft) O-NO 61 ° 1 min 0,000 mm 5,1 UV-I 747 W/m² 15,4 °C 21,8 °C 8,0 km/h (2 Bft)
04.06.2019 10:49 21,8 °C 63 % 1010,6 hPa 0,0 mm 7,6 km/h (2 Bft) NO 40 ° 1 min 0,000 mm 5,1 UV-I 747 W/m² 14,4 °C 21,8 °C 14,5 km/h (3 Bft)
04.06.2019 10:50 21,8 °C 62 % 1010,5 hPa 0,0 mm 6,0 km/h (2 Bft) O-NO 73 ° 1 min 0,000 mm 5,1 UV-I 751 W/m² 14,2 °C 21,8 °C 9,7 km/h (2 Bft)
04.06.2019 10:51 21,8 °C 62 % 1010,5 hPa 0,0 mm 5,3 km/h (1 Bft) N-NO 32 ° 1 min 0,000 mm 5,1 UV-I 754 W/m² 14,2 °C 21,8 °C 8,0 km/h (2 Bft)
04.06.2019 10:52 21,9 °C 62 % 1010,6 hPa 0,0 mm 4,7 km/h (1 Bft) NO 50 ° 1 min 0,000 mm 5,2 UV-I 754 W/m² 14,3 °C 21,9 °C 8,0 km/h (2 Bft)
04.06.2019 10:53 21,9 °C 63 % 1010,5 hPa 0,0 mm 2,4 km/h (1 Bft) NO 55 ° 1 min 0,000 mm 5,2 UV-I 756 W/m² 14,5 °C 21,9 °C 6,4 km/h (2 Bft)
04.06.2019 10:54 21,8 °C 66 % 1010,5 hPa 0,0 mm 3,4 km/h (1 Bft) NO 36 ° 1 min 0,000 mm 5,2 UV-I 756 W/m² 15,2 °C 21,8 °C 6,4 km/h (2 Bft)
04.06.2019 10:55 21,9 °C 63 % 1010,5 hPa 0,0 mm 6,4 km/h (2 Bft) O 80 ° 1 min 0,000 mm 5,2 UV-I 759 W/m² 14,5 °C 21,9 °C 11,3 km/h (2 Bft)
04.06.2019 10:56 21,8 °C 63 % 1010,5 hPa 0,0 mm 4,0 km/h (1 Bft) NO 44 ° 1 min 0,000 mm 5,2 UV-I 763 W/m² 14,4 °C 21,8 °C 8,0 km/h (2 Bft)
04.06.2019 10:57 21,8 °C 62 % 1010,6 hPa 0,0 mm 7,0 km/h (2 Bft) N-NO 27 ° 1 min 0,000 mm 5,3 UV-I 765 W/m² 14,2 °C 21,8 °C 9,7 km/h (2 Bft)
04.06.2019 10:58 21,8 °C 62 % 1010,5 hPa 0,0 mm 5,6 km/h (1 Bft) O 82 ° 1 min 0,000 mm 5,3 UV-I 766 W/m² 14,2 °C 21,8 °C 11,3 km/h (2 Bft)
04.06.2019 10:59 21,8 °C 66 % 1010,5 hPa 0,0 mm 6,7 km/h (2 Bft) O-SO 109 ° 1 min 0,000 mm 5,3 UV-I 768 W/m² 15,2 °C 21,8 °C 11,3 km/h (2 Bft)
04.06.2019 11:00 21,7 °C 63 % 1010,6 hPa 0,0 mm 5,7 km/h (1 Bft) NO 52 ° 1 min 0,000 mm 5,3 UV-I 770 W/m² 14,3 °C 21,7 °C 11,3 km/h (2 Bft)
04.06.2019 11:01 21,8 °C 64 % 1010,5 hPa 0,0 mm 4,6 km/h (1 Bft) O-NO 74 ° 1 min 0,432 mm 5,4 UV-I 772 W/m² 14,7 °C 21,8 °C 8,0 km/h (2 Bft)
04.06.2019 11:02 21,8 °C 64 % 1010,5 hPa 0,0 mm 5,2 km/h (1 Bft) NO 56 ° 1 min 0,000 mm 5,4 UV-I 775 W/m² 14,7 °C 21,8 °C 8,0 km/h (2 Bft)
04.06.2019 11:03 21,9 °C 65 % 1010,5 hPa 0,0 mm 6,8 km/h (2 Bft) NO 38 ° 1 min 0,000 mm 5,4 UV-I 777 W/m² 15,0 °C 21,9 °C 8,0 km/h (2 Bft)
04.06.2019 11:04 22,0 °C 65 % 1010,5 hPa 0,0 mm 4,4 km/h (1 Bft) NO 35 ° 1 min 0,000 mm 5,4 UV-I 777 W/m² 15,1 °C 22,0 °C 6,4 km/h (2 Bft)
04.06.2019 11:05 21,9 °C 63 % 1010,5 hPa 0,0 mm 2,5 km/h (1 Bft) NO 35 ° 1 min 0,000 mm 5,4 UV-I 777 W/m² 14,5 °C 21,9 °C 6,4 km/h (2 Bft)
04.06.2019 11:06 22,0 °C 64 % 1010,5 hPa 0,0 mm 4,6 km/h (1 Bft) O-SO 111 ° 1 min 0,000 mm 5,4 UV-I 779 W/m² 14,9 °C 22,0 °C 6,4 km/h (2 Bft)
04.06.2019 11:07 22,1 °C 63 % 1010,5 hPa 0,0 mm 6,1 km/h (2 Bft) NO 34 ° 1 min 0,000 mm 5,5 UV-I 780 W/m² 14,7 °C 22,1 °C 9,7 km/h (2 Bft)
04.06.2019 11:08 22,0 °C 62 % 1010,5 hPa 0,0 mm 7,4 km/h (2 Bft) O 80 ° 1 min 0,000 mm 5,5 UV-I 782 W/m² 14,4 °C 22,0 °C 11,3 km/h (2 Bft)
04.06.2019 11:09 22,0 °C 63 % 1010,5 hPa 0,0 mm 7,8 km/h (2 Bft) N-NO 31 ° 1 min 0,000 mm 5,5 UV-I 782 W/m² 14,6 °C 22,0 °C 12,9 km/h (3 Bft)
04.06.2019 11:10 22,0 °C 63 % 1010,4 hPa 0,0 mm 2,6 km/h (1 Bft) O-NO 58 ° 1 min 0,000 mm 5,5 UV-I 784 W/m² 14,6 °C 22,0 °C 4,8 km/h (1 Bft)
04.06.2019 11:11 22,1 °C 62 % 1010,5 hPa 0,0 mm 6,4 km/h (2 Bft) O-NO 77 ° 1 min 0,000 mm 5,5 UV-I 786 W/m² 14,5 °C 22,1 °C 9,7 km/h (2 Bft)
04.06.2019 11:12 22,1 °C 62 % 1010,5 hPa 0,0 mm 4,9 km/h (1 Bft) O-NO 67 ° 1 min 0,000 mm 5,5 UV-I 786 W/m² 14,5 °C 22,1 °C 8,0 km/h (2 Bft)
04.06.2019 11:13 22,1 °C 62 % 1010,5 hPa 0,0 mm 6,6 km/h (2 Bft) O-NO 58 ° 1 min 0,000 mm 5,6 UV-I 788 W/m² 14,5 °C 22,1 °C 14,5 km/h (3 Bft)
04.06.2019 11:14 22,2 °C 62 % 1010,5 hPa 0,0 mm 8,6 km/h (2 Bft) NO 53 ° 1 min 0,000 mm 5,6 UV-I 791 W/m² 14,6 °C 22,2 °C 11,3 km/h (2 Bft)
04.06.2019 11:15 22,1 °C 62 % 1010,5 hPa 0,0 mm 6,6 km/h (2 Bft) NO 53 ° 1 min 0,000 mm 5,6 UV-I 793 W/m² 14,5 °C 22,1 °C 9,7 km/h (2 Bft)
04.06.2019 11:16 22,2 °C 63 % 1010,5 hPa 0,0 mm 5,9 km/h (2 Bft) O-NO 74 ° 1 min 0,000 mm 5,6 UV-I 795 W/m² 14,8 °C 22,2 °C 8,0 km/h (2 Bft)
04.06.2019 11:17 22,2 °C 63 % 1010,5 hPa 0,0 mm 9,0 km/h (2 Bft) NO 43 ° 1 min 0,000 mm 5,6 UV-I 798 W/m² 14,8 °C 22,2 °C 12,9 km/h (3 Bft)
04.06.2019 11:18 22,2 °C 63 % 1010,4 hPa 0,0 mm 9,3 km/h (2 Bft) O-NO 57 ° 1 min 0,000 mm 5,7 UV-I 800 W/m² 14,8 °C 22,2 °C 14,5 km/h (3 Bft)
04.06.2019 11:19 22,2 °C 63 % 1010,4 hPa 0,0 mm 4,9 km/h (1 Bft) NO 46 ° 1 min 0,000 mm 5,7 UV-I 802 W/m² 14,8 °C 22,2 °C 6,4 km/h (2 Bft)
04.06.2019 11:20 22,3 °C 63 % 1010,5 hPa 0,0 mm 7,6 km/h (2 Bft) N-NO 33 ° 1 min 0,000 mm 5,7 UV-I 805 W/m² 14,9 °C 22,3 °C 11,3 km/h (2 Bft)
04.06.2019 11:21 22,3 °C 61 % 1010,4 hPa 0,0 mm 7,6 km/h (2 Bft) NO 44 ° 1 min 0,000 mm 5,8 UV-I 807 W/m² 14,4 °C 22,3 °C 12,9 km/h (3 Bft)
04.06.2019 11:22 22,3 °C 58 % 1010,4 hPa 0,0 mm 6,1 km/h (2 Bft) S-SO 165 ° 1 min 0,000 mm 5,8 UV-I 810 W/m² 13,6 °C 22,3 °C 11,3 km/h (2 Bft)
04.06.2019 11:23 22,3 °C 58 % 1010,5 hPa 0,0 mm 4,4 km/h (1 Bft) NO 51 ° 1 min 0,000 mm 5,8 UV-I 810 W/m² 13,6 °C 22,3 °C 9,7 km/h (2 Bft)
04.06.2019 11:24 22,4 °C 61 % 1010,4 hPa 0,0 mm 7,0 km/h (2 Bft) O-NO 65 ° 1 min 0,000 mm 5,8 UV-I 812 W/m² 14,5 °C 22,4 °C 9,7 km/h (2 Bft)
04.06.2019 11:25 22,4 °C 58 % 1010,4 hPa 0,0 mm 7,0 km/h (2 Bft) O-NO 58 ° 1 min 0,000 mm 5,8 UV-I 814 W/m² 13,7 °C 22,4 °C 9,7 km/h (2 Bft)
04.06.2019 11:26 22,3 °C 57 % 1010,4 hPa 0,0 mm 8,0 km/h (2 Bft) O-NO 67 ° 1 min 0,000 mm 5,8 UV-I 816 W/m² 13,4 °C 22,3 °C 14,5 km/h (3 Bft)
04.06.2019 11:27 22,3 °C 58 % 1010,4 hPa 0,0 mm 10,6 km/h (2 Bft) O-NO 69 ° 1 min 0,000 mm 5,9 UV-I 817 W/m² 13,6 °C 22,3 °C 14,5 km/h (3 Bft)
04.06.2019 11:28 22,3 °C 58 % 1010,4 hPa 0,0 mm 5,4 km/h (1 Bft) O 84 ° 1 min 0,000 mm 5,9 UV-I 817 W/m² 13,6 °C 22,3 °C 11,3 km/h (2 Bft)
04.06.2019 11:29 22,3 °C 59 % 1010,5 hPa 0,0 mm 4,5 km/h (1 Bft) O-NO 62 ° 1 min 0,000 mm 5,9 UV-I 819 W/m² 13,9 °C 22,3 °C 8,0 km/h (2 Bft)
04.06.2019 11:30 22,4 °C 60 % 1010,4 hPa 0,0 mm 6,9 km/h (2 Bft) O-NO 74 ° 1 min 0,000 mm 5,9 UV-I 821 W/m² 14,2 °C 22,4 °C 14,5 km/h (3 Bft)
04.06.2019 11:31 22,4 °C 59 % 1010,4 hPa 0,0 mm 7,0 km/h (2 Bft) O 99 ° 1 min 0,000 mm 5,9 UV-I 823 W/m² 14,0 °C 22,4 °C 14,5 km/h (3 Bft)
04.06.2019 11:32 22,4 °C 60 % 1010,4 hPa 0,0 mm 7,6 km/h (2 Bft) NO 55 ° 1 min 0,000 mm 5,9 UV-I 823 W/m² 14,2 °C 22,4 °C 12,9 km/h (3 Bft)
04.06.2019 11:33 22,4 °C 58 % 1010,4 hPa 0,0 mm 7,0 km/h (2 Bft) O-NO 69 ° 1 min 0,000 mm 6,0 UV-I 824 W/m² 13,7 °C 22,4 °C 9,7 km/h (2 Bft)
04.06.2019 11:34 22,4 °C 58 % 1010,4 hPa 0,0 mm 7,1 km/h (2 Bft) N-NO 17 ° 1 min 0,000 mm 6,0 UV-I 826 W/m² 13,7 °C 22,4 °C 12,9 km/h (3 Bft)
04.06.2019 11:35 22,4 °C 59 % 1010,4 hPa 0,0 mm 9,7 km/h (2 Bft) NO 38 ° 1 min 0,000 mm 6,0 UV-I 828 W/m² 14,0 °C 22,4 °C 16,1 km/h (3 Bft)
04.06.2019 11:36 22,6 °C 57 % 1010,4 hPa 0,0 mm 7,4 km/h (2 Bft) NO 55 ° 1 min 0,000 mm 6,0 UV-I 830 W/m² 13,6 °C 22,6 °C 9,7 km/h (2 Bft)
04.06.2019 11:37 22,6 °C 58 % 1010,4 hPa 0,0 mm 8,1 km/h (2 Bft) SO 140 ° 1 min 0,000 mm 6,0 UV-I 830 W/m² 13,9 °C 22,6 °C 12,9 km/h (3 Bft)
04.06.2019 11:38 22,6 °C 58 % 1010,5 hPa 0,0 mm 5,6 km/h (1 Bft) SW 219 ° 1 min 0,000 mm 6,0 UV-I 831 W/m² 13,9 °C 22,6 °C 9,7 km/h (2 Bft)
04.06.2019 11:39 22,5 °C 57 % 1010,4 hPa 0,0 mm 3,4 km/h (1 Bft) O 91 ° 1 min 0,000 mm 6,0 UV-I 833 W/m² 13,5 °C 22,5 °C 9,7 km/h (2 Bft)
04.06.2019 11:40 22,5 °C 58 % 1010,4 hPa 0,0 mm 2,1 km/h (1 Bft) NO 52 ° 1 min 0,000 mm 6,1 UV-I 835 W/m² 13,8 °C 22,5 °C 4,8 km/h (1 Bft)
04.06.2019 11:41 22,6 °C 59 % 1010,4 hPa 0,0 mm 8,1 km/h (2 Bft) O-NO 72 ° 1 min 0,000 mm 6,1 UV-I 837 W/m² 14,2 °C 22,6 °C 14,5 km/h (3 Bft)
04.06.2019 11:42 22,7 °C 60 % 1010,4 hPa 0,0 mm 8,0 km/h (2 Bft) NO 54 ° 1 min 0,000 mm 6,1 UV-I 838 W/m² 14,5 °C 22,7 °C 12,9 km/h (3 Bft)
04.06.2019 11:43 22,8 °C 58 % 1010,4 hPa 0,0 mm 9,1 km/h (2 Bft) O-NO 69 ° 1 min 0,000 mm 6,1 UV-I 840 W/m² 14,1 °C 22,8 °C 12,9 km/h (3 Bft)
04.06.2019 11:44 22,7 °C 58 % 1010,4 hPa 0,0 mm 9,3 km/h (2 Bft) O-NO 74 ° 1 min 0,000 mm 6,1 UV-I 838 W/m² 14,0 °C 22,7 °C 12,9 km/h (3 Bft)
04.06.2019 11:45 22,7 °C 58 % 1010,4 hPa 0,0 mm 7,4 km/h (2 Bft) O 94 ° 1 min 0,000 mm 6,1 UV-I 840 W/m² 14,0 °C 22,7 °C 12,9 km/h (3 Bft)
04.06.2019 11:46 22,6 °C 59 % 1010,3 hPa 0,0 mm 7,7 km/h (2 Bft) N-NO 32 ° 1 min 0,000 mm 6,2 UV-I 842 W/m² 14,2 °C 22,6 °C 11,3 km/h (2 Bft)
04.06.2019 11:47 22,6 °C 58 % 1010,3 hPa 0,0 mm 6,6 km/h (2 Bft) NO 53 ° 1 min 0,000 mm 6,2 UV-I 842 W/m² 13,9 °C 22,6 °C 8,0 km/h (2 Bft)
04.06.2019 11:48 22,6 °C 61 % 1010,3 hPa 0,0 mm 5,2 km/h (1 Bft) O-NO 65 ° 1 min 0,000 mm 6,2 UV-I 844 W/m² 14,7 °C 22,6 °C 9,7 km/h (2 Bft)
04.06.2019 11:49 22,7 °C 60 % 1010,2 hPa 0,0 mm 3,6 km/h (1 Bft) NO 53 ° 1 min 0,000 mm 6,2 UV-I 846 W/m² 14,5 °C 22,7 °C 8,0 km/h (2 Bft)
04.06.2019 11:50 22,7 °C 59 % 1010,3 hPa 0,0 mm 4,7 km/h (1 Bft) O-NO 76 ° 1 min 0,000 mm 6,2 UV-I 846 W/m² 14,3 °C 22,7 °C 9,7 km/h (2 Bft)
04.06.2019 11:51 22,7 °C 59 % 1010,3 hPa 0,0 mm 5,4 km/h (1 Bft) N-NO 30 ° 1 min 0,000 mm 6,2 UV-I 847 W/m² 14,3 °C 22,7 °C 9,7 km/h (2 Bft)
04.06.2019 11:52 22,7 °C 62 % 1010,3 hPa 0,0 mm 7,2 km/h (2 Bft) O-NO 60 ° 1 min 0,000 mm 6,3 UV-I 849 W/m² 15,0 °C 22,7 °C 12,9 km/h (3 Bft)
04.06.2019 11:53 22,8 °C 61 % 1010,2 hPa 0,0 mm 5,6 km/h (1 Bft) O 86 ° 1 min 0,000 mm 6,3 UV-I 851 W/m² 14,9 °C 22,8 °C 8,0 km/h (2 Bft)
04.06.2019 11:54 22,8 °C 60 % 1010,2 hPa 0,0 mm 7,0 km/h (2 Bft) O-NO 78 ° 1 min 0,000 mm 6,3 UV-I 853 W/m² 14,6 °C 22,8 °C 11,3 km/h (2 Bft)
04.06.2019 11:55 22,8 °C 59 % 1010,2 hPa 0,0 mm 6,6 km/h (2 Bft) O-NO 67 ° 1 min 0,000 mm 6,3 UV-I 854 W/m² 14,4 °C 22,8 °C 12,9 km/h (3 Bft)
04.06.2019 11:56 22,8 °C 60 % 1010,2 hPa 0,0 mm 11,0 km/h (2 Bft) O-NO 57 ° 1 min 0,000 mm 6,3 UV-I 856 W/m² 14,6 °C 22,8 °C 16,1 km/h (3 Bft)
04.06.2019 11:57 22,9 °C 56 % 1010,2 hPa 0,0 mm 4,7 km/h (1 Bft) O 93 ° 1 min 0,000 mm 6,3 UV-I 858 W/m² 13,6 °C 22,9 °C 9,7 km/h (2 Bft)
04.06.2019 11:58 23,0 °C 57 % 1010,3 hPa 0,0 mm 8,6 km/h (2 Bft) O-SO 105 ° 1 min 0,000 mm 6,3 UV-I 858 W/m² 14,0 °C 23,0 °C 14,5 km/h (3 Bft)
04.06.2019 11:59 23,1 °C 54 % 1010,2 hPa 0,0 mm 9,4 km/h (2 Bft) O 80 ° 1 min 0,000 mm 6,3 UV-I 858 W/m² 13,3 °C 23,1 °C 14,5 km/h (3 Bft)
04.06.2019 12:00 23,0 °C 56 % 1010,2 hPa 0,0 mm 6,5 km/h (2 Bft) O-NO 77 ° 1 min 0,000 mm 6,4 UV-I 858 W/m² 13,7 °C 23,0 °C 11,3 km/h (2 Bft)
04.06.2019 12:01 23,0 °C 55 % 1010,2 hPa 0,0 mm 5,1 km/h (1 Bft) O 84 ° 1 min 0,533 mm 6,4 UV-I 860 W/m² 13,5 °C 23,0 °C 8,0 km/h (2 Bft)
04.06.2019 12:02 23,0 °C 55 % 1010,3 hPa 0,0 mm 7,4 km/h (2 Bft) O 96 ° 1 min 0,000 mm 6,4 UV-I 861 W/m² 13,5 °C 23,0 °C 12,9 km/h (3 Bft)
04.06.2019 12:03 23,0 °C 55 % 1010,2 hPa 0,0 mm 3,8 km/h (1 Bft) O-NO 59 ° 1 min 0,000 mm 6,4 UV-I 863 W/m² 13,5 °C 23,0 °C 6,4 km/h (2 Bft)
04.06.2019 12:04 23,0 °C 57 % 1010,2 hPa 0,0 mm 6,0 km/h (2 Bft) N 5 ° 1 min 0,000 mm 6,4 UV-I 863 W/m² 14,0 °C 23,0 °C 9,7 km/h (2 Bft)
04.06.2019 12:05 23,2 °C 58 % 1010,1 hPa 0,0 mm 8,2 km/h (2 Bft) N-NO 26 ° 1 min 0,000 mm 6,4 UV-I 865 W/m² 14,5 °C 23,2 °C 11,3 km/h (2 Bft)
04.06.2019 12:06 23,2 °C 56 % 1010,2 hPa 0,0 mm 10,8 km/h (2 Bft) O-NO 58 ° 1 min 0,000 mm 6,4 UV-I 865 W/m² 13,9 °C 23,2 °C 16,1 km/h (3 Bft)
04.06.2019 12:07 23,2 °C 58 % 1010,1 hPa 0,0 mm 6,7 km/h (2 Bft) O-NO 58 ° 1 min 0,000 mm 6,4 UV-I 868 W/m² 14,5 °C 23,2 °C 11,3 km/h (2 Bft)
04.06.2019 12:08 23,2 °C 59 % 1010,1 hPa 0,0 mm 9,1 km/h (2 Bft) O-NO 69 ° 1 min 0,000 mm 6,5 UV-I 870 W/m² 14,7 °C 23,2 °C 16,1 km/h (3 Bft)
04.06.2019 12:09 23,2 °C 57 % 1010,2 hPa 0,0 mm 10,2 km/h (2 Bft) NO 49 ° 1 min 0,000 mm 6,5 UV-I 872 W/m² 14,2 °C 23,2 °C 14,5 km/h (3 Bft)
04.06.2019 12:10 23,1 °C 57 % 1010,1 hPa 0,0 mm 4,7 km/h (1 Bft) NO 41 ° 1 min 0,000 mm 6,5 UV-I 874 W/m² 14,1 °C 23,1 °C 8,0 km/h (2 Bft)
04.06.2019 12:11 23,2 °C 59 % 1010,1 hPa 0,0 mm 5,0 km/h (1 Bft) NO 48 ° 1 min 0,000 mm 6,5 UV-I 874 W/m² 14,7 °C 23,2 °C 12,9 km/h (3 Bft)
04.06.2019 12:12 23,2 °C 61 % 1010,1 hPa 0,0 mm 5,3 km/h (1 Bft) N-NO 32 ° 1 min 0,000 mm 6,5 UV-I 877 W/m² 15,3 °C 23,2 °C 8,0 km/h (2 Bft)
04.06.2019 12:13 23,2 °C 57 % 1010,1 hPa 0,0 mm 11,8 km/h (2 Bft) N-NO 28 ° 1 min 0,000 mm 6,5 UV-I 881 W/m² 14,2 °C 23,2 °C 16,1 km/h (3 Bft)
04.06.2019 12:14 23,3 °C 57 % 1010,1 hPa 0,0 mm 9,9 km/h (2 Bft) O-NO 60 ° 1 min 0,000 mm 6,6 UV-I 882 W/m² 14,3 °C 23,3 °C 12,9 km/h (3 Bft)
04.06.2019 12:15 23,3 °C 57 % 1010,1 hPa 0,0 mm 7,0 km/h (2 Bft) O-NO 61 ° 1 min 0,000 mm 6,6 UV-I 884 W/m² 14,3 °C 23,3 °C 9,7 km/h (2 Bft)
04.06.2019 12:16 23,4 °C 56 % 1010,1 hPa 0,0 mm 5,8 km/h (2 Bft) N-NO 13 ° 1 min 0,000 mm 6,6 UV-I 884 W/m² 14,1 °C 23,4 °C 9,7 km/h (2 Bft)
04.06.2019 12:17 23,5 °C 56 % 1010,1 hPa 0,0 mm 10,1 km/h (2 Bft) O-NO 57 ° 1 min 0,000 mm 6,6 UV-I 886 W/m² 14,2 °C 23,5 °C 16,1 km/h (3 Bft)
04.06.2019 12:18 23,6 °C 57 % 1010,0 hPa 0,0 mm 10,8 km/h (2 Bft) O 92 ° 1 min 0,000 mm 6,6 UV-I 889 W/m² 14,6 °C 23,6 °C 16,1 km/h (3 Bft)
04.06.2019 12:19 23,6 °C 56 % 1010,1 hPa 0,0 mm 6,2 km/h (2 Bft) NO 36 ° 1 min 0,000 mm 6,6 UV-I 891 W/m² 14,3 °C 23,6 °C 8,0 km/h (2 Bft)
04.06.2019 12:20 23,4 °C 56 % 1010,1 hPa 0,0 mm 4,8 km/h (1 Bft) O-NO 57 ° 1 min 0,000 mm 6,6 UV-I 891 W/m² 14,1 °C 23,4 °C 9,7 km/h (2 Bft)
04.06.2019 12:21 23,5 °C 57 % 1010,0 hPa 0,0 mm 1,8 km/h (1 Bft) O-NO 76 ° 1 min 0,000 mm 6,7 UV-I 893 W/m² 14,5 °C 23,5 °C 4,8 km/h (1 Bft)
04.06.2019 12:22 23,5 °C 57 % 1010,0 hPa 0,0 mm 2,3 km/h (1 Bft) NO 49 ° 1 min 0,000 mm 6,7 UV-I 895 W/m² 14,5 °C 23,5 °C 6,4 km/h (2 Bft)
04.06.2019 12:23 23,6 °C 59 % 1010,0 hPa 0,0 mm 8,4 km/h (2 Bft) N-NO 25 ° 1 min 0,000 mm 6,7 UV-I 896 W/m² 15,1 °C 23,6 °C 14,5 km/h (3 Bft)
04.06.2019 12:24 23,6 °C 60 % 1010,0 hPa 0,0 mm 7,2 km/h (2 Bft) N 5 ° 1 min 0,000 mm 6,7 UV-I 898 W/m² 15,4 °C 23,6 °C 12,9 km/h (3 Bft)
04.06.2019 12:25 23,7 °C 59 % 1010,0 hPa 0,0 mm 3,9 km/h (1 Bft) NO 51 ° 1 min 0,000 mm 6,7 UV-I 900 W/m² 15,2 °C 23,7 °C 8,0 km/h (2 Bft)
04.06.2019 12:26 23,7 °C 58 % 1010,0 hPa 0,0 mm 6,8 km/h (2 Bft) NO 51 ° 1 min 0,000 mm 6,7 UV-I 902 W/m² 14,9 °C 23,7 °C 9,7 km/h (2 Bft)
04.06.2019 12:27 23,7 °C 57 % 1010,0 hPa 0,0 mm 3,4 km/h (1 Bft) O-SO 115 ° 1 min 0,000 mm 6,7 UV-I 902 W/m² 14,7 °C 23,7 °C 6,4 km/h (2 Bft)
04.06.2019 12:28 23,7 °C 61 % 1010,0 hPa 0,0 mm 3,4 km/h (1 Bft) NO 49 ° 1 min 0,000 mm 6,8 UV-I 902 W/m² 15,7 °C 23,7 °C 8,0 km/h (2 Bft)
04.06.2019 12:29 23,7 °C 57 % 1010,0 hPa 0,0 mm 2,8 km/h (1 Bft) NO 37 ° 1 min 0,000 mm 6,8 UV-I 904 W/m² 14,7 °C 23,7 °C 8,0 km/h (2 Bft)
04.06.2019 12:30 23,8 °C 58 % 1010,0 hPa 0,0 mm 5,2 km/h (1 Bft) N-NO 24 ° 1 min 0,000 mm 6,8 UV-I 904 W/m² 15,0 °C 23,8 °C 8,0 km/h (2 Bft)
04.06.2019 12:31 23,8 °C 60 % 1009,9 hPa 0,0 mm 7,2 km/h (2 Bft) N-NO 12 ° 1 min 0,000 mm 6,8 UV-I 902 W/m² 15,6 °C 23,8 °C 12,9 km/h (3 Bft)
04.06.2019 12:32 23,9 °C 58 % 1009,9 hPa 0,0 mm 2,7 km/h (1 Bft) O-NO 69 ° 1 min 0,000 mm 6,8 UV-I 902 W/m² 15,1 °C 23,9 °C 6,4 km/h (2 Bft)
04.06.2019 12:33 23,9 °C 61 % 1009,9 hPa 0,0 mm 3,8 km/h (1 Bft) O-SO 103 ° 1 min 0,000 mm 6,8 UV-I 902 W/m² 15,9 °C 23,9 °C 9,7 km/h (2 Bft)
04.06.2019 12:34 23,9 °C 60 % 1009,9 hPa 0,0 mm 9,2 km/h (2 Bft) O-NO 59 ° 1 min 0,000 mm 6,8 UV-I 900 W/m² 15,7 °C 23,9 °C 14,5 km/h (3 Bft)
04.06.2019 12:35 24,0 °C 61 % 1009,9 hPa 0,0 mm 4,6 km/h (1 Bft) N-NO 31 ° 1 min 0,000 mm 6,8 UV-I 902 W/m² 16,0 °C 24,0 °C 8,0 km/h (2 Bft)
04.06.2019 12:36 24,1 °C 56 % 1009,9 hPa 0,0 mm 5,8 km/h (2 Bft) N-NW 346 ° 1 min 0,000 mm 6,8 UV-I 900 W/m² 14,8 °C 24,1 °C 8,0 km/h (2 Bft)
04.06.2019 12:37 23,9 °C 56 % 1009,8 hPa 0,0 mm 4,9 km/h (1 Bft) N-NO 20 ° 1 min 0,000 mm 6,8 UV-I 902 W/m² 14,6 °C 23,9 °C 9,7 km/h (2 Bft)
04.06.2019 12:38 24,1 °C 59 % 1009,8 hPa 0,0 mm 6,5 km/h (2 Bft) N-NO 23 ° 1 min 0,000 mm 6,8 UV-I 900 W/m² 15,6 °C 24,1 °C 9,7 km/h (2 Bft)
04.06.2019 12:39 24,2 °C 59 % 1009,8 hPa 0,0 mm 8,9 km/h (2 Bft) O-NO 69 ° 1 min 0,000 mm 6,9 UV-I 904 W/m² 15,7 °C 24,2 °C 14,5 km/h (3 Bft)
04.06.2019 12:40 24,1 °C 55 % 1009,8 hPa 0,0 mm 8,8 km/h (2 Bft) O 92 ° 1 min 0,000 mm 6,8 UV-I 904 W/m² 14,5 °C 24,1 °C 16,1 km/h (3 Bft)
04.06.2019 12:41 24,1 °C 55 % 1009,8 hPa 0,0 mm 8,2 km/h (2 Bft) O-NO 71 ° 1 min 0,000 mm 6,8 UV-I 902 W/m² 14,5 °C 24,1 °C 14,5 km/h (3 Bft)
04.06.2019 12:42 24,1 °C 56 % 1009,8 hPa 0,0 mm 8,2 km/h (2 Bft) N-NO 27 ° 1 min 0,000 mm 6,8 UV-I 902 W/m² 14,8 °C 24,1 °C 14,5 km/h (3 Bft)
04.06.2019 12:43 24,1 °C 54 % 1009,8 hPa 0,0 mm 1,9 km/h (1 Bft) N 355 ° 1 min 0,000 mm 6,8 UV-I 902 W/m² 14,2 °C 24,1 °C 6,4 km/h (2 Bft)
04.06.2019 12:44 24,1 °C 56 % 1009,8 hPa 0,0 mm 8,0 km/h (2 Bft) O-NO 78 ° 1 min 0,000 mm 6,8 UV-I 902 W/m² 14,8 °C 24,1 °C 16,1 km/h (3 Bft)
04.06.2019 12:45 24,2 °C 55 % 1009,7 hPa 0,0 mm 5,9 km/h (2 Bft) S-SO 147 ° 1 min 0,000 mm 6,8 UV-I 900 W/m² 14,6 °C 24,2 °C 11,3 km/h (2 Bft)
04.06.2019 12:46 24,2 °C 56 % 1009,7 hPa 0,0 mm 5,4 km/h (1 Bft) NO 36 ° 1 min 0,000 mm 6,8 UV-I 900 W/m² 14,9 °C 24,2 °C 14,5 km/h (3 Bft)
04.06.2019 12:47 24,2 °C 54 % 1009,7 hPa 0,0 mm 8,9 km/h (2 Bft) NO 34 ° 1 min 0,000 mm 6,8 UV-I 900 W/m² 14,3 °C 24,2 °C 14,5 km/h (3 Bft)
04.06.2019 12:48 24,1 °C 52 % 1009,7 hPa 0,0 mm 11,5 km/h (2 Bft) NO 54 ° 1 min 0,000 mm 6,8 UV-I 900 W/m² 13,6 °C 24,1 °C 16,1 km/h (3 Bft)
04.06.2019 12:49 23,9 °C 52 % 1009,7 hPa 0,0 mm 5,9 km/h (2 Bft) N 9 ° 1 min 0,000 mm 6,8 UV-I 900 W/m² 13,4 °C 23,9 °C 11,3 km/h (2 Bft)
04.06.2019 12:50 23,9 °C 55 % 1009,7 hPa 0,0 mm 7,0 km/h (2 Bft) O-NO 65 ° 1 min 0,000 mm 6,8 UV-I 900 W/m² 14,3 °C 23,9 °C 11,3 km/h (2 Bft)
04.06.2019 12:51 24,0 °C 55 % 1009,7 hPa 0,0 mm 9,1 km/h (2 Bft) NO 38 ° 1 min 0,000 mm 6,8 UV-I 896 W/m² 14,4 °C 24,0 °C 12,9 km/h (3 Bft)
04.06.2019 12:52 24,1 °C 54 % 1009,7 hPa 0,0 mm 11,1 km/h (2 Bft) N-NW 340 ° 1 min 0,000 mm 6,8 UV-I 898 W/m² 14,2 °C 24,1 °C 17,7 km/h (3 Bft)
04.06.2019 12:53 24,1 °C 53 % 1009,7 hPa 0,0 mm 6,5 km/h (2 Bft) O 84 ° 1 min 0,000 mm 6,8 UV-I 898 W/m² 13,9 °C 24,1 °C 9,7 km/h (2 Bft)
04.06.2019 12:54 24,1 °C 51 % 1009,6 hPa 0,0 mm 7,7 km/h (2 Bft) O-NO 68 ° 1 min 0,000 mm 6,8 UV-I 898 W/m² 13,3 °C 24,1 °C 9,7 km/h (2 Bft)
04.06.2019 12:55 24,2 °C 52 % 1009,6 hPa 0,0 mm 1,5 km/h (1 Bft) NW 320 ° 1 min 0,000 mm 6,8 UV-I 896 W/m² 13,7 °C 24,2 °C 4,8 km/h (1 Bft)
04.06.2019 12:56 24,2 °C 51 % 1009,5 hPa 0,0 mm 7,3 km/h (2 Bft) NO 55 ° 1 min 0,000 mm 6,8 UV-I 895 W/m² 13,4 °C 24,2 °C 12,9 km/h (3 Bft)
04.06.2019 12:57 24,2 °C 51 % 1009,5 hPa 0,0 mm 9,2 km/h (2 Bft) O-NO 67 ° 1 min 0,000 mm 6,8 UV-I 893 W/m² 13,4 °C 24,2 °C 12,9 km/h (3 Bft)
04.06.2019 12:58 24,2 °C 51 % 1009,5 hPa 0,0 mm 4,1 km/h (1 Bft) NO 49 ° 1 min 0,000 mm 6,8 UV-I 895 W/m² 13,4 °C 24,2 °C 6,4 km/h (2 Bft)
04.06.2019 12:59 24,2 °C 51 % 1009,5 hPa 0,0 mm 8,3 km/h (2 Bft) O 85 ° 1 min 0,000 mm 6,8 UV-I 895 W/m² 13,4 °C 24,2 °C 14,5 km/h (3 Bft)
04.06.2019 13:00 24,2 °C 53 % 1009,5 hPa 0,0 mm 7,1 km/h (2 Bft) N-NO 12 ° 1 min 0,584 mm 6,8 UV-I 896 W/m² 14,0 °C 24,2 °C 12,9 km/h (3 Bft)
04.06.2019 13:01 24,2 °C 51 % 1009,5 hPa 0,0 mm 5,3 km/h (1 Bft) O-SO 107 ° 1 min 0,000 mm 6,8 UV-I 895 W/m² 13,4 °C 24,2 °C 11,3 km/h (2 Bft)
04.06.2019 13:02 24,2 °C 52 % 1009,5 hPa 0,0 mm 1,8 km/h (1 Bft) W-NW 292 ° 1 min 0,000 mm 6,8 UV-I 895 W/m² 13,7 °C 24,2 °C 6,4 km/h (2 Bft)
04.06.2019 13:03 24,2 °C 54 % 1009,5 hPa 0,0 mm 5,6 km/h (1 Bft) NO 42 ° 1 min 0,000 mm 6,8 UV-I 896 W/m² 14,3 °C 24,2 °C 11,3 km/h (2 Bft)
04.06.2019 13:04 24,4 °C 54 % 1009,5 hPa 0,0 mm 9,3 km/h (2 Bft) N-NO 26 ° 1 min 0,000 mm 6,8 UV-I 895 W/m² 14,5 °C 24,4 °C 14,5 km/h (3 Bft)
04.06.2019 13:05 24,4 °C 53 % 1009,5 hPa 0,0 mm 5,4 km/h (1 Bft) NO 35 ° 1 min 0,000 mm 6,8 UV-I 895 W/m² 14,2 °C 24,4 °C 9,7 km/h (2 Bft)
04.06.2019 13:06 24,5 °C 55 % 1009,4 hPa 0,0 mm 4,6 km/h (1 Bft) N-NO 25 ° 1 min 0,000 mm 6,8 UV-I 893 W/m² 14,9 °C 24,5 °C 14,5 km/h (3 Bft)
04.06.2019 13:07 24,4 °C 52 % 1009,4 hPa 0,0 mm 10,0 km/h (2 Bft) NO 44 ° 1 min 0,000 mm 6,8 UV-I 893 W/m² 13,9 °C 24,4 °C 19,3 km/h (3 Bft)
04.06.2019 13:08 24,4 °C 50 % 1009,4 hPa 0,0 mm 10,1 km/h (2 Bft) N 360 ° 1 min 0,000 mm 6,8 UV-I 896 W/m² 13,3 °C 24,4 °C 16,1 km/h (3 Bft)
04.06.2019 13:09 24,3 °C 53 % 1009,4 hPa 0,0 mm 4,4 km/h (1 Bft) NO 50 ° 1 min 0,000 mm 6,8 UV-I 896 W/m² 14,1 °C 24,3 °C 9,7 km/h (2 Bft)
04.06.2019 13:10 24,3 °C 53 % 1009,4 hPa 0,0 mm 2,9 km/h (1 Bft) N-NO 28 ° 1 min 0,000 mm 6,8 UV-I 893 W/m² 14,1 °C 24,3 °C 4,8 km/h (1 Bft)
04.06.2019 13:11 24,4 °C 56 % 1009,4 hPa 0,0 mm 1,9 km/h (1 Bft) N-NO 21 ° 1 min 0,000 mm 6,8 UV-I 893 W/m² 15,0 °C 24,4 °C 4,8 km/h (1 Bft)
04.06.2019 13:12 24,5 °C 56 % 1009,3 hPa 0,0 mm 6,6 km/h (2 Bft) NO 42 ° 1 min 0,000 mm 6,8 UV-I 895 W/m² 15,1 °C 24,5 °C 14,5 km/h (3 Bft)
04.06.2019 13:13 24,6 °C 52 % 1009,4 hPa 0,0 mm 6,7 km/h (2 Bft) O 80 ° 1 min 0,000 mm 6,8 UV-I 896 W/m² 14,1 °C 24,6 °C 8,0 km/h (2 Bft)
04.06.2019 13:14 24,6 °C 52 % 1009,3 hPa 0,0 mm 9,1 km/h (2 Bft) O-NO 71 ° 1 min 0,000 mm 6,8 UV-I 896 W/m² 14,1 °C 24,6 °C 12,9 km/h (3 Bft)
04.06.2019 13:15 24,4 °C 55 % 1009,3 hPa 0,0 mm 5,8 km/h (2 Bft) O-NO 59 ° 1 min 0,000 mm 6,8 UV-I 896 W/m² 14,8 °C 24,4 °C 9,7 km/h (2 Bft)
04.06.2019 13:16 24,4 °C 52 % 1009,3 hPa 0,0 mm 5,6 km/h (1 Bft) N 355 ° 1 min 0,000 mm 6,8 UV-I 896 W/m² 13,9 °C 24,4 °C 9,7 km/h (2 Bft)
04.06.2019 13:17 24,4 °C 53 % 1009,3 hPa 0,0 mm 6,9 km/h (2 Bft) O-NO 61 ° 1 min 0,000 mm 6,8 UV-I 896 W/m² 14,2 °C 24,4 °C 9,7 km/h (2 Bft)
04.06.2019 13:18 24,4 °C 52 % 1009,3 hPa 0,0 mm 4,7 km/h (1 Bft) O 99 ° 1 min 0,000 mm 6,8 UV-I 896 W/m² 13,9 °C 24,4 °C 9,7 km/h (2 Bft)
04.06.2019 13:19 24,4 °C 53 % 1009,3 hPa 0,0 mm 4,6 km/h (1 Bft) N-NW 340 ° 1 min 0,000 mm 6,8 UV-I 895 W/m² 14,2 °C 24,4 °C 9,7 km/h (2 Bft)
04.06.2019 13:20 24,5 °C 52 % 1009,2 hPa 0,0 mm 7,7 km/h (2 Bft) O-NO 59 ° 1 min 0,000 mm 6,8 UV-I 896 W/m² 14,0 °C 24,5 °C 14,5 km/h (3 Bft)
04.06.2019 13:21 24,4 °C 52 % 1009,3 hPa 0,0 mm 4,6 km/h (1 Bft) O-NO 72 ° 1 min 0,000 mm 6,8 UV-I 896 W/m² 13,9 °C 24,4 °C 8,0 km/h (2 Bft)
04.06.2019 13:22 24,5 °C 54 % 1009,2 hPa 0,0 mm 6,1 km/h (2 Bft) O-NO 65 ° 1 min 0,000 mm 6,8 UV-I 896 W/m² 14,6 °C 24,5 °C 11,3 km/h (2 Bft)
04.06.2019 13:23 24,5 °C 51 % 1009,2 hPa 0,0 mm 6,8 km/h (2 Bft) N 9 ° 1 min 0,000 mm 6,8 UV-I 896 W/m² 13,7 °C 24,5 °C 16,1 km/h (3 Bft)
04.06.2019 13:24 24,6 °C 51 % 1009,2 hPa 0,0 mm 6,3 km/h (2 Bft) N 11 ° 1 min 0,000 mm 6,9 UV-I 896 W/m² 13,8 °C 24,6 °C 12,9 km/h (3 Bft)
04.06.2019 13:25 24,6 °C 53 % 1009,2 hPa 0,0 mm 6,9 km/h (2 Bft) N-NO 30 ° 1 min 0,000 mm 6,9 UV-I 898 W/m² 14,4 °C 24,6 °C 11,3 km/h (2 Bft)
04.06.2019 13:26 24,7 °C 51 % 1009,1 hPa 0,0 mm 8,5 km/h (2 Bft) O-NO 76 ° 1 min 0,000 mm 6,9 UV-I 896 W/m² 13,9 °C 24,7 °C 16,1 km/h (3 Bft)
04.06.2019 13:27 24,7 °C 52 % 1009,2 hPa 0,0 mm 7,0 km/h (2 Bft) O-NO 62 ° 1 min 0,000 mm 6,9 UV-I 896 W/m² 14,2 °C 24,7 °C 11,3 km/h (2 Bft)
04.06.2019 13:28 24,7 °C 51 % 1009,2 hPa 0,0 mm 3,7 km/h (1 Bft) N-NO 19 ° 1 min 0,000 mm 6,9 UV-I 896 W/m² 13,9 °C 24,7 °C 8,0 km/h (2 Bft)
04.06.2019 13:29 24,8 °C 52 % 1009,1 hPa 0,0 mm 6,8 km/h (2 Bft) NO 36 ° 1 min 0,000 mm 6,8 UV-I 896 W/m² 14,3 °C 24,8 °C 14,5 km/h (3 Bft)
04.06.2019 13:30 24,9 °C 52 % 1009,1 hPa 0,0 mm 11,3 km/h (2 Bft) O 82 ° 1 min 0,000 mm 6,9 UV-I 895 W/m² 14,4 °C 24,9 °C 16,1 km/h (3 Bft)
04.06.2019 13:31 24,9 °C 50 % 1009,1 hPa 0,0 mm 2,1 km/h (1 Bft) N-NO 28 ° 1 min 0,000 mm 6,9 UV-I 895 W/m² 13,7 °C 24,9 °C 4,8 km/h (1 Bft)
04.06.2019 13:32 24,9 °C 51 % 1009,1 hPa 0,0 mm 5,2 km/h (1 Bft) O-NO 57 ° 1 min 0,000 mm 6,9 UV-I 895 W/m² 14,1 °C 24,9 °C 9,7 km/h (2 Bft)
04.06.2019 13:33 24,9 °C 51 % 1009,1 hPa 0,0 mm 4,1 km/h (1 Bft) NO 36 ° 1 min 0,000 mm 6,9 UV-I 895 W/m² 14,1 °C 24,9 °C 8,0 km/h (2 Bft)
04.06.2019 13:34 24,9 °C 50 % 1009,1 hPa 0,0 mm 7,7 km/h (2 Bft) NO 44 ° 1 min 0,000 mm 6,9 UV-I 896 W/m² 13,7 °C 24,9 °C 11,3 km/h (2 Bft)
04.06.2019 13:35 25,0 °C 50 % 1009,1 hPa 0,0 mm 11,1 km/h (2 Bft) O-NO 65 ° 1 min 0,000 mm 6,8 UV-I 893 W/m² 13,8 °C 25,0 °C 16,1 km/h (3 Bft)
04.06.2019 13:36 24,9 °C 50 % 1009,1 hPa 0,0 mm 6,2 km/h (2 Bft) NO 52 ° 1 min 0,000 mm 6,8 UV-I 893 W/m² 13,7 °C 24,9 °C 14,5 km/h (3 Bft)
04.06.2019 13:37 24,9 °C 51 % 1009,0 hPa 0,0 mm 8,9 km/h (2 Bft) O-NO 72 ° 1 min 0,000 mm 6,8 UV-I 895 W/m² 14,1 °C 24,9 °C 16,1 km/h (3 Bft)
04.06.2019 13:38 25,0 °C 49 % 1009,0 hPa 0,0 mm 12,6 km/h (3 Bft) NO 51 ° 1 min 0,000 mm 6,8 UV-I 895 W/m² 13,5 °C 25,0 °C 16,1 km/h (3 Bft)
04.06.2019 13:39 24,9 °C 48 % 1009,0 hPa 0,0 mm 5,4 km/h (1 Bft) O-NO 64 ° 1 min 0,000 mm 6,8 UV-I 895 W/m² 13,1 °C 24,9 °C 9,7 km/h (2 Bft)
04.06.2019 13:40 24,9 °C 50 % 1009,0 hPa 0,0 mm 8,1 km/h (2 Bft) N 350 ° 1 min 0,000 mm 6,8 UV-I 893 W/m² 13,7 °C 24,9 °C 12,9 km/h (3 Bft)
04.06.2019 13:41 24,9 °C 50 % 1009,0 hPa 0,0 mm 8,4 km/h (2 Bft) N-NO 15 ° 1 min 0,000 mm 6,8 UV-I 893 W/m² 13,7 °C 24,9 °C 12,9 km/h (3 Bft)
04.06.2019 13:42 25,0 °C 53 % 1009,0 hPa 0,0 mm 10,5 km/h (2 Bft) NO 52 ° 1 min 0,000 mm 6,8 UV-I 893 W/m² 14,7 °C 25,0 °C 14,5 km/h (3 Bft)
04.06.2019 13:43 25,1 °C 53 % 1008,9 hPa 0,0 mm 7,2 km/h (2 Bft) O-NO 57 ° 1 min 0,000 mm 6,8 UV-I 893 W/m² 14,8 °C 25,1 °C 12,9 km/h (3 Bft)
04.06.2019 13:44 25,1 °C 50 % 1008,9 hPa 0,0 mm 6,0 km/h (2 Bft) O-NO 74 ° 1 min 0,000 mm 6,8 UV-I 893 W/m² 13,9 °C 25,1 °C 9,7 km/h (2 Bft)
04.06.2019 13:45 25,1 °C 50 % 1008,9 hPa 0,0 mm 3,9 km/h (1 Bft) O 89 ° 1 min 0,000 mm 6,8 UV-I 891 W/m² 13,9 °C 25,1 °C 6,4 km/h (2 Bft)
04.06.2019 13:46 25,0 °C 52 % 1008,8 hPa 0,0 mm 4,5 km/h (1 Bft) NO 44 ° 1 min 0,000 mm 6,8 UV-I 886 W/m² 14,4 °C 25,0 °C 11,3 km/h (2 Bft)
04.06.2019 13:47 25,1 °C 52 % 1008,8 hPa 0,0 mm 10,3 km/h (2 Bft) N 11 ° 1 min 0,000 mm 6,8 UV-I 884 W/m² 14,5 °C 25,1 °C 14,5 km/h (3 Bft)
04.06.2019 13:48 25,2 °C 50 % 1008,9 hPa 0,0 mm 12,0 km/h (2 Bft) NO 48 ° 1 min 0,000 mm 6,7 UV-I 884 W/m² 14,0 °C 25,2 °C 20,9 km/h (4 Bft)
04.06.2019 13:49 25,2 °C 48 % 1008,8 hPa 0,0 mm 10,5 km/h (2 Bft) NO 55 ° 1 min 0,000 mm 6,7 UV-I 881 W/m² 13,4 °C 25,2 °C 16,1 km/h (3 Bft)
04.06.2019 13:50 25,2 °C 50 % 1008,9 hPa 0,0 mm 5,6 km/h (1 Bft) N 351 ° 1 min 0,000 mm 6,7 UV-I 879 W/m² 14,0 °C 25,2 °C 8,0 km/h (2 Bft)
04.06.2019 13:51 25,2 °C 53 % 1008,9 hPa 0,0 mm 3,8 km/h (1 Bft) NO 53 ° 1 min 0,000 mm 6,7 UV-I 877 W/m² 14,9 °C 25,2 °C 6,4 km/h (2 Bft)
04.06.2019 13:52 25,2 °C 49 % 1008,9 hPa 0,0 mm 6,1 km/h (2 Bft) N-NO 12 ° 1 min 0,000 mm 6,7 UV-I 877 W/m² 13,7 °C 25,2 °C 14,5 km/h (3 Bft)
04.06.2019 13:53 25,2 °C 49 % 1008,8 hPa 0,0 mm 8,0 km/h (2 Bft) NO 39 ° 1 min 0,000 mm 6,7 UV-I 877 W/m² 13,7 °C 25,2 °C 8,0 km/h (2 Bft)
04.06.2019 13:54 25,2 °C 50 % 1008,9 hPa 0,0 mm 7,2 km/h (2 Bft) O-NO 69 ° 1 min 0,000 mm 6,7 UV-I 877 W/m² 14,0 °C 25,2 °C 14,5 km/h (3 Bft)
04.06.2019 13:55 25,2 °C 49 % 1008,8 hPa 0,0 mm 9,5 km/h (2 Bft) O-NO 69 ° 1 min 0,000 mm 6,7 UV-I 877 W/m² 13,7 °C 25,2 °C 14,5 km/h (3 Bft)
04.06.2019 13:56 25,2 °C 51 % 1008,8 hPa 0,0 mm 10,9 km/h (2 Bft) O-NO 76 ° 1 min 0,000 mm 6,7 UV-I 877 W/m² 14,3 °C 25,2 °C 14,5 km/h (3 Bft)
04.06.2019 13:57 25,1 °C 50 % 1008,7 hPa 0,0 mm 4,0 km/h (1 Bft) N-NO 22 ° 1 min 0,000 mm 6,7 UV-I 877 W/m² 13,9 °C 25,1 °C 8,0 km/h (2 Bft)
04.06.2019 13:58 25,2 °C 53 % 1008,7 hPa 0,0 mm 5,6 km/h (1 Bft) N 355 ° 1 min 0,000 mm 6,7 UV-I 881 W/m² 14,9 °C 25,2 °C 8,0 km/h (2 Bft)
04.06.2019 13:59 25,3 °C 50 % 1008,7 hPa 0,0 mm 6,1 km/h (2 Bft) O-NO 73 ° 1 min 0,000 mm 6,7 UV-I 877 W/m² 14,1 °C 25,3 °C 16,1 km/h (3 Bft)
04.06.2019 14:00 25,4 °C 50 % 1008,7 hPa 0,0 mm 8,8 km/h (2 Bft) N-NW 342 ° 1 min 0,000 mm 6,7 UV-I 875 W/m² 14,2 °C 25,4 °C 14,5 km/h (3 Bft)
04.06.2019 14:01 25,4 °C 51 % 1008,7 hPa 0,0 mm 4,5 km/h (1 Bft) NO 38 ° 1 min 0,610 mm 6,7 UV-I 877 W/m² 14,5 °C 25,4 °C 6,4 km/h (2 Bft)
04.06.2019 14:02 25,3 °C 48 % 1008,7 hPa 0,0 mm 10,9 km/h (2 Bft) N-NO 12 ° 1 min 0,000 mm 6,7 UV-I 875 W/m² 13,5 °C 25,3 °C 14,5 km/h (3 Bft)
04.06.2019 14:03 25,3 °C 48 % 1008,7 hPa 0,0 mm 8,0 km/h (2 Bft) N 360 ° 1 min 0,000 mm 6,7 UV-I 877 W/m² 13,5 °C 25,3 °C 14,5 km/h (3 Bft)
04.06.2019 14:04 25,3 °C 49 % 1008,6 hPa 0,0 mm 5,0 km/h (1 Bft) O-NO 73 ° 1 min 0,000 mm 6,7 UV-I 874 W/m² 13,8 °C 25,3 °C 6,4 km/h (2 Bft)
04.06.2019 14:05 25,3 °C 50 % 1008,7 hPa 0,0 mm 4,6 km/h (1 Bft) O-NO 77 ° 1 min 0,000 mm 6,6 UV-I 874 W/m² 14,1 °C 25,3 °C 8,0 km/h (2 Bft)
04.06.2019 14:06 25,3 °C 49 % 1008,6 hPa 0,0 mm 6,3 km/h (2 Bft) N-NW 334 ° 1 min 0,000 mm 6,6 UV-I 872 W/m² 13,8 °C 25,3 °C 9,7 km/h (2 Bft)
04.06.2019 14:07 25,3 °C 52 % 1008,6 hPa 0,0 mm 3,8 km/h (1 Bft) N-NO 26 ° 1 min 0,000 mm 6,6 UV-I 872 W/m² 14,7 °C 25,3 °C 6,4 km/h (2 Bft)
04.06.2019 14:08 25,4 °C 55 % 1008,6 hPa 0,0 mm 7,9 km/h (2 Bft) NO 46 ° 1 min 0,000 mm 6,6 UV-I 872 W/m² 15,7 °C 25,4 °C 11,3 km/h (2 Bft)
04.06.2019 14:09 25,6 °C 50 % 1008,7 hPa 0,0 mm 4,5 km/h (1 Bft) O-NO 61 ° 1 min 0,000 mm 6,6 UV-I 870 W/m² 14,4 °C 25,6 °C 8,0 km/h (2 Bft)
04.06.2019 14:10 25,4 °C 52 % 1008,6 hPa 0,0 mm 9,0 km/h (2 Bft) O-NO 71 ° 1 min 0,000 mm 6,6 UV-I 870 W/m² 14,8 °C 25,4 °C 14,5 km/h (3 Bft)
04.06.2019 14:11 25,4 °C 51 % 1008,6 hPa 0,0 mm 7,6 km/h (2 Bft) O-NO 62 ° 1 min 0,000 mm 6,6 UV-I 870 W/m² 14,5 °C 25,4 °C 11,3 km/h (2 Bft)
04.06.2019 14:12 25,4 °C 51 % 1008,6 hPa 0,0 mm 6,6 km/h (2 Bft) NO 45 ° 1 min 0,000 mm 6,6 UV-I 870 W/m² 14,5 °C 25,4 °C 8,0 km/h (2 Bft)
04.06.2019 14:13 25,4 °C 50 % 1008,6 hPa 0,0 mm 6,2 km/h (2 Bft) O-NO 63 ° 1 min 0,000 mm 6,6 UV-I 870 W/m² 14,2 °C 25,4 °C 12,9 km/h (3 Bft)
04.06.2019 14:14 25,4 °C 51 % 1008,6 hPa 0,0 mm 6,8 km/h (2 Bft) NO 41 ° 1 min 0,000 mm 6,6 UV-I 868 W/m² 14,5 °C 25,4 °C 12,9 km/h (3 Bft)
04.06.2019 14:15 25,4 °C 48 % 1008,6 hPa 0,0 mm 10,3 km/h (2 Bft) NO 35 ° 1 min 0,000 mm 6,6 UV-I 870 W/m² 13,6 °C 25,4 °C 14,5 km/h (3 Bft)
04.06.2019 14:16 25,6 °C 49 % 1008,6 hPa 0,0 mm 7,2 km/h (2 Bft) O-NO 74 ° 1 min 0,000 mm 6,6 UV-I 868 W/m² 14,1 °C 25,6 °C 14,5 km/h (3 Bft)
04.06.2019 14:17 25,6 °C 49 % 1008,6 hPa 0,0 mm 6,3 km/h (2 Bft) O 92 ° 1 min 0,000 mm 6,5 UV-I 863 W/m² 14,1 °C 25,6 °C 14,5 km/h (3 Bft)
04.06.2019 14:18 25,6 °C 48 % 1008,6 hPa 0,0 mm 9,9 km/h (2 Bft) O-NO 59 ° 1 min 0,000 mm 6,5 UV-I 865 W/m² 13,8 °C 25,6 °C 25,7 km/h (4 Bft)
04.06.2019 14:19 25,7 °C 53 % 1008,5 hPa 0,0 mm 10,5 km/h (2 Bft) O 96 ° 1 min 0,000 mm 6,5 UV-I 861 W/m² 15,4 °C 25,7 °C 17,7 km/h (3 Bft)
04.06.2019 14:20 25,7 °C 53 % 1008,5 hPa 0,0 mm 6,7 km/h (2 Bft) O-NO 58 ° 1 min 0,000 mm 6,4 UV-I 860 W/m² 15,4 °C 25,7 °C 12,9 km/h (3 Bft)
04.06.2019 14:21 25,7 °C 50 % 1008,5 hPa 0,0 mm 4,2 km/h (1 Bft) O-NO 78 ° 1 min 0,000 mm 6,4 UV-I 860 W/m² 14,5 °C 25,7 °C 6,4 km/h (2 Bft)
04.06.2019 14:22 25,7 °C 51 % 1008,5 hPa 0,0 mm 7,5 km/h (2 Bft) NO 49 ° 1 min 0,000 mm 6,5 UV-I 858 W/m² 14,8 °C 25,7 °C 11,3 km/h (2 Bft)
04.06.2019 14:23 25,8 °C 50 % 1008,5 hPa 0,0 mm 9,9 km/h (2 Bft) N-NO 26 ° 1 min 0,000 mm 6,4 UV-I 854 W/m² 14,6 °C 25,8 °C 14,5 km/h (3 Bft)
04.06.2019 14:24 25,7 °C 49 % 1008,5 hPa 0,0 mm 8,0 km/h (2 Bft) O-NO 74 ° 1 min 0,000 mm 6,4 UV-I 854 W/m² 14,2 °C 25,7 °C 16,1 km/h (3 Bft)
04.06.2019 14:25 25,7 °C 48 % 1008,5 hPa 0,0 mm 7,5 km/h (2 Bft) O-NO 57 ° 1 min 0,000 mm 6,4 UV-I 854 W/m² 13,9 °C 25,7 °C 14,5 km/h (3 Bft)
04.06.2019 14:26 25,5 °C 48 % 1008,4 hPa 0,0 mm 2,7 km/h (1 Bft) O-NO 76 ° 1 min 0,000 mm 6,3 UV-I 853 W/m² 13,7 °C 25,5 °C 6,4 km/h (2 Bft)
04.06.2019 14:27 25,5 °C 50 % 1008,5 hPa 0,0 mm 5,6 km/h (1 Bft) O 95 ° 1 min 0,000 mm 6,4 UV-I 853 W/m² 14,3 °C 25,5 °C 8,0 km/h (2 Bft)
04.06.2019 14:28 25,5 °C 50 % 1008,5 hPa 0,0 mm 7,9 km/h (2 Bft) N 5 ° 1 min 0,000 mm 6,4 UV-I 853 W/m² 14,3 °C 25,5 °C 12,9 km/h (3 Bft)
04.06.2019 14:29 25,6 °C 51 % 1008,5 hPa 0,0 mm 6,8 km/h (2 Bft) O-SO 111 ° 1 min 0,000 mm 6,3 UV-I 853 W/m² 14,7 °C 25,6 °C 9,7 km/h (2 Bft)
04.06.2019 14:30 25,6 °C 54 % 1008,5 hPa 0,0 mm 8,1 km/h (2 Bft) NO 53 ° 1 min 0,000 mm 6,3 UV-I 851 W/m² 15,6 °C 25,6 °C 12,9 km/h (3 Bft)
04.06.2019 14:31 25,7 °C 48 % 1008,4 hPa 0,0 mm 5,7 km/h (1 Bft) NO 47 ° 1 min 0,000 mm 6,3 UV-I 851 W/m² 13,9 °C 25,7 °C 8,0 km/h (2 Bft)
04.06.2019 14:32 25,8 °C 51 % 1008,4 hPa 0,0 mm 3,7 km/h (1 Bft) NO 44 ° 1 min 0,000 mm 6,3 UV-I 849 W/m² 14,9 °C 25,8 °C 4,8 km/h (1 Bft)
04.06.2019 14:33 25,7 °C 48 % 1008,4 hPa 0,0 mm 0,4 km/h (0 Bft) NO 48 ° 1 min 0,000 mm 6,3 UV-I 849 W/m² 13,9 °C 25,7 °C 1,6 km/h (1 Bft)
04.06.2019 14:34 25,7 °C 49 % 1008,4 hPa 0,0 mm 5,9 km/h (2 Bft) NO 42 ° 1 min 0,000 mm 6,3 UV-I 847 W/m² 14,2 °C 25,7 °C 6,4 km/h (2 Bft)
04.06.2019 14:35 25,6 °C 47 % 1008,4 hPa 0,0 mm 3,1 km/h (1 Bft) NO 34 ° 1 min 0,000 mm 6,2 UV-I 847 W/m² 13,4 °C 25,6 °C 6,4 km/h (2 Bft)
04.06.2019 14:36 25,7 °C 52 % 1008,4 hPa 0,0 mm 0,8 km/h (0 Bft) N-NO 30 ° 1 min 0,000 mm 6,2 UV-I 847 W/m² 15,1 °C 25,7 °C 4,8 km/h (1 Bft)
04.06.2019 14:37 25,8 °C 50 % 1008,4 hPa 0,0 mm 6,6 km/h (2 Bft) N-NO 28 ° 1 min 0,000 mm 6,2 UV-I 847 W/m² 14,6 °C 25,8 °C 9,7 km/h (2 Bft)
04.06.2019 14:38 25,8 °C 48 % 1008,4 hPa 0,0 mm 5,2 km/h (1 Bft) N-NW 331 ° 1 min 0,000 mm 6,2 UV-I 846 W/m² 13,9 °C 25,8 °C 9,7 km/h (2 Bft)
04.06.2019 14:39 25,9 °C 49 % 1008,3 hPa 0,0 mm 6,4 km/h (2 Bft) O-NO 67 ° 1 min 0,000 mm 6,2 UV-I 844 W/m² 14,4 °C 25,9 °C 11,3 km/h (2 Bft)
04.06.2019 14:40 25,8 °C 48 % 1008,3 hPa 0,0 mm 6,0 km/h (2 Bft) O-NO 60 ° 1 min 0,000 mm 6,2 UV-I 846 W/m² 13,9 °C 25,8 °C 12,9 km/h (3 Bft)
04.06.2019 14:41 25,8 °C 50 % 1008,3 hPa 0,0 mm 1,4 km/h (1 Bft) O-NO 69 ° 1 min 0,000 mm 6,2 UV-I 851 W/m² 14,6 °C 25,8 °C 4,8 km/h (1 Bft)
04.06.2019 14:42 25,8 °C 50 % 1008,3 hPa 0,0 mm 5,1 km/h (1 Bft) NO 54 ° 1 min 0,000 mm 6,2 UV-I 854 W/m² 14,6 °C 25,8 °C 14,5 km/h (3 Bft)
04.06.2019 14:43 25,7 °C 50 % 1008,3 hPa 0,0 mm 9,9 km/h (2 Bft) O-NO 78 ° 1 min 0,000 mm 6,2 UV-I 860 W/m² 14,5 °C 25,7 °C 12,9 km/h (3 Bft)
04.06.2019 14:44 25,7 °C 49 % 1008,3 hPa 0,0 mm 7,4 km/h (2 Bft) N 11 ° 1 min 0,000 mm 6,2 UV-I 867 W/m² 14,2 °C 25,7 °C 9,7 km/h (2 Bft)
04.06.2019 14:45 25,8 °C 49 % 1008,2 hPa 0,0 mm 2,5 km/h (1 Bft) N-NO 26 ° 1 min 0,000 mm 5,8 UV-I 888 W/m² 14,3 °C 25,8 °C 4,8 km/h (1 Bft)
04.06.2019 14:46 25,8 °C 51 % 1008,2 hPa 0,0 mm 7,2 km/h (2 Bft) N-NW 340 ° 1 min 0,000 mm 5,0 UV-I 888 W/m² 14,9 °C 25,8 °C 11,3 km/h (2 Bft)
04.06.2019 14:47 25,9 °C 51 % 1008,2 hPa 0,0 mm 7,8 km/h (2 Bft) N 360 ° 1 min 0,000 mm 4,6 UV-I 888 W/m² 15,0 °C 25,9 °C 12,9 km/h (3 Bft)
04.06.2019 14:48 25,8 °C 49 % 1008,2 hPa 0,0 mm 6,9 km/h (2 Bft) N 5 ° 1 min 0,000 mm 4,1 UV-I 888 W/m² 14,3 °C 25,8 °C 12,9 km/h (3 Bft)
04.06.2019 14:49 25,8 °C 50 % 1008,2 hPa 0,0 mm 5,6 km/h (1 Bft) N-NW 347 ° 1 min 0,000 mm 5,3 UV-I 888 W/m² 14,6 °C 25,8 °C 9,7 km/h (2 Bft)
04.06.2019 14:50 25,8 °C 51 % 1008,2 hPa 0,0 mm 4,7 km/h (1 Bft) NO 38 ° 1 min 0,000 mm 5,8 UV-I 670 W/m² 14,9 °C 25,8 °C 8,0 km/h (2 Bft)
04.06.2019 14:51 25,8 °C 50 % 1008,2 hPa 0,0 mm 4,6 km/h (1 Bft) O-NO 58 ° 1 min 0,000 mm 6,0 UV-I 833 W/m² 14,6 °C 25,8 °C 6,4 km/h (2 Bft)
04.06.2019 14:52 25,8 °C 49 % 1008,2 hPa 0,0 mm 7,6 km/h (2 Bft) NO 51 ° 1 min 0,000 mm 6,0 UV-I 830 W/m² 14,3 °C 25,8 °C 9,7 km/h (2 Bft)
04.06.2019 14:53 25,8 °C 49 % 1008,2 hPa 0,0 mm 5,5 km/h (1 Bft) N-NO 33 ° 1 min 0,000 mm 6,0 UV-I 826 W/m² 14,3 °C 25,8 °C 8,0 km/h (2 Bft)
04.06.2019 14:54 25,8 °C 53 % 1008,2 hPa 0,0 mm 0,0 km/h (0 Bft) NO 48 ° 1 min 0,000 mm 5,9 UV-I 823 W/m² 15,5 °C 25,8 °C 0,0 km/h (0 Bft)
04.06.2019 14:55 25,8 °C 49 % 1008,2 hPa 0,0 mm 1,7 km/h (1 Bft) NO 49 ° 1 min 0,000 mm 5,9 UV-I 819 W/m² 14,3 °C 25,8 °C 4,8 km/h (1 Bft)
04.06.2019 14:56 25,8 °C 51 % 1008,2 hPa 0,0 mm 4,6 km/h (1 Bft) NO 54 ° 1 min 0,000 mm 5,9 UV-I 817 W/m² 14,9 °C 25,8 °C 11,3 km/h (2 Bft)
04.06.2019 14:57 25,8 °C 48 % 1008,2 hPa 0,0 mm 13,4 km/h (3 Bft) N 9 ° 1 min 0,000 mm 5,9 UV-I 810 W/m² 13,9 °C 25,8 °C 17,7 km/h (3 Bft)
04.06.2019 14:58 25,8 °C 48 % 1008,1 hPa 0,0 mm 9,3 km/h (2 Bft) O-NO 73 ° 1 min 0,000 mm 5,8 UV-I 807 W/m² 13,9 °C 25,8 °C 12,9 km/h (3 Bft)
04.06.2019 14:59 25,9 °C 48 % 1008,2 hPa 0,0 mm 10,9 km/h (2 Bft) O-NO 71 ° 1 min 0,000 mm 5,8 UV-I 807 W/m² 14,0 °C 25,9 °C 17,7 km/h (3 Bft)
04.06.2019 15:00 25,9 °C 50 % 1008,2 hPa 0,0 mm 4,6 km/h (1 Bft) O-NO 78 ° 1 min 0,000 mm 5,8 UV-I 803 W/m² 14,7 °C 25,9 °C 8,0 km/h (2 Bft)
04.06.2019 15:01 25,9 °C 49 % 1008,2 hPa 0,0 mm 6,4 km/h (2 Bft) O-NO 57 ° 1 min 0,584 mm 5,8 UV-I 803 W/m² 14,4 °C 25,9 °C 14,5 km/h (3 Bft)
04.06.2019 15:02 25,9 °C 49 % 1008,2 hPa 0,0 mm 8,9 km/h (2 Bft) NO 46 ° 1 min 0,000 mm 5,8 UV-I 803 W/m² 14,4 °C 25,9 °C 14,5 km/h (3 Bft)
04.06.2019 15:03 25,9 °C 48 % 1008,1 hPa 0,0 mm 6,7 km/h (2 Bft) O 85 ° 1 min 0,000 mm 5,8 UV-I 802 W/m² 14,0 °C 25,9 °C 11,3 km/h (2 Bft)
04.06.2019 15:04 25,9 °C 48 % 1008,1 hPa 0,0 mm 5,8 km/h (2 Bft) N-NW 346 ° 1 min 0,000 mm 5,8 UV-I 802 W/m² 14,0 °C 25,9 °C 12,9 km/h (3 Bft)
04.06.2019 15:05 25,9 °C 49 % 1008,1 hPa 0,0 mm 5,6 km/h (1 Bft) N-NO 30 ° 1 min 0,000 mm 5,7 UV-I 800 W/m² 14,4 °C 25,9 °C 6,4 km/h (2 Bft)
04.06.2019 15:06 25,9 °C 52 % 1008,0 hPa 0,0 mm 1,9 km/h (1 Bft) O 86 ° 1 min 0,000 mm 5,7 UV-I 798 W/m² 15,3 °C 25,9 °C 4,8 km/h (1 Bft)
04.06.2019 15:07 25,9 °C 51 % 1008,0 hPa 0,0 mm 8,9 km/h (2 Bft) O 90 ° 1 min 0,000 mm 5,7 UV-I 796 W/m² 15,0 °C 25,9 °C 12,9 km/h (3 Bft)
04.06.2019 15:08 26,1 °C 50 % 1008,1 hPa 0,0 mm 9,1 km/h (2 Bft) SO 126 ° 1 min 0,000 mm 5,7 UV-I 793 W/m² 14,8 °C 26,1 °C 16,1 km/h (3 Bft)
04.06.2019 15:09 26,0 °C 50 % 1008,0 hPa 0,0 mm 5,1 km/h (1 Bft) NO 48 ° 1 min 0,000 mm 5,6 UV-I 791 W/m² 14,8 °C 26,0 °C 11,3 km/h (2 Bft)
04.06.2019 15:10 25,9 °C 48 % 1008,0 hPa 0,0 mm 6,5 km/h (2 Bft) O 88 ° 1 min 0,000 mm 5,6 UV-I 791 W/m² 14,0 °C 25,9 °C 11,3 km/h (2 Bft)
04.06.2019 15:11 25,8 °C 48 % 1008,0 hPa 0,0 mm 3,2 km/h (1 Bft) O-NO 64 ° 1 min 0,000 mm 5,6 UV-I 791 W/m² 13,9 °C 25,8 °C 6,4 km/h (2 Bft)
04.06.2019 15:12 25,9 °C 49 % 1008,0 hPa 0,0 mm 8,6 km/h (2 Bft) NO 44 ° 1 min 0,000 mm 5,6 UV-I 791 W/m² 14,4 °C 25,9 °C 14,5 km/h (3 Bft)
04.06.2019 15:13 26,1 °C 52 % 1007,9 hPa 0,0 mm 7,4 km/h (2 Bft) O-NO 57 ° 1 min 0,000 mm 5,6 UV-I 788 W/m² 15,5 °C 26,1 °C 9,7 km/h (2 Bft)
04.06.2019 15:14 26,1 °C 51 % 1007,9 hPa 0,0 mm 4,3 km/h (1 Bft) N 5 ° 1 min 0,000 mm 5,6 UV-I 788 W/m² 15,2 °C 26,1 °C 6,4 km/h (2 Bft)
04.06.2019 15:15 26,1 °C 51 % 1008,0 hPa 0,0 mm 7,7 km/h (2 Bft) N-NW 344 ° 1 min 0,000 mm 5,6 UV-I 788 W/m² 15,2 °C 26,1 °C 14,5 km/h (3 Bft)
04.06.2019 15:16 26,1 °C 51 % 1008,0 hPa 0,0 mm 7,4 km/h (2 Bft) N-NO 19 ° 1 min 0,000 mm 5,5 UV-I 788 W/m² 15,2 °C 26,1 °C 12,9 km/h (3 Bft)
04.06.2019 15:17 26,1 °C 52 % 1008,0 hPa 0,0 mm 8,7 km/h (2 Bft) N 355 ° 1 min 0,000 mm 5,5 UV-I 782 W/m² 15,5 °C 26,1 °C 12,9 km/h (3 Bft)
04.06.2019 15:18 26,1 °C 50 % 1008,0 hPa 0,0 mm 8,0 km/h (2 Bft) NW 321 ° 1 min 0,000 mm 5,5 UV-I 782 W/m² 14,8 °C 26,1 °C 14,5 km/h (3 Bft)
04.06.2019 15:19 26,2 °C 50 % 1008,0 hPa 0,0 mm 7,3 km/h (2 Bft) N-NW 342 ° 1 min 0,000 mm 5,5 UV-I 779 W/m² 14,9 °C 26,2 °C 9,7 km/h (2 Bft)
04.06.2019 15:20 26,2 °C 50 % 1008,0 hPa 0,0 mm 12,4 km/h (3 Bft) N-NO 18 ° 1 min 0,000 mm 5,5 UV-I 777 W/m² 14,9 °C 26,2 °C 17,7 km/h (3 Bft)
04.06.2019 15:21 26,2 °C 48 % 1008,0 hPa 0,0 mm 7,2 km/h (2 Bft) NO 46 ° 1 min 0,000 mm 5,4 UV-I 775 W/m² 14,3 °C 26,2 °C 9,7 km/h (2 Bft)
04.06.2019 15:22 26,2 °C 48 % 1008,0 hPa 0,0 mm 7,2 km/h (2 Bft) O-NO 75 ° 1 min 0,000 mm 5,4 UV-I 775 W/m² 14,3 °C 26,2 °C 11,3 km/h (2 Bft)
04.06.2019 15:23 26,1 °C 49 % 1008,0 hPa 0,0 mm 9,6 km/h (2 Bft) O 98 ° 1 min 0,000 mm 5,4 UV-I 773 W/m² 14,5 °C 26,1 °C 14,5 km/h (3 Bft)
04.06.2019 15:24 26,1 °C 50 % 1008,0 hPa 0,0 mm 2,3 km/h (1 Bft) NO 50 ° 1 min 0,000 mm 5,4 UV-I 772 W/m² 14,8 °C 26,1 °C 9,7 km/h (2 Bft)
04.06.2019 15:25 26,1 °C 50 % 1008,0 hPa 0,0 mm 1,9 km/h (1 Bft) O-NO 65 ° 1 min 0,000 mm 5,4 UV-I 770 W/m² 14,8 °C 26,1 °C 4,8 km/h (1 Bft)
04.06.2019 15:26 26,1 °C 51 % 1007,9 hPa 0,0 mm 3,1 km/h (1 Bft) O 80 ° 1 min 0,000 mm 5,4 UV-I 768 W/m² 15,2 °C 26,1 °C 6,4 km/h (2 Bft)
04.06.2019 15:27 26,1 °C 48 % 1007,9 hPa 0,0 mm 3,5 km/h (1 Bft) NO 53 ° 1 min 0,000 mm 5,3 UV-I 768 W/m² 14,2 °C 26,1 °C 4,8 km/h (1 Bft)
04.06.2019 15:28 26,1 °C 49 % 1007,9 hPa 0,0 mm 6,0 km/h (2 Bft) N-NO 27 ° 1 min 0,000 mm 5,3 UV-I 768 W/m² 14,5 °C 26,1 °C 8,0 km/h (2 Bft)
04.06.2019 15:29 26,2 °C 50 % 1007,9 hPa 0,0 mm 2,4 km/h (1 Bft) O-NO 61 ° 1 min 0,000 mm 5,3 UV-I 766 W/m² 14,9 °C 26,2 °C 6,4 km/h (2 Bft)
04.06.2019 15:30 26,3 °C 49 % 1007,8 hPa 0,0 mm 3,9 km/h (1 Bft) N-NW 348 ° 1 min 0,000 mm 5,2 UV-I 765 W/m² 14,7 °C 26,3 °C 6,4 km/h (2 Bft)
04.06.2019 15:31 26,3 °C 48 % 1007,8 hPa 0,0 mm 3,7 km/h (1 Bft) N 5 ° 1 min 0,000 mm 5,2 UV-I 765 W/m² 14,4 °C 26,3 °C 6,4 km/h (2 Bft)
04.06.2019 15:32 26,3 °C 54 % 1007,8 hPa 0,0 mm 2,7 km/h (1 Bft) O-NO 74 ° 1 min 0,000 mm 5,2 UV-I 763 W/m² 16,2 °C 26,3 °C 4,8 km/h (1 Bft)
04.06.2019 15:33 26,2 °C 52 % 1007,8 hPa 0,0 mm 6,2 km/h (2 Bft) O-NO 59 ° 1 min 0,000 mm 5,1 UV-I 759 W/m² 15,6 °C 26,2 °C 12,9 km/h (3 Bft)
04.06.2019 15:34 26,2 °C 49 % 1007,8 hPa 0,0 mm 3,8 km/h (1 Bft) O-NO 57 ° 1 min 0,000 mm 5,0 UV-I 758 W/m² 14,6 °C 26,2 °C 6,4 km/h (2 Bft)
04.06.2019 15:35 26,2 °C 47 % 1007,9 hPa 0,0 mm 7,7 km/h (2 Bft) O-NO 63 ° 1 min 0,000 mm 5,0 UV-I 756 W/m² 14,0 °C 26,2 °C 11,3 km/h (2 Bft)
04.06.2019 15:36 26,2 °C 47 % 1007,8 hPa 0,0 mm 7,0 km/h (2 Bft) N-NO 20 ° 1 min 0,000 mm 4,9 UV-I 756 W/m² 14,0 °C 26,2 °C 14,5 km/h (3 Bft)
04.06.2019 15:37 26,2 °C 47 % 1007,8 hPa 0,0 mm 8,4 km/h (2 Bft) NO 48 ° 1 min 0,000 mm 4,9 UV-I 756 W/m² 14,0 °C 26,2 °C 14,5 km/h (3 Bft)
04.06.2019 15:38 26,2 °C 46 % 1007,8 hPa 0,0 mm 6,0 km/h (2 Bft) N 11 ° 1 min 0,000 mm 4,8 UV-I 751 W/m² 13,6 °C 26,2 °C 9,7 km/h (2 Bft)
04.06.2019 15:39 26,2 °C 48 % 1007,8 hPa 0,0 mm 3,1 km/h (1 Bft) N 355 ° 1 min 0,000 mm 4,7 UV-I 751 W/m² 14,3 °C 26,2 °C 6,4 km/h (2 Bft)
04.06.2019 15:40 26,2 °C 47 % 1007,8 hPa 0,0 mm 2,2 km/h (1 Bft) N-NO 17 ° 1 min 0,000 mm 4,7 UV-I 745 W/m² 14,0 °C 26,2 °C 4,8 km/h (1 Bft)
04.06.2019 15:41 26,2 °C 48 % 1007,8 hPa 0,0 mm 3,7 km/h (1 Bft) NO 43 ° 1 min 0,000 mm 4,6 UV-I 745 W/m² 14,3 °C 26,2 °C 6,4 km/h (2 Bft)
04.06.2019 15:42 26,2 °C 47 % 1007,8 hPa 0,0 mm 6,2 km/h (2 Bft) N-NW 327 ° 1 min 0,000 mm 4,6 UV-I 744 W/m² 14,0 °C 26,2 °C 9,7 km/h (2 Bft)
04.06.2019 15:43 26,3 °C 50 % 1007,7 hPa 0,0 mm 7,2 km/h (2 Bft) NO 42 ° 1 min 0,000 mm 4,6 UV-I 744 W/m² 15,0 °C 26,3 °C 11,3 km/h (2 Bft)
04.06.2019 15:44 26,4 °C 48 % 1007,7 hPa 0,0 mm 6,7 km/h (2 Bft) O-NO 60 ° 1 min 0,000 mm 4,6 UV-I 742 W/m² 14,5 °C 26,4 °C 11,3 km/h (2 Bft)
04.06.2019 15:45 26,4 °C 48 % 1007,7 hPa 0,0 mm 5,5 km/h (1 Bft) NO 51 ° 1 min 0,000 mm 4,6 UV-I 742 W/m² 14,5 °C 26,4 °C 11,3 km/h (2 Bft)
04.06.2019 15:46 26,4 °C 47 % 1007,7 hPa 0,0 mm 7,5 km/h (2 Bft) NO 49 ° 1 min 0,000 mm 4,6 UV-I 740 W/m² 14,2 °C 26,4 °C 14,5 km/h (3 Bft)
04.06.2019 15:47 26,4 °C 46 % 1007,6 hPa 0,0 mm 4,9 km/h (1 Bft) O-NO 68 ° 1 min 0,000 mm 4,5 UV-I 737 W/m² 13,8 °C 26,4 °C 11,3 km/h (2 Bft)
04.06.2019 15:48 26,4 °C 47 % 1007,7 hPa 0,0 mm 6,5 km/h (2 Bft) N-NW 341 ° 1 min 0,000 mm 4,5 UV-I 737 W/m² 14,2 °C 26,4 °C 11,3 km/h (2 Bft)
04.06.2019 15:49 26,4 °C 48 % 1007,7 hPa 0,0 mm 5,1 km/h (1 Bft) NO 49 ° 1 min 0,000 mm 4,5 UV-I 735 W/m² 14,5 °C 26,4 °C 11,3 km/h (2 Bft)
04.06.2019 15:50 26,4 °C 48 % 1007,6 hPa 0,0 mm 5,0 km/h (1 Bft) N-NW 342 ° 1 min 0,000 mm 4,4 UV-I 735 W/m² 14,5 °C 26,4 °C 8,0 km/h (2 Bft)
04.06.2019 15:51 26,4 °C 50 % 1007,6 hPa 0,0 mm 7,5 km/h (2 Bft) N-NO 21 ° 1 min 0,000 mm 4,4 UV-I 735 W/m² 15,1 °C 26,4 °C 12,9 km/h (3 Bft)
04.06.2019 15:52 26,4 °C 50 % 1007,6 hPa 0,0 mm 5,7 km/h (1 Bft) O-NO 60 ° 1 min 0,000 mm 4,4 UV-I 731 W/m² 15,1 °C 26,4 °C 8,0 km/h (2 Bft)
04.06.2019 15:53 26,4 °C 46 % 1007,7 hPa 0,0 mm 9,0 km/h (2 Bft) O-NO 77 ° 1 min 0,000 mm 4,4 UV-I 738 W/m² 13,8 °C 26,4 °C 12,9 km/h (3 Bft)
04.06.2019 15:54 26,4 °C 49 % 1007,7 hPa 0,0 mm 7,2 km/h (2 Bft) NO 45 ° 1 min 0,000 mm 4,3 UV-I 698 W/m² 14,8 °C 26,4 °C 11,3 km/h (2 Bft)
04.06.2019 15:55 26,3 °C 45 % 1007,7 hPa 0,0 mm 9,2 km/h (2 Bft) NO 48 ° 1 min 0,000 mm 4,4 UV-I 677 W/m² 13,4 °C 26,3 °C 14,5 km/h (3 Bft)
04.06.2019 15:56 26,3 °C 47 % 1007,6 hPa 0,0 mm 8,5 km/h (2 Bft) O-NO 62 ° 1 min 0,000 mm 2,8 UV-I 677 W/m² 14,1 °C 26,3 °C 14,5 km/h (3 Bft)
04.06.2019 15:57 26,2 °C 46 % 1007,6 hPa 0,0 mm 5,2 km/h (1 Bft) N-NO 20 ° 0 min 0,000 mm 2,8 UV-I 179 W/m² 13,6 °C 26,2 °C 9,7 km/h (2 Bft)
04.06.2019 15:58 26,1 °C 46 % 1007,6 hPa 0,0 mm 5,7 km/h (1 Bft) N 360 ° 0 min 0,000 mm 2,9 UV-I 185 W/m² 13,6 °C 26,1 °C 12,9 km/h (3 Bft)
04.06.2019 15:59 26,0 °C 48 % 1007,6 hPa 0,0 mm 4,0 km/h (1 Bft) O 100 ° 0 min 0,000 mm 4,2 UV-I 185 W/m² 14,1 °C 26,0 °C 6,4 km/h (2 Bft)
04.06.2019 16:00 25,8 °C 48 % 1007,6 hPa 0,0 mm 4,6 km/h (1 Bft) NO 54 ° 1 min 0,508 mm 4,2 UV-I 708 W/m² 13,9 °C 25,8 °C 9,7 km/h (2 Bft)
04.06.2019 16:01 25,8 °C 49 % 1007,6 hPa 0,0 mm 5,8 km/h (2 Bft) NO 42 ° 1 min 0,000 mm 4,2 UV-I 700 W/m² 14,3 °C 25,8 °C 9,7 km/h (2 Bft)
04.06.2019 16:02 25,8 °C 48 % 1007,7 hPa 0,0 mm 6,8 km/h (2 Bft) O-NO 69 ° 1 min 0,000 mm 4,1 UV-I 693 W/m² 13,9 °C 25,8 °C 9,7 km/h (2 Bft)
04.06.2019 16:03 25,8 °C 46 % 1007,6 hPa 0,0 mm 9,9 km/h (2 Bft) N-NO 30 ° 1 min 0,000 mm 4,1 UV-I 693 W/m² 13,3 °C 25,8 °C 14,5 km/h (3 Bft)
04.06.2019 16:04 25,8 °C 47 % 1007,6 hPa 0,0 mm 3,0 km/h (1 Bft) N-NO 26 ° 1 min 0,000 mm 4,1 UV-I 698 W/m² 13,6 °C 25,8 °C 6,4 km/h (2 Bft)
04.06.2019 16:05 25,8 °C 49 % 1007,6 hPa 0,0 mm 3,5 km/h (1 Bft) NW 326 ° 1 min 0,000 mm 4,1 UV-I 700 W/m² 14,3 °C 25,8 °C 4,8 km/h (1 Bft)
04.06.2019 16:06 25,9 °C 48 % 1007,6 hPa 0,0 mm 3,4 km/h (1 Bft) N-NW 341 ° 1 min 0,000 mm 4,1 UV-I 701 W/m² 14,0 °C 25,9 °C 6,4 km/h (2 Bft)
04.06.2019 16:07 26,0 °C 47 % 1007,6 hPa 0,0 mm 4,8 km/h (1 Bft) N-NO 22 ° 1 min 0,000 mm 4,1 UV-I 677 W/m² 13,8 °C 26,0 °C 8,0 km/h (2 Bft)
04.06.2019 16:08 26,0 °C 47 % 1007,6 hPa 0,0 mm 4,5 km/h (1 Bft) N 11 ° 1 min 0,000 mm 2,9 UV-I 677 W/m² 13,8 °C 26,0 °C 6,4 km/h (2 Bft)
04.06.2019 16:09 26,0 °C 46 % 1007,6 hPa 0,0 mm 3,1 km/h (1 Bft) NO 42 ° 0 min 0,000 mm 2,6 UV-I 125 W/m² 13,5 °C 26,0 °C 6,4 km/h (2 Bft)
04.06.2019 16:10 26,1 °C 48 % 1007,6 hPa 0,0 mm 10,5 km/h (2 Bft) N 360 ° 0 min 0,000 mm 2,7 UV-I 125 W/m² 14,2 °C 26,1 °C 17,7 km/h (3 Bft)
04.06.2019 16:11 26,1 °C 47 % 1007,6 hPa 0,0 mm 8,4 km/h (2 Bft) NO 45 ° 0 min 0,000 mm 2,6 UV-I 125 W/m² 13,9 °C 26,1 °C 14,5 km/h (3 Bft)
04.06.2019 16:12 26,1 °C 49 % 1007,6 hPa 0,0 mm 7,0 km/h (2 Bft) S-SW 205 ° 0 min 0,000 mm 2,6 UV-I 123 W/m² 14,5 °C 26,1 °C 11,3 km/h (2 Bft)
04.06.2019 16:13 26,1 °C 48 % 1007,6 hPa 0,0 mm 2,6 km/h (1 Bft) N-NO 31 ° 0 min 0,000 mm 2,5 UV-I 125 W/m² 14,2 °C 26,1 °C 6,4 km/h (2 Bft)
04.06.2019 16:14 26,1 °C 51 % 1007,7 hPa 0,0 mm 8,1 km/h (2 Bft) NO 55 ° 0 min 0,000 mm 2,6 UV-I 120 W/m² 15,2 °C 26,1 °C 12,9 km/h (3 Bft)
04.06.2019 16:15 26,1 °C 48 % 1007,6 hPa 0,0 mm 3,9 km/h (1 Bft) O-NO 66 ° 0 min 0,000 mm 2,5 UV-I 118 W/m² 14,2 °C 26,1 °C 6,4 km/h (2 Bft)
04.06.2019 16:16 26,0 °C 47 % 1007,6 hPa 0,0 mm 3,9 km/h (1 Bft) NO 36 ° 0 min 0,000 mm 2,5 UV-I 116 W/m² 13,8 °C 26,0 °C 9,7 km/h (2 Bft)
04.06.2019 16:17 25,9 °C 46 % 1007,6 hPa 0,0 mm 4,3 km/h (1 Bft) NO 53 ° 0 min 0,000 mm 2,5 UV-I 114 W/m² 13,4 °C 25,9 °C 6,4 km/h (2 Bft)
04.06.2019 16:18 25,9 °C 47 % 1007,6 hPa 0,0 mm 3,9 km/h (1 Bft) N 351 ° 0 min 0,000 mm 2,4 UV-I 111 W/m² 13,7 °C 25,9 °C 6,4 km/h (2 Bft)
04.06.2019 16:19 25,9 °C 50 % 1007,5 hPa 0,0 mm 4,8 km/h (1 Bft) N-NW 332 ° 0 min 0,000 mm 2,4 UV-I 109 W/m² 14,7 °C 25,9 °C 8,0 km/h (2 Bft)
04.06.2019 16:20 25,8 °C 47 % 1007,5 hPa 0,0 mm 8,0 km/h (2 Bft) O 100 ° 0 min 0,000 mm 2,4 UV-I 109 W/m² 13,6 °C 25,8 °C 14,5 km/h (3 Bft)
04.06.2019 16:21 25,9 °C 48 % 1007,6 hPa 0,0 mm 7,8 km/h (2 Bft) N-NO 17 ° 0 min 0,000 mm 2,4 UV-I 109 W/m² 14,0 °C 25,9 °C 14,5 km/h (3 Bft)
04.06.2019 16:22 25,9 °C 48 % 1007,5 hPa 0,0 mm 7,9 km/h (2 Bft) N-NW 332 ° 0 min 0,000 mm 2,4 UV-I 109 W/m² 14,0 °C 25,9 °C 14,5 km/h (3 Bft)
04.06.2019 16:23 25,9 °C 46 % 1007,5 hPa 0,0 mm 10,7 km/h (2 Bft) NO 36 ° 0 min 0,000 mm 2,4 UV-I 109 W/m² 13,4 °C 25,9 °C 16,1 km/h (3 Bft)
04.06.2019 16:24 25,9 °C 47 % 1007,5 hPa 0,0 mm 7,7 km/h (2 Bft) N 9 ° 0 min 0,000 mm 2,4 UV-I 109 W/m² 13,7 °C 25,9 °C 14,5 km/h (3 Bft)
04.06.2019 16:25 25,9 °C 46 % 1007,5 hPa 0,0 mm 2,8 km/h (1 Bft) N-NO 21 ° 0 min 0,000 mm 2,4 UV-I 109 W/m² 13,4 °C 25,9 °C 11,3 km/h (2 Bft)
04.06.2019 16:26 26,0 °C 49 % 1007,5 hPa 0,0 mm 6,9 km/h (2 Bft) O-NO 62 ° 0 min 0,000 mm 2,3 UV-I 109 W/m² 14,4 °C 26,0 °C 11,3 km/h (2 Bft)
04.06.2019 16:27 25,9 °C 47 % 1007,5 hPa 0,0 mm 7,3 km/h (2 Bft) NO 34 ° 0 min 0,000 mm 2,3 UV-I 109 W/m² 13,7 °C 25,9 °C 12,9 km/h (3 Bft)
04.06.2019 16:28 25,9 °C 47 % 1007,5 hPa 0,0 mm 7,4 km/h (2 Bft) NO 42 ° 0 min 0,000 mm 2,3 UV-I 121 W/m² 13,7 °C 25,9 °C 12,9 km/h (3 Bft)
04.06.2019 16:29 26,0 °C 48 % 1007,5 hPa 0,0 mm 8,6 km/h (2 Bft) N-NO 29 ° 0 min 0,000 mm 2,3 UV-I 132 W/m² 14,1 °C 26,0 °C 16,1 km/h (3 Bft)
04.06.2019 16:30 25,9 °C 47 % 1007,4 hPa 0,0 mm 9,4 km/h (2 Bft) O-NO 70 ° 0 min 0,000 mm 2,3 UV-I 114 W/m² 13,7 °C 25,9 °C 16,1 km/h (3 Bft)
04.06.2019 16:31 25,9 °C 47 % 1007,4 hPa 0,0 mm 6,9 km/h (2 Bft) O 94 ° 0 min 0,000 mm 2,3 UV-I 107 W/m² 13,7 °C 25,9 °C 12,9 km/h (3 Bft)
04.06.2019 16:32 25,9 °C 47 % 1007,4 hPa 0,0 mm 5,7 km/h (1 Bft) O-NO 73 ° 0 min 0,000 mm 2,3 UV-I 114 W/m² 13,7 °C 25,9 °C 14,5 km/h (3 Bft)
04.06.2019 16:33 25,9 °C 47 % 1007,4 hPa 0,0 mm 8,0 km/h (2 Bft) O-NO 78 ° 0 min 0,000 mm 2,3 UV-I 113 W/m² 13,7 °C 25,9 °C 11,3 km/h (2 Bft)
04.06.2019 16:34 25,8 °C 47 % 1007,4 hPa 0,0 mm 4,5 km/h (1 Bft) NO 46 ° 0 min 0,000 mm 2,3 UV-I 107 W/m² 13,6 °C 25,8 °C 8,0 km/h (2 Bft)
04.06.2019 16:35 25,8 °C 47 % 1007,4 hPa 0,0 mm 3,3 km/h (1 Bft) N-NO 12 ° 0 min 0,000 mm 2,2 UV-I 107 W/m² 13,6 °C 25,8 °C 6,4 km/h (2 Bft)
04.06.2019 16:36 25,8 °C 48 % 1007,4 hPa 0,0 mm 3,7 km/h (1 Bft) O 86 ° 0 min 0,000 mm 2,2 UV-I 105 W/m² 13,9 °C 25,8 °C 4,8 km/h (1 Bft)
04.06.2019 16:37 25,9 °C 49 % 1007,4 hPa 0,0 mm 8,1 km/h (2 Bft) O-NO 78 ° 0 min 0,000 mm 2,2 UV-I 105 W/m² 14,4 °C 25,9 °C 11,3 km/h (2 Bft)
04.06.2019 16:38 25,8 °C 49 % 1007,4 hPa 0,0 mm 6,8 km/h (2 Bft) NO 52 ° 0 min 0,000 mm 2,2 UV-I 107 W/m² 14,3 °C 25,8 °C 9,7 km/h (2 Bft)
04.06.2019 16:39 25,8 °C 46 % 1007,4 hPa 0,0 mm 8,2 km/h (2 Bft) O 81 ° 0 min 0,000 mm 2,2 UV-I 107 W/m² 13,3 °C 25,8 °C 14,5 km/h (3 Bft)
04.06.2019 16:40 25,8 °C 47 % 1007,4 hPa 0,0 mm 3,1 km/h (1 Bft) NO 37 ° 0 min 0,000 mm 2,2 UV-I 102 W/m² 13,6 °C 25,8 °C 4,8 km/h (1 Bft)
04.06.2019 16:41 25,8 °C 46 % 1007,4 hPa 0,0 mm 5,8 km/h (2 Bft) O-NO 61 ° 0 min 0,000 mm 2,2 UV-I 111 W/m² 13,3 °C 25,8 °C 9,7 km/h (2 Bft)
04.06.2019 16:42 25,8 °C 46 % 1007,4 hPa 0,0 mm 4,3 km/h (1 Bft) O 80 ° 0 min 0,000 mm 2,2 UV-I 111 W/m² 13,3 °C 25,8 °C 8,0 km/h (2 Bft)
04.06.2019 16:43 25,8 °C 48 % 1007,3 hPa 0,0 mm 3,3 km/h (1 Bft) N-NO 32 ° 0 min 0,000 mm 2,2 UV-I 111 W/m² 13,9 °C 25,8 °C 4,8 km/h (1 Bft)
04.06.2019 16:44 25,8 °C 46 % 1007,3 hPa 0,0 mm 5,7 km/h (1 Bft) O 79 ° 0 min 0,000 mm 2,2 UV-I 111 W/m² 13,3 °C 25,8 °C 8,0 km/h (2 Bft)
04.06.2019 16:45 25,8 °C 48 % 1007,4 hPa 0,0 mm 6,8 km/h (2 Bft) O-NO 72 ° 0 min 0,000 mm 2,2 UV-I 114 W/m² 13,9 °C 25,8 °C 12,9 km/h (3 Bft)
04.06.2019 16:46 25,8 °C 48 % 1007,4 hPa 0,0 mm 3,9 km/h (1 Bft) NO 46 ° 0 min 0,000 mm 2,1 UV-I 116 W/m² 13,9 °C 25,8 °C 6,4 km/h (2 Bft)
04.06.2019 16:47 25,8 °C 46 % 1007,4 hPa 0,0 mm 6,5 km/h (2 Bft) O-NO 69 ° 0 min 0,000 mm 2,1 UV-I 121 W/m² 13,3 °C 25,8 °C 9,7 km/h (2 Bft)
04.06.2019 16:48 25,8 °C 48 % 1007,3 hPa 0,0 mm 4,2 km/h (1 Bft) N-NO 30 ° 0 min 0,000 mm 2,2 UV-I 139 W/m² 13,9 °C 25,8 °C 11,3 km/h (2 Bft)
04.06.2019 16:49 25,8 °C 46 % 1007,3 hPa 0,0 mm 11,9 km/h (2 Bft) N-NO 22 ° 0 min 0,000 mm 2,2 UV-I 142 W/m² 13,3 °C 25,8 °C 17,7 km/h (3 Bft)
04.06.2019 16:50 25,9 °C 45 % 1007,3 hPa 0,0 mm 9,4 km/h (2 Bft) O-NO 61 ° 0 min 0,000 mm 2,2 UV-I 149 W/m² 13,0 °C 25,9 °C 14,5 km/h (3 Bft)
04.06.2019 16:51 25,9 °C 46 % 1007,3 hPa 0,0 mm 7,0 km/h (2 Bft) O-NO 59 ° 0 min 0,000 mm 2,2 UV-I 155 W/m² 13,4 °C 25,9 °C 11,3 km/h (2 Bft)
04.06.2019 16:52 26,0 °C 47 % 1007,3 hPa 0,0 mm 8,3 km/h (2 Bft) NO 42 ° 0 min 0,000 mm 2,2 UV-I 160 W/m² 13,8 °C 26,0 °C 11,3 km/h (2 Bft)
04.06.2019 16:53 26,0 °C 47 % 1007,3 hPa 0,0 mm 3,9 km/h (1 Bft) NO 53 ° 0 min 0,000 mm 2,2 UV-I 162 W/m² 13,8 °C 26,0 °C 6,4 km/h (2 Bft)
04.06.2019 16:54 26,1 °C 48 % 1007,3 hPa 0,0 mm 10,3 km/h (2 Bft) N-NW 342 ° 0 min 0,000 mm 2,2 UV-I 169 W/m² 14,2 °C 26,1 °C 16,1 km/h (3 Bft)
04.06.2019 16:55 26,1 °C 46 % 1007,3 hPa 0,0 mm 4,2 km/h (1 Bft) NO 54 ° 0 min 0,000 mm 2,2 UV-I 179 W/m² 13,6 °C 26,1 °C 8,0 km/h (2 Bft)
04.06.2019 16:56 26,1 °C 47 % 1007,2 hPa 0,0 mm 3,8 km/h (1 Bft) N-NO 21 ° 0 min 0,000 mm 2,2 UV-I 176 W/m² 13,9 °C 26,1 °C 6,4 km/h (2 Bft)
04.06.2019 16:57 26,2 °C 46 % 1007,3 hPa 0,0 mm 4,7 km/h (1 Bft) O-SO 117 ° 0 min 0,000 mm 2,2 UV-I 179 W/m² 13,6 °C 26,2 °C 11,3 km/h (2 Bft)
04.06.2019 16:58 26,2 °C 46 % 1007,3 hPa 0,0 mm 7,4 km/h (2 Bft) N 360 ° 0 min 0,000 mm 2,2 UV-I 186 W/m² 13,6 °C 26,2 °C 9,7 km/h (2 Bft)
04.06.2019 16:59 26,1 °C 47 % 1007,2 hPa 0,0 mm 6,8 km/h (2 Bft) O-NO 66 ° 0 min 0,000 mm 2,2 UV-I 178 W/m² 13,9 °C 26,1 °C 11,3 km/h (2 Bft)
04.06.2019 17:00 26,1 °C 49 % 1007,2 hPa 0,0 mm 6,5 km/h (2 Bft) NO 55 ° 0 min 0,000 mm 2,2 UV-I 171 W/m² 14,5 °C 26,1 °C 11,3 km/h (2 Bft)
04.06.2019 17:01 26,2 °C 46 % 1007,2 hPa 0,0 mm 5,4 km/h (1 Bft) O-NO 76 ° 0 min 0,178 mm 2,2 UV-I 165 W/m² 13,6 °C 26,2 °C 8,0 km/h (2 Bft)
04.06.2019 17:02 26,1 °C 46 % 1007,2 hPa 0,0 mm 2,7 km/h (1 Bft) O-NO 67 ° 0 min 0,000 mm 2,2 UV-I 162 W/m² 13,6 °C 26,1 °C 4,8 km/h (1 Bft)
04.06.2019 17:03 26,1 °C 46 % 1007,2 hPa 0,0 mm 3,9 km/h (1 Bft) O 79 ° 0 min 0,000 mm 2,2 UV-I 160 W/m² 13,6 °C 26,1 °C 6,4 km/h (2 Bft)
04.06.2019 17:04 26,1 °C 45 % 1007,2 hPa 0,0 mm 6,4 km/h (2 Bft) O 90 ° 0 min 0,000 mm 2,2 UV-I 158 W/m² 13,2 °C 26,1 °C 14,5 km/h (3 Bft)
04.06.2019 17:05 25,9 °C 46 % 1007,2 hPa 0,0 mm 4,8 km/h (1 Bft) NO 36 ° 0 min 0,000 mm 2,2 UV-I 158 W/m² 13,4 °C 25,9 °C 8,0 km/h (2 Bft)
04.06.2019 17:06 25,9 °C 47 % 1007,1 hPa 0,0 mm 9,8 km/h (2 Bft) NO 56 ° 0 min 0,000 mm 2,2 UV-I 158 W/m² 13,7 °C 25,9 °C 16,1 km/h (3 Bft)
04.06.2019 17:07 25,9 °C 47 % 1007,1 hPa 0,0 mm 7,8 km/h (2 Bft) NO 53 ° 0 min 0,000 mm 2,2 UV-I 169 W/m² 13,7 °C 25,9 °C 12,9 km/h (3 Bft)
04.06.2019 17:08 26,1 °C 45 % 1007,1 hPa 0,0 mm 3,9 km/h (1 Bft) O-NO 67 ° 0 min 0,000 mm 2,1 UV-I 156 W/m² 13,2 °C 26,1 °C 4,8 km/h (1 Bft)
04.06.2019 17:09 26,0 °C 46 % 1007,1 hPa 0,0 mm 3,8 km/h (1 Bft) N-NO 28 ° 0 min 0,000 mm 2,1 UV-I 141 W/m² 13,5 °C 26,0 °C 8,0 km/h (2 Bft)
04.06.2019 17:10 26,0 °C 47 % 1007,1 hPa 0,0 mm 3,6 km/h (1 Bft) N-NW 346 ° 0 min 0,000 mm 2,0 UV-I 142 W/m² 13,8 °C 26,0 °C 4,8 km/h (1 Bft)
04.06.2019 17:11 26,0 °C 48 % 1007,1 hPa 0,0 mm 0,9 km/h (0 Bft) N-NO 24 ° 0 min 0,000 mm 2,0 UV-I 153 W/m² 14,1 °C 26,0 °C 3,2 km/h (1 Bft)
04.06.2019 17:12 26,0 °C 48 % 1007,1 hPa 0,0 mm 3,0 km/h (1 Bft) N-NO 24 ° 0 min 0,000 mm 2,0 UV-I 128 W/m² 14,1 °C 26,0 °C 4,8 km/h (1 Bft)
04.06.2019 17:13 25,9 °C 49 % 1007,1 hPa 0,0 mm 1,7 km/h (1 Bft) N-NO 25 ° 0 min 0,000 mm 2,0 UV-I 132 W/m² 14,4 °C 25,9 °C 3,2 km/h (1 Bft)
04.06.2019 17:14 25,9 °C 47 % 1007,1 hPa 0,0 mm 0,5 km/h (0 Bft) N-NO 25 ° 0 min 0,000 mm 2,0 UV-I 135 W/m² 13,7 °C 25,9 °C 1,6 km/h (1 Bft)
04.06.2019 17:15 25,8 °C 50 % 1007,0 hPa 0,0 mm 1,7 km/h (1 Bft) O-NO 69 ° 0 min 0,000 mm 2,0 UV-I 137 W/m² 14,6 °C 25,8 °C 4,8 km/h (1 Bft)
04.06.2019 17:16 25,8 °C 47 % 1007,1 hPa 0,0 mm 4,5 km/h (1 Bft) O-NO 77 ° 0 min 0,000 mm 2,0 UV-I 130 W/m² 13,6 °C 25,8 °C 6,4 km/h (2 Bft)
04.06.2019 17:17 25,8 °C 46 % 1007,1 hPa 0,0 mm 4,3 km/h (1 Bft) O-NO 71 ° 0 min 0,000 mm 2,0 UV-I 114 W/m² 13,3 °C 25,8 °C 8,0 km/h (2 Bft)
04.06.2019 17:18 25,8 °C 47 % 1007,1 hPa 0,0 mm 5,8 km/h (2 Bft) NO 51 ° 0 min 0,000 mm 1,9 UV-I 109 W/m² 13,6 °C 25,8 °C 9,7 km/h (2 Bft)
04.06.2019 17:19 25,8 °C 47 % 1007,0 hPa 0,0 mm 6,7 km/h (2 Bft) O 95 ° 0 min 0,000 mm 1,9 UV-I 111 W/m² 13,6 °C 25,8 °C 12,9 km/h (3 Bft)
04.06.2019 17:20 25,8 °C 46 % 1007,0 hPa 0,0 mm 7,7 km/h (2 Bft) O-NO 69 ° 0 min 0,000 mm 1,8 UV-I 105 W/m² 13,3 °C 25,8 °C 12,9 km/h (3 Bft)
04.06.2019 17:21 25,7 °C 48 % 1007,0 hPa 0,0 mm 5,2 km/h (1 Bft) NO 54 ° 0 min 0,000 mm 1,8 UV-I 102 W/m² 13,9 °C 25,7 °C 9,7 km/h (2 Bft)
04.06.2019 17:22 25,7 °C 45 % 1007,0 hPa 0,0 mm 11,8 km/h (2 Bft) O-NO 69 ° 0 min 0,000 mm 1,8 UV-I 109 W/m² 12,9 °C 25,7 °C 17,7 km/h (3 Bft)
04.06.2019 17:23 25,7 °C 45 % 1007,0 hPa 0,0 mm 9,9 km/h (2 Bft) O-NO 62 ° 0 min 0,000 mm 1,8 UV-I 105 W/m² 12,9 °C 25,7 °C 17,7 km/h (3 Bft)
04.06.2019 17:24 25,7 °C 46 % 1007,0 hPa 0,0 mm 4,0 km/h (1 Bft) O 96 ° 0 min 0,000 mm 1,8 UV-I 116 W/m² 13,2 °C 25,7 °C 6,4 km/h (2 Bft)
04.06.2019 17:25 25,7 °C 46 % 1007,0 hPa 0,0 mm 7,7 km/h (2 Bft) N 360 ° 0 min 0,000 mm 1,9 UV-I 139 W/m² 13,2 °C 25,7 °C 12,9 km/h (3 Bft)
04.06.2019 17:26 25,7 °C 45 % 1006,9 hPa 0,0 mm 4,3 km/h (1 Bft) NO 53 ° 0 min 0,000 mm 1,9 UV-I 162 W/m² 12,9 °C 25,7 °C 6,4 km/h (2 Bft)
04.06.2019 17:27 25,8 °C 46 % 1007,0 hPa 0,0 mm 2,9 km/h (1 Bft) N 9 ° 0 min 0,000 mm 1,8 UV-I 135 W/m² 13,3 °C 25,8 °C 4,8 km/h (1 Bft)
04.06.2019 17:28 25,8 °C 48 % 1007,0 hPa 0,0 mm 5,3 km/h (1 Bft) N-NO 26 ° 0 min 0,000 mm 1,8 UV-I 114 W/m² 13,9 °C 25,8 °C 12,9 km/h (3 Bft)
04.06.2019 17:29 25,8 °C 47 % 1006,9 hPa 0,0 mm 5,6 km/h (1 Bft) NO 34 ° 0 min 0,000 mm 1,8 UV-I 97 W/m² 13,6 °C 25,8 °C 9,7 km/h (2 Bft)
04.06.2019 17:30 25,9 °C 46 % 1007,0 hPa 0,0 mm 7,4 km/h (2 Bft) N-NO 32 ° 0 min 0,000 mm 1,7 UV-I 98 W/m² 13,4 °C 25,9 °C 11,3 km/h (2 Bft)
04.06.2019 17:31 25,9 °C 46 % 1007,0 hPa 0,0 mm 4,9 km/h (1 Bft) O-NO 64 ° 0 min 0,000 mm 1,7 UV-I 98 W/m² 13,4 °C 25,9 °C 8,0 km/h (2 Bft)
04.06.2019 17:32 25,9 °C 48 % 1007,0 hPa 0,0 mm 3,9 km/h (1 Bft) NO 49 ° 0 min 0,000 mm 1,7 UV-I 97 W/m² 14,0 °C 25,9 °C 6,4 km/h (2 Bft)
04.06.2019 17:33 26,0 °C 50 % 1007,0 hPa 0,0 mm 3,8 km/h (1 Bft) N-NO 28 ° 0 min 0,000 mm 1,7 UV-I 97 W/m² 14,8 °C 26,0 °C 6,4 km/h (2 Bft)
04.06.2019 17:34 26,1 °C 48 % 1006,9 hPa 0,0 mm 0,7 km/h (0 Bft) N-NO 28 ° 0 min 0,000 mm 1,7 UV-I 95 W/m² 14,2 °C 26,1 °C 3,2 km/h (1 Bft)
04.06.2019 17:35 26,0 °C 49 % 1007,0 hPa 0,0 mm 1,7 km/h (1 Bft) NO 51 ° 0 min 0,000 mm 1,7 UV-I 91 W/m² 14,4 °C 26,0 °C 4,8 km/h (1 Bft)
04.06.2019 17:36 25,9 °C 48 % 1007,0 hPa 0,0 mm 7,7 km/h (2 Bft) O-NO 67 ° 0 min 0,000 mm 1,7 UV-I 90 W/m² 14,0 °C 25,9 °C 12,9 km/h (3 Bft)
04.06.2019 17:37 25,9 °C 47 % 1006,9 hPa 0,0 mm 6,6 km/h (2 Bft) O-NO 69 ° 0 min 0,000 mm 1,7 UV-I 88 W/m² 13,7 °C 25,9 °C 9,7 km/h (2 Bft)
04.06.2019 17:38 25,9 °C 46 % 1007,0 hPa 0,0 mm 9,5 km/h (2 Bft) N-NO 24 ° 0 min 0,000 mm 1,6 UV-I 88 W/m² 13,4 °C 25,9 °C 16,1 km/h (3 Bft)
04.06.2019 17:39 25,9 °C 46 % 1006,9 hPa 0,0 mm 7,5 km/h (2 Bft) NO 41 ° 0 min 0,000 mm 1,6 UV-I 93 W/m² 13,4 °C 25,9 °C 11,3 km/h (2 Bft)
04.06.2019 17:40 25,9 °C 46 % 1007,0 hPa 0,0 mm 4,5 km/h (1 Bft) NO 50 ° 0 min 0,000 mm 1,6 UV-I 113 W/m² 13,4 °C 25,9 °C 6,4 km/h (2 Bft)
04.06.2019 17:41 25,9 °C 46 % 1006,9 hPa 0,0 mm 4,2 km/h (1 Bft) O-NO 65 ° 0 min 0,000 mm 1,6 UV-I 91 W/m² 13,4 °C 25,9 °C 9,7 km/h (2 Bft)
04.06.2019 17:42 26,0 °C 46 % 1006,9 hPa 0,0 mm 5,0 km/h (1 Bft) NO 50 ° 0 min 0,000 mm 1,6 UV-I 93 W/m² 13,5 °C 26,0 °C 11,3 km/h (2 Bft)
04.06.2019 17:43 26,0 °C 47 % 1006,9 hPa 0,0 mm 7,8 km/h (2 Bft) O-NO 64 ° 0 min 0,000 mm 1,6 UV-I 102 W/m² 13,8 °C 26,0 °C 16,1 km/h (3 Bft)
04.06.2019 17:44 25,9 °C 45 % 1006,9 hPa 0,0 mm 9,8 km/h (2 Bft) O-NO 77 ° 0 min 0,000 mm 1,6 UV-I 118 W/m² 13,0 °C 25,9 °C 12,9 km/h (3 Bft)
04.06.2019 17:45 25,9 °C 46 % 1006,9 hPa 0,0 mm 9,9 km/h (2 Bft) O-NO 67 ° 0 min 0,000 mm 1,6 UV-I 135 W/m² 13,4 °C 25,9 °C 14,5 km/h (3 Bft)
04.06.2019 17:46 25,8 °C 45 % 1007,0 hPa 0,0 mm 13,6 km/h (3 Bft) O 97 ° 0 min 0,000 mm 1,6 UV-I 116 W/m² 13,0 °C 25,8 °C 16,1 km/h (3 Bft)
04.06.2019 17:47 25,8 °C 46 % 1007,0 hPa 0,0 mm 8,5 km/h (2 Bft) NO 49 ° 0 min 0,000 mm 1,6 UV-I 104 W/m² 13,3 °C 25,8 °C 14,5 km/h (3 Bft)
04.06.2019 17:48 25,8 °C 46 % 1007,0 hPa 0,0 mm 4,0 km/h (1 Bft) NO 45 ° 0 min 0,000 mm 1,5 UV-I 83 W/m² 13,3 °C 25,8 °C 6,4 km/h (2 Bft)
04.06.2019 17:49 25,7 °C 46 % 1007,0 hPa 0,0 mm 6,4 km/h (2 Bft) NO 55 ° 0 min 0,000 mm 1,5 UV-I 83 W/m² 13,2 °C 25,7 °C 8,0 km/h (2 Bft)
04.06.2019 17:50 25,8 °C 46 % 1006,9 hPa 0,0 mm 1,6 km/h (1 Bft) N 351 ° 0 min 0,000 mm 1,5 UV-I 83 W/m² 13,3 °C 25,8 °C 4,8 km/h (1 Bft)
04.06.2019 17:51 25,8 °C 46 % 1006,9 hPa 0,0 mm 3,4 km/h (1 Bft) NO 49 ° 0 min 0,000 mm 1,5 UV-I 83 W/m² 13,3 °C 25,8 °C 4,8 km/h (1 Bft)
04.06.2019 17:52 25,8 °C 46 % 1006,9 hPa 0,0 mm 2,4 km/h (1 Bft) N-NO 25 ° 0 min 0,000 mm 1,5 UV-I 88 W/m² 13,3 °C 25,8 °C 4,8 km/h (1 Bft)
04.06.2019 17:53 25,8 °C 46 % 1006,9 hPa 0,0 mm 3,6 km/h (1 Bft) NO 36 ° 0 min 0,000 mm 1,5 UV-I 86 W/m² 13,3 °C 25,8 °C 6,4 km/h (2 Bft)
04.06.2019 17:54 25,8 °C 47 % 1006,9 hPa 0,0 mm 3,8 km/h (1 Bft) NO 55 ° 0 min 0,000 mm 1,5 UV-I 84 W/m² 13,6 °C 25,8 °C 8,0 km/h (2 Bft)
04.06.2019 17:55 25,8 °C 47 % 1007,0 hPa 0,0 mm 7,0 km/h (2 Bft) N-NO 22 ° 0 min 0,000 mm 1,5 UV-I 84 W/m² 13,6 °C 25,8 °C 11,3 km/h (2 Bft)
04.06.2019 17:56 25,8 °C 47 % 1006,9 hPa 0,0 mm 3,2 km/h (1 Bft) NO 42 ° 0 min 0,000 mm 1,5 UV-I 83 W/m² 13,6 °C 25,8 °C 6,4 km/h (2 Bft)
04.06.2019 17:57 25,9 °C 48 % 1006,9 hPa 0,0 mm 3,6 km/h (1 Bft) NO 55 ° 0 min 0,000 mm 1,5 UV-I 81 W/m² 14,0 °C 25,9 °C 6,4 km/h (2 Bft)
04.06.2019 17:58 25,9 °C 46 % 1007,0 hPa 0,0 mm 3,4 km/h (1 Bft) NO 43 ° 0 min 0,000 mm 1,5 UV-I 81 W/m² 13,4 °C 25,9 °C 6,4 km/h (2 Bft)
04.06.2019 17:59 25,9 °C 48 % 1007,0 hPa 0,0 mm 3,9 km/h (1 Bft) NO 37 ° 0 min 0,000 mm 1,4 UV-I 83 W/m² 14,0 °C 25,9 °C 6,4 km/h (2 Bft)
04.06.2019 18:00 25,9 °C 50 % 1006,9 hPa 0,0 mm 3,7 km/h (1 Bft) NO 54 ° 0 min 0,000 mm 1,5 UV-I 90 W/m² 14,7 °C 25,9 °C 6,4 km/h (2 Bft)
04.06.2019 18:01 25,9 °C 46 % 1006,9 hPa 0,0 mm 2,7 km/h (1 Bft) NO 55 ° 0 min 0,127 mm 1,4 UV-I 79 W/m² 13,4 °C 25,9 °C 4,8 km/h (1 Bft)
04.06.2019 18:02 25,8 °C 47 % 1006,9 hPa 0,0 mm 7,1 km/h (2 Bft) SO 130 ° 0 min 0,000 mm 1,4 UV-I 83 W/m² 13,6 °C 25,8 °C 11,3 km/h (2 Bft)
04.06.2019 18:03 25,8 °C 46 % 1006,9 hPa 0,0 mm 5,8 km/h (2 Bft) O-SO 122 ° 0 min 0,000 mm 1,4 UV-I 153 W/m² 13,3 °C 25,8 °C 8,0 km/h (2 Bft)
04.06.2019 18:04 25,7 °C 46 % 1006,9 hPa 0,0 mm 3,1 km/h (1 Bft) O 88 ° 0 min 0,000 mm 1,4 UV-I 91 W/m² 13,2 °C 25,7 °C 4,8 km/h (1 Bft)
04.06.2019 18:05 25,7 °C 46 % 1006,9 hPa 0,0 mm 5,2 km/h (1 Bft) O-NO 70 ° 0 min 0,000 mm 1,4 UV-I 88 W/m² 13,2 °C 25,7 °C 8,0 km/h (2 Bft)
04.06.2019 18:06 25,7 °C 47 % 1006,9 hPa 0,0 mm 3,1 km/h (1 Bft) O-NO 69 ° 0 min 0,000 mm 1,4 UV-I 81 W/m² 13,5 °C 25,7 °C 4,8 km/h (1 Bft)
04.06.2019 18:07 25,7 °C 48 % 1006,9 hPa 0,0 mm 6,7 km/h (2 Bft) O-NO 76 ° 0 min 0,000 mm 1,4 UV-I 81 W/m² 13,9 °C 25,7 °C 11,3 km/h (2 Bft)
04.06.2019 18:08 25,7 °C 47 % 1006,9 hPa 0,0 mm 11,5 km/h (2 Bft) O-NO 76 ° 0 min 0,000 mm 1,4 UV-I 79 W/m² 13,5 °C 25,7 °C 16,1 km/h (3 Bft)
04.06.2019 18:09 25,6 °C 46 % 1006,9 hPa 0,0 mm 4,5 km/h (1 Bft) NO 49 ° 0 min 0,000 mm 1,3 UV-I 79 W/m² 13,1 °C 25,6 °C 6,4 km/h (2 Bft)
04.06.2019 18:10 25,6 °C 46 % 1006,9 hPa 0,0 mm 5,5 km/h (1 Bft) O 98 ° 0 min 0,000 mm 1,3 UV-I 81 W/m² 13,1 °C 25,6 °C 11,3 km/h (2 Bft)
04.06.2019 18:11 25,7 °C 48 % 1006,9 hPa 0,0 mm 8,9 km/h (2 Bft) N-NO 28 ° 0 min 0,000 mm 1,3 UV-I 83 W/m² 13,9 °C 25,7 °C 14,5 km/h (3 Bft)
04.06.2019 18:12 25,7 °C 45 % 1006,9 hPa 0,0 mm 7,2 km/h (2 Bft) O-NO 69 ° 0 min 0,000 mm 1,3 UV-I 79 W/m² 12,9 °C 25,7 °C 12,9 km/h (3 Bft)
04.06.2019 18:13 25,8 °C 46 % 1006,9 hPa 0,0 mm 3,4 km/h (1 Bft) NO 50 ° 0 min 0,000 mm 1,3 UV-I 79 W/m² 13,3 °C 25,8 °C 6,4 km/h (2 Bft)
04.06.2019 18:14 25,8 °C 46 % 1006,9 hPa 0,0 mm 4,8 km/h (1 Bft) NO 54 ° 0 min 0,000 mm 1,3 UV-I 79 W/m² 13,3 °C 25,8 °C 8,0 km/h (2 Bft)
04.06.2019 18:15 25,8 °C 46 % 1006,9 hPa 0,0 mm 9,6 km/h (2 Bft) O-NO 59 ° 0 min 0,000 mm 1,3 UV-I 81 W/m² 13,3 °C 25,8 °C 17,7 km/h (3 Bft)
04.06.2019 18:16 25,8 °C 46 % 1006,9 hPa 0,0 mm 5,4 km/h (1 Bft) O-NO 65 ° 0 min 0,000 mm 1,3 UV-I 90 W/m² 13,3 °C 25,8 °C 9,7 km/h (2 Bft)
04.06.2019 18:17 25,8 °C 47 % 1006,9 hPa 0,0 mm 1,8 km/h (1 Bft) O-NO 65 ° 0 min 0,000 mm 1,3 UV-I 88 W/m² 13,6 °C 25,8 °C 4,8 km/h (1 Bft)
04.06.2019 18:18 25,8 °C 47 % 1006,9 hPa 0,0 mm 1,5 km/h (1 Bft) O-NO 61 ° 0 min 0,000 mm 1,3 UV-I 81 W/m² 13,6 °C 25,8 °C 3,2 km/h (1 Bft)
04.06.2019 18:19 25,8 °C 49 % 1006,8 hPa 0,0 mm 1,4 km/h (1 Bft) O-NO 67 ° 0 min 0,000 mm 1,2 UV-I 83 W/m² 14,3 °C 25,8 °C 4,8 km/h (1 Bft)
04.06.2019 18:20 25,7 °C 48 % 1006,9 hPa 0,0 mm 4,4 km/h (1 Bft) NO 47 ° 0 min 0,000 mm 1,2 UV-I 81 W/m² 13,9 °C 25,7 °C 6,4 km/h (2 Bft)
04.06.2019 18:21 25,7 °C 48 % 1006,8 hPa 0,0 mm 2,3 km/h (1 Bft) O 86 ° 0 min 0,000 mm 1,2 UV-I 81 W/m² 13,9 °C 25,7 °C 4,8 km/h (1 Bft)
04.06.2019 18:22 25,7 °C 47 % 1006,8 hPa 0,0 mm 2,9 km/h (1 Bft) O 84 ° 0 min 0,000 mm 1,2 UV-I 93 W/m² 13,5 °C 25,7 °C 4,8 km/h (1 Bft)
04.06.2019 18:23 25,7 °C 48 % 1006,9 hPa 0,0 mm 2,1 km/h (1 Bft) O 84 ° 0 min 0,000 mm 1,2 UV-I 114 W/m² 13,9 °C 25,7 °C 4,8 km/h (1 Bft)
04.06.2019 18:24 25,7 °C 49 % 1006,9 hPa 0,0 mm 4,5 km/h (1 Bft) O-SO 103 ° 0 min 0,000 mm 1,2 UV-I 116 W/m² 14,2 °C 25,7 °C 6,4 km/h (2 Bft)
04.06.2019 18:25 25,6 °C 52 % 1006,9 hPa 0,0 mm 5,8 km/h (2 Bft) O-NO 58 ° 0 min 0,000 mm 1,2 UV-I 135 W/m² 15,0 °C 25,6 °C 9,7 km/h (2 Bft)
04.06.2019 18:26 25,5 °C 53 % 1006,9 hPa 0,0 mm 3,8 km/h (1 Bft) O-NO 78 ° 0 min 0,000 mm 1,2 UV-I 149 W/m² 15,2 °C 25,5 °C 8,0 km/h (2 Bft)
04.06.2019 18:27 25,5 °C 48 % 1006,9 hPa 0,0 mm 3,2 km/h (1 Bft) NO 54 ° 0 min 0,000 mm 1,2 UV-I 125 W/m² 13,7 °C 25,5 °C 9,7 km/h (2 Bft)
04.06.2019 18:28 25,5 °C 48 % 1006,9 hPa 0,0 mm 6,1 km/h (2 Bft) O-NO 70 ° 0 min 0,000 mm 1,4 UV-I 200 W/m² 13,7 °C 25,5 °C 9,7 km/h (2 Bft)
04.06.2019 18:29 25,6 °C 48 % 1006,8 hPa 0,0 mm 5,4 km/h (1 Bft) O 84 ° 0 min 0,000 mm 1,4 UV-I 278 W/m² 13,8 °C 25,6 °C 8,0 km/h (2 Bft)
04.06.2019 18:30 25,6 °C 47 % 1006,9 hPa 0,0 mm 4,9 km/h (1 Bft) O 98 ° 0 min 0,000 mm 1,4 UV-I 271 W/m² 13,4 °C 25,6 °C 6,4 km/h (2 Bft)
04.06.2019 18:31 25,6 °C 47 % 1006,9 hPa 0,0 mm 3,3 km/h (1 Bft) O-NO 68 ° 0 min 0,000 mm 1,4 UV-I 308 W/m² 13,4 °C 25,6 °C 6,4 km/h (2 Bft)
04.06.2019 18:32 25,6 °C 51 % 1006,8 hPa 0,0 mm 2,7 km/h (1 Bft) O-NO 74 ° 0 min 0,000 mm 1,4 UV-I 302 W/m² 14,7 °C 25,6 °C 4,8 km/h (1 Bft)
04.06.2019 18:33 25,6 °C 49 % 1006,8 hPa 0,0 mm 1,5 km/h (1 Bft) O-NO 67 ° 0 min 0,000 mm 1,3 UV-I 176 W/m² 14,1 °C 25,6 °C 4,8 km/h (1 Bft)
04.06.2019 18:34 25,5 °C 51 % 1006,9 hPa 0,0 mm 2,9 km/h (1 Bft) O-NO 63 ° 0 min 0,000 mm 1,2 UV-I 123 W/m² 14,6 °C 25,5 °C 4,8 km/h (1 Bft)
04.06.2019 18:35 25,5 °C 49 % 1006,9 hPa 0,0 mm 1,6 km/h (1 Bft) O-NO 63 ° 0 min 0,000 mm 1,1 UV-I 123 W/m² 14,0 °C 25,5 °C 3,2 km/h (1 Bft)
04.06.2019 18:36 25,5 °C 51 % 1006,8 hPa 0,0 mm 2,0 km/h (1 Bft) O-NO 63 ° 0 min 0,000 mm 1,1 UV-I 105 W/m² 14,6 °C 25,5 °C 3,2 km/h (1 Bft)
04.06.2019 18:37 25,5 °C 49 % 1006,8 hPa 0,0 mm 3,5 km/h (1 Bft) NO 55 ° 0 min 0,000 mm 1,1 UV-I 83 W/m² 14,0 °C 25,5 °C 8,0 km/h (2 Bft)
04.06.2019 18:38 25,5 °C 54 % 1006,9 hPa 0,0 mm 2,7 km/h (1 Bft) O 85 ° 0 min 0,000 mm 1,2 UV-I 90 W/m² 15,5 °C 25,5 °C 3,2 km/h (1 Bft)
04.06.2019 18:39 25,4 °C 51 % 1006,9 hPa 0,0 mm 3,9 km/h (1 Bft) O-NO 77 ° 0 min 0,000 mm 1,2 UV-I 95 W/m² 14,5 °C 25,4 °C 6,4 km/h (2 Bft)
04.06.2019 18:40 25,4 °C 49 % 1006,9 hPa 0,0 mm 3,9 km/h (1 Bft) NO 44 ° 0 min 0,000 mm 1,2 UV-I 90 W/m² 13,9 °C 25,4 °C 6,4 km/h (2 Bft)
04.06.2019 18:41 25,4 °C 50 % 1006,8 hPa 0,0 mm 4,4 km/h (1 Bft) O-NO 73 ° 0 min 0,000 mm 1,2 UV-I 121 W/m² 14,2 °C 25,4 °C 6,4 km/h (2 Bft)
04.06.2019 18:42 25,4 °C 49 % 1006,8 hPa 0,0 mm 2,7 km/h (1 Bft) O 80 ° 0 min 0,000 mm 1,2 UV-I 169 W/m² 13,9 °C 25,4 °C 4,8 km/h (1 Bft)
04.06.2019 18:43 25,5 °C 51 % 1006,8 hPa 0,0 mm 1,9 km/h (1 Bft) O 88 ° 0 min 0,000 mm 1,2 UV-I 207 W/m² 14,6 °C 25,5 °C 4,8 km/h (1 Bft)
04.06.2019 18:44 25,4 °C 49 % 1006,8 hPa 0,0 mm 3,0 km/h (1 Bft) O-NO 70 ° 0 min 0,000 mm 1,2 UV-I 227 W/m² 13,9 °C 25,4 °C 8,0 km/h (2 Bft)
04.06.2019 18:45 25,4 °C 48 % 1006,8 hPa 0,0 mm 4,2 km/h (1 Bft) NO 40 ° 0 min 0,000 mm 1,1 UV-I 95 W/m² 13,6 °C 25,4 °C 8,0 km/h (2 Bft)
04.06.2019 18:46 25,4 °C 47 % 1006,8 hPa 0,0 mm 6,7 km/h (2 Bft) O-NO 75 ° 0 min 0,000 mm 1,1 UV-I 135 W/m² 13,3 °C 25,4 °C 11,3 km/h (2 Bft)
04.06.2019 18:47 25,4 °C 48 % 1006,9 hPa 0,0 mm 1,4 km/h (1 Bft) O-NO 75 ° 0 min 0,000 mm 1,1 UV-I 97 W/m² 13,6 °C 25,4 °C 3,2 km/h (1 Bft)
04.06.2019 18:48 25,4 °C 49 % 1006,9 hPa 0,0 mm 2,2 km/h (1 Bft) O-NO 75 ° 0 min 0,000 mm 1,1 UV-I 91 W/m² 13,9 °C 25,4 °C 4,8 km/h (1 Bft)
04.06.2019 18:49 25,4 °C 48 % 1006,9 hPa 0,0 mm 2,8 km/h (1 Bft) O-NO 75 ° 0 min 0,000 mm 1,1 UV-I 104 W/m² 13,6 °C 25,4 °C 4,8 km/h (1 Bft)
04.06.2019 18:50 25,3 °C 51 % 1006,8 hPa 0,0 mm 1,0 km/h (0 Bft) O-NO 75 ° 0 min 0,000 mm 1,1 UV-I 132 W/m² 14,4 °C 25,3 °C 4,8 km/h (1 Bft)
04.06.2019 18:51 25,3 °C 50 % 1006,9 hPa 0,0 mm 2,1 km/h (1 Bft) O-NO 62 ° 0 min 0,000 mm 1,1 UV-I 88 W/m² 14,1 °C 25,3 °C 3,2 km/h (1 Bft)
04.06.2019 18:52 25,2 °C 52 % 1006,8 hPa 0,0 mm 0,2 km/h (0 Bft) O-NO 62 ° 0 min 0,000 mm 1,0 UV-I 88 W/m² 14,6 °C 25,2 °C 1,6 km/h (1 Bft)
04.06.2019 18:53 25,2 °C 52 % 1006,8 hPa 0,0 mm 6,2 km/h (2 Bft) NO 55 ° 0 min 0,000 mm 1,1 UV-I 132 W/m² 14,6 °C 25,2 °C 9,7 km/h (2 Bft)
04.06.2019 18:54 25,2 °C 50 % 1006,9 hPa 0,0 mm 5,7 km/h (1 Bft) NO 51 ° 0 min 0,000 mm 1,0 UV-I 192 W/m² 14,0 °C 25,2 °C 9,7 km/h (2 Bft)
04.06.2019 18:55 25,3 °C 49 % 1006,8 hPa 0,0 mm 3,5 km/h (1 Bft) O-SO 119 ° 0 min 0,000 mm 1,0 UV-I 223 W/m² 13,8 °C 25,3 °C 8,0 km/h (2 Bft)
04.06.2019 18:56 25,3 °C 48 % 1006,9 hPa 0,0 mm 2,7 km/h (1 Bft) O-NO 58 ° 0 min 0,000 mm 1,0 UV-I 223 W/m² 13,5 °C 25,3 °C 6,4 km/h (2 Bft)
04.06.2019 18:57 25,3 °C 48 % 1006,9 hPa 0,0 mm 4,9 km/h (1 Bft) N-NO 29 ° 0 min 0,000 mm 1,0 UV-I 225 W/m² 13,5 °C 25,3 °C 9,7 km/h (2 Bft)
04.06.2019 18:58 25,3 °C 47 % 1006,9 hPa 0,0 mm 6,3 km/h (2 Bft) N-NW 340 ° 0 min 0,000 mm 1,0 UV-I 230 W/m² 13,2 °C 25,3 °C 9,7 km/h (2 Bft)
04.06.2019 18:59 25,4 °C 47 % 1006,8 hPa 0,0 mm 5,2 km/h (1 Bft) O 80 ° 0 min 0,000 mm 1,0 UV-I 229 W/m² 13,3 °C 25,4 °C 8,0 km/h (2 Bft)
04.06.2019 19:00 25,4 °C 50 % 1006,8 hPa 0,0 mm 4,6 km/h (1 Bft) O 92 ° 0 min 0,000 mm 1,0 UV-I 207 W/m² 14,2 °C 25,4 °C 6,4 km/h (2 Bft)
04.06.2019 19:01 25,4 °C 48 % 1006,8 hPa 0,0 mm 4,6 km/h (1 Bft) O 90 ° 0 min 0,127 mm 0,9 UV-I 206 W/m² 13,6 °C 25,4 °C 9,7 km/h (2 Bft)
04.06.2019 19:02 25,3 °C 49 % 1006,7 hPa 0,0 mm 2,5 km/h (1 Bft) O 92 ° 0 min 0,000 mm 0,9 UV-I 163 W/m² 13,8 °C 25,3 °C 3,2 km/h (1 Bft)
04.06.2019 19:03 25,3 °C 49 % 1006,8 hPa 0,0 mm 7,6 km/h (2 Bft) NO 51 ° 0 min 0,000 mm 0,9 UV-I 104 W/m² 13,8 °C 25,3 °C 9,7 km/h (2 Bft)
04.06.2019 19:04 25,2 °C 50 % 1006,8 hPa 0,0 mm 4,8 km/h (1 Bft) O-NO 71 ° 0 min 0,000 mm 0,8 UV-I 79 W/m² 14,0 °C 25,2 °C 8,0 km/h (2 Bft)
04.06.2019 19:05 25,2 °C 49 % 1006,7 hPa 0,0 mm 4,5 km/h (1 Bft) O 81 ° 0 min 0,000 mm 0,8 UV-I 70 W/m² 13,7 °C 25,2 °C 8,0 km/h (2 Bft)
04.06.2019 19:06 25,2 °C 49 % 1006,8 hPa 0,0 mm 5,4 km/h (1 Bft) O 88 ° 0 min 0,000 mm 0,8 UV-I 70 W/m² 13,7 °C 25,2 °C 11,3 km/h (2 Bft)
04.06.2019 19:07 25,1 °C 49 % 1006,7 hPa 0,0 mm 5,0 km/h (1 Bft) NO 36 ° 0 min 0,000 mm 0,8 UV-I 70 W/m² 13,6 °C 25,1 °C 12,9 km/h (3 Bft)
04.06.2019 19:08 25,1 °C 49 % 1006,7 hPa 0,0 mm 2,3 km/h (1 Bft) NO 34 ° 0 min 0,000 mm 0,8 UV-I 88 W/m² 13,6 °C 25,1 °C 4,8 km/h (1 Bft)
04.06.2019 19:09 25,1 °C 49 % 1006,7 hPa 0,0 mm 4,3 km/h (1 Bft) O-NO 74 ° 0 min 0,000 mm 0,8 UV-I 155 W/m² 13,6 °C 25,1 °C 6,4 km/h (2 Bft)
04.06.2019 19:10 25,1 °C 48 % 1006,8 hPa 0,0 mm 3,9 km/h (1 Bft) O 82 ° 0 min 0,000 mm 0,8 UV-I 123 W/m² 13,3 °C 25,1 °C 6,4 km/h (2 Bft)
04.06.2019 19:11 25,1 °C 48 % 1006,7 hPa 0,0 mm 2,1 km/h (1 Bft) O-NO 58 ° 0 min 0,000 mm 0,8 UV-I 102 W/m² 13,3 °C 25,1 °C 4,8 km/h (1 Bft)
04.06.2019 19:12 25,0 °C 51 % 1006,8 hPa 0,0 mm 1,9 km/h (1 Bft) O-NO 59 ° 0 min 0,000 mm 0,8 UV-I 111 W/m² 14,1 °C 25,0 °C 4,8 km/h (1 Bft)
04.06.2019 19:13 24,9 °C 49 % 1006,8 hPa 0,0 mm 4,7 km/h (1 Bft) SO 136 ° 0 min 0,000 mm 0,8 UV-I 151 W/m² 13,4 °C 24,9 °C 6,4 km/h (2 Bft)
04.06.2019 19:14 24,9 °C 49 % 1006,8 hPa 0,0 mm 3,1 km/h (1 Bft) O-SO 114 ° 0 min 0,000 mm 0,8 UV-I 185 W/m² 13,4 °C 24,9 °C 6,4 km/h (2 Bft)
04.06.2019 19:15 24,8 °C 50 % 1006,8 hPa 0,0 mm 3,8 km/h (1 Bft) O-SO 109 ° 0 min 0,000 mm 0,8 UV-I 183 W/m² 13,7 °C 24,8 °C 4,8 km/h (1 Bft)
04.06.2019 19:16 24,8 °C 49 % 1006,8 hPa 0,0 mm 0,2 km/h (0 Bft) O-SO 109 ° 0 min 0,000 mm 0,8 UV-I 179 W/m² 13,3 °C 24,8 °C 1,6 km/h (1 Bft)
04.06.2019 19:17 24,9 °C 49 % 1006,8 hPa 0,0 mm 0,1 km/h (0 Bft) O-SO 107 ° 0 min 0,000 mm 0,7 UV-I 178 W/m² 13,4 °C 24,9 °C 3,2 km/h (1 Bft)
04.06.2019 19:18 24,9 °C 53 % 1006,9 hPa 0,0 mm 2,8 km/h (1 Bft) O-NO 69 ° 0 min 0,000 mm 0,7 UV-I 176 W/m² 14,6 °C 24,9 °C 4,8 km/h (1 Bft)
04.06.2019 19:19 24,8 °C 51 % 1006,9 hPa 0,0 mm 3,3 km/h (1 Bft) O-NO 65 ° 0 min 0,000 mm 0,7 UV-I 172 W/m² 14,0 °C 24,8 °C 4,8 km/h (1 Bft)
04.06.2019 19:20 24,7 °C 53 % 1006,9 hPa 0,0 mm 0,3 km/h (0 Bft) O-NO 65 ° 0 min 0,000 mm 0,7 UV-I 171 W/m² 14,5 °C 24,7 °C 1,6 km/h (1 Bft)
04.06.2019 19:21 24,8 °C 52 % 1006,9 hPa 0,0 mm 3,0 km/h (1 Bft) O 99 ° 0 min 0,000 mm 0,7 UV-I 167 W/m² 14,3 °C 24,8 °C 6,4 km/h (2 Bft)
04.06.2019 19:22 24,7 °C 52 % 1006,9 hPa 0,0 mm 1,1 km/h (1 Bft) O 94 ° 0 min 0,000 mm 0,7 UV-I 163 W/m² 14,2 °C 24,7 °C 3,2 km/h (1 Bft)
04.06.2019 19:23 24,7 °C 52 % 1006,9 hPa 0,0 mm 0,5 km/h (0 Bft) O 85 ° 0 min 0,000 mm 0,7 UV-I 162 W/m² 14,2 °C 24,7 °C 1,6 km/h (1 Bft)
04.06.2019 19:24 24,7 °C 53 % 1006,9 hPa 0,0 mm 1,5 km/h (1 Bft) O 79 ° 0 min 0,000 mm 0,7 UV-I 158 W/m² 14,5 °C 24,7 °C 3,2 km/h (1 Bft)
04.06.2019 19:25 24,6 °C 52 % 1006,9 hPa 0,0 mm 1,4 km/h (1 Bft) O-NO 61 ° 0 min 0,000 mm 0,7 UV-I 156 W/m² 14,1 °C 24,6 °C 4,8 km/h (1 Bft)
04.06.2019 19:26 24,6 °C 52 % 1006,8 hPa 0,0 mm 2,6 km/h (1 Bft) O-NO 61 ° 0 min 0,000 mm 0,7 UV-I 151 W/m² 14,1 °C 24,6 °C 4,8 km/h (1 Bft)
04.06.2019 19:27 24,7 °C 53 % 1006,9 hPa 0,0 mm 1,7 km/h (1 Bft) O-NO 62 ° 0 min 0,000 mm 0,6 UV-I 149 W/m² 14,5 °C 24,7 °C 3,2 km/h (1 Bft)
04.06.2019 19:28 24,7 °C 51 % 1006,8 hPa 0,0 mm 2,1 km/h (1 Bft) O-NO 62 ° 0 min 0,000 mm 0,6 UV-I 148 W/m² 13,9 °C 24,7 °C 3,2 km/h (1 Bft)
04.06.2019 19:29 24,6 °C 53 % 1006,8 hPa 0,0 mm 3,8 km/h (1 Bft) O-NO 57 ° 0 min 0,000 mm 0,6 UV-I 144 W/m² 14,4 °C 24,6 °C 8,0 km/h (2 Bft)
04.06.2019 19:30 24,5 °C 53 % 1006,8 hPa 0,0 mm 4,7 km/h (1 Bft) NO 51 ° 0 min 0,000 mm 0,6 UV-I 142 W/m² 14,3 °C 24,5 °C 8,0 km/h (2 Bft)
04.06.2019 19:31 24,4 °C 54 % 1006,9 hPa 0,0 mm 2,5 km/h (1 Bft) O-SO 117 ° 0 min 0,000 mm 0,6 UV-I 139 W/m² 14,5 °C 24,4 °C 3,2 km/h (1 Bft)
04.06.2019 19:32 24,3 °C 56 % 1006,8 hPa 0,0 mm 2,1 km/h (1 Bft) O-NO 64 ° 0 min 0,000 mm 0,6 UV-I 137 W/m² 14,9 °C 24,3 °C 6,4 km/h (2 Bft)
04.06.2019 19:33 24,3 °C 55 % 1006,8 hPa 0,0 mm 1,9 km/h (1 Bft) O 87 ° 0 min 0,000 mm 0,6 UV-I 135 W/m² 14,7 °C 24,3 °C 4,8 km/h (1 Bft)
04.06.2019 19:34 24,3 °C 54 % 1006,8 hPa 0,0 mm 0,9 km/h (0 Bft) O 87 ° 0 min 0,000 mm 0,6 UV-I 134 W/m² 14,4 °C 24,3 °C 1,6 km/h (1 Bft)
04.06.2019 19:35 24,2 °C 54 % 1006,9 hPa 0,0 mm 0,1 km/h (0 Bft) O 86 ° 0 min 0,000 mm 0,6 UV-I 130 W/m² 14,3 °C 24,2 °C 1,6 km/h (1 Bft)
04.06.2019 19:36 24,2 °C 54 % 1006,8 hPa 0,0 mm 1,3 km/h (1 Bft) NO 48 ° 0 min 0,000 mm 0,6 UV-I 128 W/m² 14,3 °C 24,2 °C 4,8 km/h (1 Bft)
04.06.2019 19:37 24,2 °C 56 % 1006,8 hPa 0,0 mm 4,5 km/h (1 Bft) O-NO 68 ° 0 min 0,000 mm 0,5 UV-I 127 W/m² 14,9 °C 24,2 °C 8,0 km/h (2 Bft)
04.06.2019 19:38 24,1 °C 53 % 1006,8 hPa 0,0 mm 0,2 km/h (0 Bft) O-NO 68 ° 0 min 0,000 mm 0,5 UV-I 121 W/m² 13,9 °C 24,1 °C 1,6 km/h (1 Bft)
04.06.2019 19:39 24,1 °C 55 % 1006,9 hPa 0,0 mm 1,7 km/h (1 Bft) O-NO 68 ° 0 min 0,000 mm 0,5 UV-I 118 W/m² 14,5 °C 24,1 °C 3,2 km/h (1 Bft)
04.06.2019 19:40 23,9 °C 61 % 1006,8 hPa 0,0 mm 0,7 km/h (0 Bft) O-NO 68 ° 0 min 0,000 mm 0,5 UV-I 116 W/m² 15,9 °C 23,9 °C 1,6 km/h (1 Bft)
04.06.2019 19:41 23,7 °C 57 % 1006,9 hPa 0,0 mm 0,9 km/h (0 Bft) O-NO 68 ° 0 min 0,000 mm 0,5 UV-I 113 W/m² 14,7 °C 23,7 °C 1,6 km/h (1 Bft)
04.06.2019 19:42 23,6 °C 60 % 1006,9 hPa 0,0 mm 0,6 km/h (0 Bft) O-NO 67 ° 0 min 0,000 mm 0,5 UV-I 111 W/m² 15,4 °C 23,6 °C 1,6 km/h (1 Bft)
04.06.2019 19:43 23,4 °C 62 % 1006,8 hPa 0,0 mm 1,8 km/h (1 Bft) O-NO 68 ° 0 min 0,000 mm 0,5 UV-I 67 W/m² 15,7 °C 23,4 °C 3,2 km/h (1 Bft)
04.06.2019 19:44 23,4 °C 58 % 1006,9 hPa 0,0 mm 0,4 km/h (0 Bft) O-NO 68 ° 0 min 0,000 mm 0,5 UV-I 67 W/m² 14,7 °C 23,4 °C 3,2 km/h (1 Bft)
04.06.2019 19:45 23,2 °C 62 % 1006,9 hPa 0,0 mm 0,9 km/h (0 Bft) O-NO 68 ° 0 min 0,000 mm 0,5 UV-I 79 W/m² 15,5 °C 23,2 °C 3,2 km/h (1 Bft)
04.06.2019 19:46 23,2 °C 60 % 1006,9 hPa 0,0 mm 0,0 km/h (0 Bft) O-NO 68 ° 0 min 0,000 mm 0,5 UV-I 58 W/m² 15,0 °C 23,2 °C 0,0 km/h (0 Bft)
04.06.2019 19:47 23,2 °C 62 % 1006,9 hPa 0,0 mm 1,2 km/h (1 Bft) O-NO 68 ° 0 min 0,000 mm 0,0 UV-I 60 W/m² 15,5 °C 23,2 °C 3,2 km/h (1 Bft)
04.06.2019 19:48 23,2 °C 58 % 1006,9 hPa 0,0 mm 1,2 km/h (1 Bft) O 81 ° 0 min 0,000 mm 0,0 UV-I 84 W/m² 14,5 °C 23,2 °C 3,2 km/h (1 Bft)
04.06.2019 19:49 23,1 °C 64 % 1006,9 hPa 0,0 mm 0,9 km/h (0 Bft) O 90 ° 0 min 0,000 mm 0,0 UV-I 60 W/m² 15,9 °C 23,1 °C 3,2 km/h (1 Bft)
04.06.2019 19:50 23,0 °C 59 % 1006,9 hPa 0,0 mm 1,2 km/h (1 Bft) O 90 ° 0 min 0,000 mm 0,0 UV-I 88 W/m² 14,5 °C 23,0 °C 3,2 km/h (1 Bft)
04.06.2019 19:51 22,9 °C 60 % 1006,8 hPa 0,0 mm 0,7 km/h (0 Bft) O 90 ° 0 min 0,000 mm 0,0 UV-I 88 W/m² 14,7 °C 22,9 °C 1,6 km/h (1 Bft)
04.06.2019 19:52 22,8 °C 62 % 1006,9 hPa 0,0 mm 0,5 km/h (0 Bft) O 90 ° 0 min 0,000 mm 0,0 UV-I 86 W/m² 15,1 °C 22,8 °C 3,2 km/h (1 Bft)
04.06.2019 19:53 22,7 °C 61 % 1006,8 hPa 0,0 mm 0,5 km/h (0 Bft) O 90 ° 0 min 0,000 mm 0,0 UV-I 84 W/m² 14,8 °C 22,7 °C 3,2 km/h (1 Bft)
04.06.2019 19:54 22,6 °C 64 % 1006,9 hPa 0,0 mm 0,6 km/h (0 Bft) O 90 ° 0 min 0,000 mm 0,0 UV-I 83 W/m² 15,4 °C 22,6 °C 3,2 km/h (1 Bft)
04.06.2019 19:55 22,6 °C 59 % 1006,8 hPa 0,0 mm 1,1 km/h (1 Bft) O 90 ° 0 min 0,000 mm 0,0 UV-I 77 W/m² 14,2 °C 22,6 °C 3,2 km/h (1 Bft)
04.06.2019 19:56 22,6 °C 63 % 1006,9 hPa 0,0 mm 1,9 km/h (1 Bft) O-SO 109 ° 0 min 0,000 mm 0,0 UV-I 76 W/m² 15,2 °C 22,6 °C 3,2 km/h (1 Bft)
04.06.2019 19:57 22,6 °C 62 % 1006,9 hPa 0,0 mm 3,4 km/h (1 Bft) O-NO 59 ° 0 min 0,000 mm 0,0 UV-I 76 W/m² 14,9 °C 22,6 °C 9,7 km/h (2 Bft)
04.06.2019 19:58 22,7 °C 58 % 1006,9 hPa 0,0 mm 2,7 km/h (1 Bft) O-NO 59 ° 0 min 0,000 mm 0,0 UV-I 74 W/m² 14,0 °C 22,7 °C 4,8 km/h (1 Bft)
04.06.2019 19:59 22,8 °C 62 % 1007,0 hPa 0,0 mm 1,1 km/h (1 Bft) O-NO 59 ° 0 min 0,000 mm 0,0 UV-I 72 W/m² 15,1 °C 22,8 °C 3,2 km/h (1 Bft)
04.06.2019 20:00 22,7 °C 64 % 1006,9 hPa 0,0 mm 4,5 km/h (1 Bft) SO 134 ° 0 min 0,000 mm 0,0 UV-I 70 W/m² 15,5 °C 22,7 °C 9,7 km/h (2 Bft)
04.06.2019 20:01 22,6 °C 62 % 1006,8 hPa 0,0 mm 1,9 km/h (1 Bft) SO 128 ° 0 min 0,101 mm 0,0 UV-I 67 W/m² 14,9 °C 22,6 °C 4,8 km/h (1 Bft)
04.06.2019 20:02 22,5 °C 63 % 1006,9 hPa 0,0 mm 0,7 km/h (0 Bft) SO 128 ° 0 min 0,000 mm 0,0 UV-I 65 W/m² 15,1 °C 22,5 °C 3,2 km/h (1 Bft)
04.06.2019 20:03 22,4 °C 62 % 1006,8 hPa 0,0 mm 0,9 km/h (0 Bft) SO 128 ° 0 min 0,000 mm 0,0 UV-I 63 W/m² 14,8 °C 22,4 °C 3,2 km/h (1 Bft)
04.06.2019 20:04 22,3 °C 65 % 1006,9 hPa 0,0 mm 0,0 km/h (0 Bft) SO 128 ° 0 min 0,000 mm 0,0 UV-I 62 W/m² 15,4 °C 22,3 °C 0,0 km/h (0 Bft)
04.06.2019 20:05 22,3 °C 63 % 1006,9 hPa 0,0 mm 0,5 km/h (0 Bft) O 86 ° 0 min 0,000 mm 0,0 UV-I 60 W/m² 14,9 °C 22,3 °C 3,2 km/h (1 Bft)
04.06.2019 20:06 22,3 °C 61 % 1006,9 hPa 0,0 mm 2,6 km/h (1 Bft) NO 53 ° 0 min 0,000 mm 0,0 UV-I 56 W/m² 14,4 °C 22,3 °C 4,8 km/h (1 Bft)
04.06.2019 20:07 22,3 °C 62 % 1006,9 hPa 0,0 mm 0,0 km/h (0 Bft) NO 53 ° 0 min 0,000 mm 0,0 UV-I 54 W/m² 14,7 °C 22,3 °C 0,0 km/h (0 Bft)
04.06.2019 20:08 22,3 °C 64 % 1006,9 hPa 0,0 mm 0,2 km/h (0 Bft) NO 53 ° 0 min 0,000 mm 0,0 UV-I 53 W/m² 15,2 °C 22,3 °C 1,6 km/h (1 Bft)
04.06.2019 20:09 22,2 °C 62 % 1006,9 hPa 0,0 mm 0,0 km/h (0 Bft) NO 53 ° 0 min 0,000 mm 0,0 UV-I 51 W/m² 14,6 °C 22,2 °C 0,0 km/h (0 Bft)
04.06.2019 20:10 22,3 °C 60 % 1006,9 hPa 0,0 mm 0,0 km/h (0 Bft) NO 53 ° 0 min 0,000 mm 0,0 UV-I 49 W/m² 14,2 °C 22,3 °C 0,0 km/h (0 Bft)
04.06.2019 20:11 22,1 °C 63 % 1006,9 hPa 0,0 mm 0,0 km/h (0 Bft) NO 53 ° 0 min 0,000 mm 0,0 UV-I 49 W/m² 14,7 °C 22,1 °C 0,0 km/h (0 Bft)
04.06.2019 20:12 22,1 °C 66 % 1006,9 hPa 0,0 mm 0,6 km/h (0 Bft) NO 53 ° 0 min 0,000 mm 0,0 UV-I 47 W/m² 15,4 °C 22,1 °C 3,2 km/h (1 Bft)
04.06.2019 20:13 22,0 °C 63 % 1006,9 hPa 0,0 mm 1,0 km/h (0 Bft) NO 53 ° 0 min 0,000 mm 0,0 UV-I 46 W/m² 14,6 °C 22,0 °C 3,2 km/h (1 Bft)
04.06.2019 20:14 21,8 °C 66 % 1006,9 hPa 0,0 mm 2,4 km/h (1 Bft) O-SO 122 ° 0 min 0,000 mm 0,0 UV-I 44 W/m² 15,2 °C 21,8 °C 4,8 km/h (1 Bft)
04.06.2019 20:15 21,8 °C 64 % 1006,9 hPa 0,0 mm 0,4 km/h (0 Bft) O-SO 122 ° 0 min 0,000 mm 0,0 UV-I 44 W/m² 14,7 °C 21,8 °C 1,6 km/h (1 Bft)
04.06.2019 20:16 21,8 °C 64 % 1006,9 hPa 0,0 mm 0,0 km/h (0 Bft) O-SO 122 ° 0 min 0,000 mm 0,0 UV-I 42 W/m² 14,7 °C 21,8 °C 0,0 km/h (0 Bft)
04.06.2019 20:17 21,8 °C 65 % 1006,9 hPa 0,0 mm 0,6 km/h (0 Bft) O-SO 122 ° 0 min 0,000 mm 0,0 UV-I 42 W/m² 14,9 °C 21,8 °C 1,6 km/h (1 Bft)
04.06.2019 20:18 21,7 °C 66 % 1006,9 hPa 0,0 mm 0,0 km/h (0 Bft) O-SO 122 ° 0 min 0,000 mm 0,0 UV-I 40 W/m² 15,1 °C 21,7 °C 0,0 km/h (0 Bft)
04.06.2019 20:19 21,7 °C 63 % 1006,9 hPa 0,0 mm 0,5 km/h (0 Bft) O-SO 122 ° 0 min 0,000 mm 0,0 UV-I 39 W/m² 14,3 °C 21,7 °C 1,6 km/h (1 Bft)
04.06.2019 20:20 21,8 °C 62 % 1006,9 hPa 0,0 mm 0,7 km/h (0 Bft) O-SO 122 ° 0 min 0,000 mm 0,0 UV-I 39 W/m² 14,2 °C 21,8 °C 1,6 km/h (1 Bft)
04.06.2019 20:21 21,8 °C 63 % 1006,9 hPa 0,0 mm 0,0 km/h (0 Bft) O-SO 122 ° 0 min 0,000 mm 0,0 UV-I 37 W/m² 14,4 °C 21,8 °C 0,0 km/h (0 Bft)
04.06.2019 20:22 21,8 °C 63 % 1006,9 hPa 0,0 mm 0,0 km/h (0 Bft) O-SO 122 ° 0 min 0,000 mm 0,0 UV-I 37 W/m² 14,4 °C 21,8 °C 0,0 km/h (0 Bft)
04.06.2019 20:23 21,8 °C 63 % 1006,9 hPa 0,0 mm 0,0 km/h (0 Bft) O-SO 122 ° 0 min 0,000 mm 0,0 UV-I 35 W/m² 14,4 °C 21,8 °C 0,0 km/h (0 Bft)
04.06.2019 20:24 21,8 °C 63 % 1006,9 hPa 0,0 mm 0,0 km/h (0 Bft) O-SO 122 ° 0 min 0,000 mm 0,0 UV-I 35 W/m² 14,4 °C 21,8 °C 0,0 km/h (0 Bft)
04.06.2019 20:25 21,9 °C 62 % 1006,9 hPa 0,0 mm 0,0 km/h (0 Bft) O-SO 122 ° 0 min 0,000 mm 0,0 UV-I 33 W/m² 14,3 °C 21,9 °C 0,0 km/h (0 Bft)
04.06.2019 20:26 21,8 °C 62 % 1006,8 hPa 0,0 mm 0,0 km/h (0 Bft) O-SO 122 ° 0 min 0,000 mm 0,0 UV-I 33 W/m² 14,2 °C 21,8 °C 0,0 km/h (0 Bft)
04.06.2019 20:27 21,8 °C 64 % 1006,9 hPa 0,0 mm 0,0 km/h (0 Bft) O-SO 122 ° 0 min 0,000 mm 0,0 UV-I 32 W/m² 14,7 °C 21,8 °C 0,0 km/h (0 Bft)
04.06.2019 20:28 21,7 °C 62 % 1006,9 hPa 0,0 mm 0,0 km/h (0 Bft) O-SO 122 ° 0 min 0,000 mm 0,0 UV-I 32 W/m² 14,1 °C 21,7 °C 0,0 km/h (0 Bft)
04.06.2019 20:29 21,7 °C 64 % 1007,0 hPa 0,0 mm 0,0 km/h (0 Bft) O-SO 122 ° 0 min 0,000 mm 0,0 UV-I 30 W/m² 14,6 °C 21,7 °C 0,0 km/h (0 Bft)
04.06.2019 20:30 21,7 °C 63 % 1006,9 hPa 0,0 mm 0,0 km/h (0 Bft) O-SO 122 ° 0 min 0,000 mm 0,0 UV-I 28 W/m² 14,3 °C 21,7 °C 0,0 km/h (0 Bft)
04.06.2019 20:31 21,6 °C 65 % 1006,9 hPa 0,0 mm 1,1 km/h (1 Bft) O-SO 122 ° 0 min 0,000 mm 0,0 UV-I 26 W/m² 14,7 °C 21,6 °C 3,2 km/h (1 Bft)
04.06.2019 20:32 21,6 °C 62 % 1006,8 hPa 0,0 mm 0,9 km/h (0 Bft) O-SO 122 ° 0 min 0,000 mm 0,0 UV-I 26 W/m² 14,0 °C 21,6 °C 1,6 km/h (1 Bft)
04.06.2019 20:33 21,6 °C 64 % 1006,9 hPa 0,0 mm 0,5 km/h (0 Bft) O-SO 122 ° 0 min 0,000 mm 0,0 UV-I 26 W/m² 14,5 °C 21,6 °C 1,6 km/h (1 Bft)
04.06.2019 20:34 21,4 °C 64 % 1006,9 hPa 0,0 mm 0,0 km/h (0 Bft) O-SO 122 ° 0 min 0,000 mm 0,0 UV-I 25 W/m² 14,3 °C 21,4 °C 0,0 km/h (0 Bft)
04.06.2019 20:35 21,3 °C 65 % 1006,9 hPa 0,0 mm 0,4 km/h (0 Bft) O-SO 122 ° 0 min 0,000 mm 0,0 UV-I 25 W/m² 14,4 °C 21,3 °C 1,6 km/h (1 Bft)
04.06.2019 20:36 21,2 °C 65 % 1006,8 hPa 0,0 mm 1,3 km/h (1 Bft) O-SO 122 ° 0 min 0,000 mm 0,0 UV-I 23 W/m² 14,4 °C 21,2 °C 3,2 km/h (1 Bft)
04.06.2019 20:37 21,2 °C 65 % 1006,8 hPa 0,0 mm 0,0 km/h (0 Bft) O-SO 122 ° 0 min 0,000 mm 0,0 UV-I 23 W/m² 14,4 °C 21,2 °C 0,0 km/h (0 Bft)
04.06.2019 20:38 21,1 °C 65 % 1006,8 hPa 0,0 mm 0,2 km/h (0 Bft) O-SO 122 ° 0 min 0,000 mm 0,0 UV-I 21 W/m² 14,3 °C 21,1 °C 1,6 km/h (1 Bft)
04.06.2019 20:39 21,1 °C 66 % 1006,8 hPa 0,0 mm 1,6 km/h (1 Bft) O-SO 122 ° 0 min 0,000 mm 0,0 UV-I 21 W/m² 14,5 °C 21,1 °C 1,6 km/h (1 Bft)
04.06.2019 20:40 21,1 °C 65 % 1006,8 hPa 0,0 mm 0,6 km/h (0 Bft) O-SO 122 ° 0 min 0,000 mm 0,0 UV-I 21 W/m² 14,3 °C 21,1 °C 1,6 km/h (1 Bft)
04.06.2019 20:41 21,1 °C 63 % 1006,8 hPa 0,0 mm 0,1 km/h (0 Bft) O-SO 122 ° 0 min 0,000 mm 0,0 UV-I 19 W/m² 13,8 °C 21,1 °C 1,6 km/h (1 Bft)
04.06.2019 20:42 21,1 °C 65 % 1006,8 hPa 0,0 mm 0,7 km/h (0 Bft) O-SO 122 ° 0 min 0,000 mm 0,0 UV-I 19 W/m² 14,3 °C 21,1 °C 1,6 km/h (1 Bft)
04.06.2019 20:43 21,2 °C 64 % 1006,8 hPa 0,0 mm 1,8 km/h (1 Bft) O-SO 122 ° 0 min 0,000 mm 0,0 UV-I 18 W/m² 14,1 °C 21,2 °C 3,2 km/h (1 Bft)
04.06.2019 20:44 21,1 °C 65 % 1006,8 hPa 0,0 mm 1,0 km/h (0 Bft) O-SO 122 ° 0 min 0,000 mm 0,0 UV-I 18 W/m² 14,3 °C 21,1 °C 1,6 km/h (1 Bft)
04.06.2019 20:45 21,1 °C 63 % 1006,9 hPa 0,0 mm 1,2 km/h (1 Bft) O-SO 122 ° 0 min 0,000 mm 0,0 UV-I 18 W/m² 13,8 °C 21,1 °C 3,2 km/h (1 Bft)
04.06.2019 20:46 21,1 °C 64 % 1006,9 hPa 0,0 mm 1,6 km/h (1 Bft) O-SO 122 ° 0 min 0,000 mm 0,0 UV-I 16 W/m² 14,0 °C 21,1 °C 3,2 km/h (1 Bft)
04.06.2019 20:47 21,1 °C 64 % 1006,8 hPa 0,0 mm 1,6 km/h (1 Bft) O-SO 122 ° 0 min 0,000 mm 0,0 UV-I 16 W/m² 14,0 °C 21,1 °C 3,2 km/h (1 Bft)
04.06.2019 20:48 21,0 °C 65 % 1006,8 hPa 0,0 mm 0,6 km/h (0 Bft) O-SO 122 ° 0 min 0,000 mm 0,0 UV-I 14 W/m² 14,2 °C 21,0 °C 1,6 km/h (1 Bft)
04.06.2019 20:49 21,0 °C 64 % 1006,8 hPa 0,0 mm 1,0 km/h (0 Bft) O-SO 122 ° 0 min 0,000 mm 0,0 UV-I 12 W/m² 13,9 °C 21,0 °C 3,2 km/h (1 Bft)
04.06.2019 20:50 21,0 °C 64 % 1006,8 hPa 0,0 mm 1,0 km/h (0 Bft) O-SO 122 ° 0 min 0,000 mm 0,0 UV-I 12 W/m² 13,9 °C 21,0 °C 3,2 km/h (1 Bft)
04.06.2019 20:51 20,9 °C 65 % 1006,8 hPa 0,0 mm 1,9 km/h (1 Bft) O-SO 122 ° 0 min 0,000 mm 0,0 UV-I 12 W/m² 14,1 °C 20,9 °C 3,2 km/h (1 Bft)
04.06.2019 20:52 20,9 °C 65 % 1006,8 hPa 0,0 mm 2,5 km/h (1 Bft) O-SO 123 ° 0 min 0,000 mm 0,0 UV-I 12 W/m² 14,1 °C 20,9 °C 3,2 km/h (1 Bft)
04.06.2019 20:53 20,8 °C 65 % 1006,8 hPa 0,0 mm 1,1 km/h (1 Bft) O-SO 123 ° 0 min 0,000 mm 0,0 UV-I 11 W/m² 14,0 °C 20,8 °C 3,2 km/h (1 Bft)
04.06.2019 20:54 20,8 °C 65 % 1006,8 hPa 0,0 mm 1,4 km/h (1 Bft) O-SO 123 ° 0 min 0,000 mm 0,0 UV-I 11 W/m² 14,0 °C 20,8 °C 3,2 km/h (1 Bft)
04.06.2019 20:55 20,7 °C 65 % 1006,8 hPa 0,0 mm 2,2 km/h (1 Bft) O-SO 123 ° 0 min 0,000 mm 0,0 UV-I 9 W/m² 13,9 °C 20,7 °C 4,8 km/h (1 Bft)
04.06.2019 20:56 20,8 °C 64 % 1006,8 hPa 0,0 mm 1,9 km/h (1 Bft) O-SO 123 ° 0 min 0,000 mm 0,0 UV-I 9 W/m² 13,7 °C 20,8 °C 3,2 km/h (1 Bft)
04.06.2019 20:57 20,8 °C 65 % 1006,8 hPa 0,0 mm 1,6 km/h (1 Bft) O-SO 123 ° 0 min 0,000 mm 0,0 UV-I 7 W/m² 14,0 °C 20,8 °C 3,2 km/h (1 Bft)
04.06.2019 20:58 20,7 °C 65 % 1006,8 hPa 0,0 mm 1,9 km/h (1 Bft) O-SO 123 ° 0 min 0,000 mm 0,0 UV-I 7 W/m² 13,9 °C 20,7 °C 3,2 km/h (1 Bft)
04.06.2019 20:59 20,8 °C 64 % 1006,8 hPa 0,0 mm 0,1 km/h (0 Bft) O-SO 123 ° 0 min 0,000 mm 0,0 UV-I 7 W/m² 13,7 °C 20,8 °C 1,6 km/h (1 Bft)
04.06.2019 21:00 20,8 °C 65 % 1006,8 hPa 0,0 mm 1,4 km/h (1 Bft) O-SO 123 ° 0 min 0,000 mm 0,0 UV-I 5 W/m² 14,0 °C 20,8 °C 3,2 km/h (1 Bft)
04.06.2019 21:01 20,8 °C 64 % 1006,8 hPa 0,0 mm 0,0 km/h (0 Bft) O-SO 123 ° 0 min 0,026 mm 0,0 UV-I 5 W/m² 13,7 °C 20,8 °C 0,0 km/h (0 Bft)
04.06.2019 21:02 20,8 °C 65 % 1006,8 hPa 0,0 mm 0,3 km/h (0 Bft) O-SO 123 ° 0 min 0,000 mm 0,0 UV-I 5 W/m² 14,0 °C 20,8 °C 1,6 km/h (1 Bft)
04.06.2019 21:03 20,7 °C 66 % 1006,8 hPa 0,0 mm 0,2 km/h (0 Bft) O-SO 123 ° 0 min 0,000 mm 0,0 UV-I 0 W/m² 14,1 °C 20,7 °C 1,6 km/h (1 Bft)
04.06.2019 21:04 20,6 °C 66 % 1006,8 hPa 0,0 mm 0,9 km/h (0 Bft) O-SO 123 ° 0 min 0,000 mm 0,0 UV-I 0 W/m² 14,0 °C 20,6 °C 1,6 km/h (1 Bft)
04.06.2019 21:05 20,4 °C 67 % 1006,9 hPa 0,0 mm 0,0 km/h (0 Bft) O-SO 123 ° 0 min 0,000 mm 0,0 UV-I 0 W/m² 14,1 °C 20,4 °C 0,0 km/h (0 Bft)
04.06.2019 21:06 20,2 °C 67 % 1006,8 hPa 0,0 mm 0,0 km/h (0 Bft) O-SO 123 ° 0 min 0,000 mm 0,0 UV-I 0 W/m² 13,9 °C 20,2 °C 0,0 km/h (0 Bft)
04.06.2019 21:07 20,1 °C 69 % 1006,9 hPa 0,0 mm 0,0 km/h (0 Bft) O-SO 123 ° 0 min 0,000 mm 0,0 UV-I 0 W/m² 14,2 °C 20,1 °C 0,0 km/h (0 Bft)
04.06.2019 21:08 19,9 °C 69 % 1006,9 hPa 0,0 mm 0,0 km/h (0 Bft) O-SO 123 ° 0 min 0,000 mm 0,0 UV-I 0 W/m² 14,0 °C 19,9 °C 0,0 km/h (0 Bft)
04.06.2019 21:09 19,8 °C 69 % 1006,9 hPa 0,0 mm 0,0 km/h (0 Bft) O-SO 123 ° 0 min 0,000 mm 0,0 UV-I 0 W/m² 13,9 °C 19,8 °C 0,0 km/h (0 Bft)
04.06.2019 21:10 19,7 °C 69 % 1006,9 hPa 0,0 mm 0,6 km/h (0 Bft) O-SO 123 ° 0 min 0,000 mm 0,0 UV-I 0 W/m² 13,8 °C 19,7 °C 3,2 km/h (1 Bft)
04.06.2019 21:11 19,8 °C 68 % 1006,9 hPa 0,0 mm 3,0 km/h (1 Bft) O-SO 123 ° 0 min 0,000 mm 0,0 UV-I 0 W/m² 13,7 °C 19,8 °C 4,8 km/h (1 Bft)
04.06.2019 21:12 19,7 °C 69 % 1006,9 hPa 0,0 mm 2,7 km/h (1 Bft) O-SO 123 ° 0 min 0,000 mm 0,0 UV-I 0 W/m² 13,8 °C 19,7 °C 4,8 km/h (1 Bft)
04.06.2019 21:13 19,8 °C 69 % 1006,9 hPa 0,0 mm 3,1 km/h (1 Bft) O-SO 123 ° 0 min 0,000 mm 0,0 UV-I 0 W/m² 13,9 °C 19,8 °C 4,8 km/h (1 Bft)
04.06.2019 21:14 19,8 °C 68 % 1006,9 hPa 0,0 mm 2,3 km/h (1 Bft) SO 126 ° 0 min 0,000 mm 0,0 UV-I 0 W/m² 13,7 °C 19,8 °C 3,2 km/h (1 Bft)
04.06.2019 21:15 19,8 °C 68 % 1006,9 hPa 0,0 mm 2,7 km/h (1 Bft) SO 126 ° 0 min 0,000 mm 0,0 UV-I 0 W/m² 13,7 °C 19,8 °C 3,2 km/h (1 Bft)
04.06.2019 21:16 19,8 °C 69 % 1006,9 hPa 0,0 mm 3,5 km/h (1 Bft) SO 126 ° 0 min 0,000 mm 0,0 UV-I 0 W/m² 13,9 °C 19,8 °C 4,8 km/h (1 Bft)
04.06.2019 21:17 19,8 °C 69 % 1006,9 hPa 0,0 mm 2,8 km/h (1 Bft) SO 126 ° 0 min 0,000 mm 0,0 UV-I 0 W/m² 13,9 °C 19,8 °C 4,8 km/h (1 Bft)
04.06.2019 21:18 19,8 °C 69 % 1006,9 hPa 0,0 mm 2,5 km/h (1 Bft) SO 126 ° 0 min 0,000 mm 0,0 UV-I 0 W/m² 13,9 °C 19,8 °C 4,8 km/h (1 Bft)
04.06.2019 21:19 19,8 °C 68 % 1006,9 hPa 0,0 mm 0,3 km/h (0 Bft) SO 126 ° 0 min 0,000 mm 0,0 UV-I 0 W/m² 13,7 °C 19,8 °C 1,6 km/h (1 Bft)
04.06.2019 21:20 19,8 °C 69 % 1006,9 hPa 0,0 mm 2,2 km/h (1 Bft) SO 126 ° 0 min 0,000 mm 0,0 UV-I 0 W/m² 13,9 °C 19,8 °C 4,8 km/h (1 Bft)
04.06.2019 21:21 19,7 °C 69 % 1006,9 hPa 0,0 mm 0,3 km/h (0 Bft) SO 126 ° 0 min 0,000 mm 0,0 UV-I 0 W/m² 13,8 °C 19,7 °C 1,6 km/h (1 Bft)
04.06.2019 21:22 19,7 °C 70 % 1006,9 hPa 0,0 mm 2,6 km/h (1 Bft) SO 126 ° 0 min 0,000 mm 0,0 UV-I 0 W/m² 14,1 °C 19,7 °C 4,8 km/h (1 Bft)
04.06.2019 21:23 19,6 °C 70 % 1006,9 hPa 0,0 mm 0,9 km/h (0 Bft) SO 126 ° 0 min 0,000 mm 0,0 UV-I 0 W/m² 14,0 °C 19,6 °C 3,2 km/h (1 Bft)
04.06.2019 21:24 19,6 °C 70 % 1006,9 hPa 0,0 mm 0,5 km/h (0 Bft) SO 126 ° 0 min 0,000 mm 0,0 UV-I 0 W/m² 14,0 °C 19,6 °C 3,2 km/h (1 Bft)
04.06.2019 21:25 19,5 °C 70 % 1006,9 hPa 0,0 mm 1,1 km/h (1 Bft) SO 126 ° 0 min 0,000 mm 0,0 UV-I 0 W/m² 13,9 °C 19,5 °C 3,2 km/h (1 Bft)
04.06.2019 21:26 19,4 °C 70 % 1006,9 hPa 0,0 mm 1,7 km/h (1 Bft) SO 126 ° 0 min 0,000 mm 0,0 UV-I 0 W/m² 13,8 °C 19,4 °C 3,2 km/h (1 Bft)
04.06.2019 21:27 19,4 °C 70 % 1006,9 hPa 0,0 mm 0,0 km/h (0 Bft) SO 126 ° 0 min 0,000 mm 0,0 UV-I 0 W/m² 13,8 °C 19,4 °C 0,0 km/h (0 Bft)
04.06.2019 21:28 19,3 °C 71 % 1006,9 hPa 0,0 mm 0,0 km/h (0 Bft) SO 126 ° 0 min 0,000 mm 0,0 UV-I 0 W/m² 13,9 °C 19,3 °C 0,0 km/h (0 Bft)
04.06.2019 21:29 19,2 °C 72 % 1006,9 hPa 0,0 mm 0,0 km/h (0 Bft) SO 126 ° 0 min 0,000 mm 0,0 UV-I 0 W/m² 14,0 °C 19,2 °C 0,0 km/h (0 Bft)
04.06.2019 21:30 18,9 °C 73 % 1007,0 hPa 0,0 mm 0,0 km/h (0 Bft) SO 126 ° 0 min 0,000 mm 0,0 UV-I 0 W/m² 13,9 °C 18,9 °C 0,0 km/h (0 Bft)
04.06.2019 21:31 18,8 °C 73 % 1006,9 hPa 0,0 mm 0,0 km/h (0 Bft) SO 126 ° 0 min 0,000 mm 0,0 UV-I 0 W/m² 13,9 °C 18,8 °C 0,0 km/h (0 Bft)
04.06.2019 21:32 18,7 °C 74 % 1007,0 hPa 0,0 mm 0,0 km/h (0 Bft) SO 126 ° 0 min 0,000 mm 0,0 UV-I 0 W/m² 14,0 °C 18,7 °C 0,0 km/h (0 Bft)
04.06.2019 21:33 18,6 °C 75 % 1006,9 hPa 0,0 mm 0,0 km/h (0 Bft) SO 126 ° 0 min 0,000 mm 0,0 UV-I 0 W/m² 14,1 °C 18,6 °C 0,0 km/h (0 Bft)
04.06.2019 21:34 18,4 °C 75 % 1006,9 hPa 0,0 mm 0,0 km/h (0 Bft) SO 126 ° 0 min 0,000 mm 0,0 UV-I 0 W/m² 13,9 °C 18,4 °C 0,0 km/h (0 Bft)
04.06.2019 21:35 18,3 °C 75 % 1006,9 hPa 0,0 mm 0,0 km/h (0 Bft) SO 126 ° 0 min 0,000 mm 0,0 UV-I 0 W/m² 13,8 °C 18,3 °C 0,0 km/h (0 Bft)
04.06.2019 21:36 18,2 °C 75 % 1007,0 hPa 0,0 mm 0,0 km/h (0 Bft) SO 126 ° 0 min 0,000 mm 0,0 UV-I 0 W/m² 13,7 °C 18,2 °C 0,0 km/h (0 Bft)
04.06.2019 21:37 18,1 °C 76 % 1007,0 hPa 0,0 mm 0,0 km/h (0 Bft) SO 126 ° 0 min 0,000 mm 0,0 UV-I 0 W/m² 13,8 °C 18,1 °C 0,0 km/h (0 Bft)
04.06.2019 21:38 17,9 °C 76 % 1007,0 hPa 0,0 mm 0,0 km/h (0 Bft) SO 126 ° 0 min 0,000 mm 0,0 UV-I 0 W/m² 13,6 °C 17,9 °C 0,0 km/h (0 Bft)
04.06.2019 21:39 17,9 °C 77 % 1006,9 hPa 0,0 mm 0,0 km/h (0 Bft) SO 126 ° 0 min 0,000 mm 0,0 UV-I 0 W/m² 13,8 °C 17,9 °C 0,0 km/h (0 Bft)
04.06.2019 21:40 17,9 °C 77 % 1007,0 hPa 0,0 mm 0,0 km/h (0 Bft) SO 126 ° 0 min 0,000 mm 0,0 UV-I 0 W/m² 13,8 °C 17,9 °C 0,0 km/h (0 Bft)
04.06.2019 21:41 17,8 °C 77 % 1007,1 hPa 0,0 mm 0,0 km/h (0 Bft) SO 126 ° 0 min 0,000 mm 0,0 UV-I 0 W/m² 13,7 °C 17,8 °C 0,0 km/h (0 Bft)
04.06.2019 21:42 17,8 °C 77 % 1007,0 hPa 0,0 mm 0,0 km/h (0 Bft) SO 126 ° 0 min 0,000 mm 0,0 UV-I 0 W/m² 13,7 °C 17,8 °C 0,0 km/h (0 Bft)
04.06.2019 21:43 17,9 °C 77 % 1007,0 hPa 0,0 mm 0,0 km/h (0 Bft) SO 126 ° 0 min 0,000 mm 0,0 UV-I 0 W/m² 13,8 °C 17,9 °C 0,0 km/h (0 Bft)
04.06.2019 21:44 17,9 °C 76 % 1007,0 hPa 0,0 mm 0,0 km/h (0 Bft) SO 126 ° 0 min 0,000 mm 0,0 UV-I 0 W/m² 13,6 °C 17,9 °C 0,0 km/h (0 Bft)
04.06.2019 21:45 17,9 °C 76 % 1007,0 hPa 0,0 mm 0,0 km/h (0 Bft) SO 126 ° 0 min 0,000 mm 0,0 UV-I 0 W/m² 13,6 °C 17,9 °C 0,0 km/h (0 Bft)
04.06.2019 21:46 17,9 °C 76 % 1007,0 hPa 0,0 mm 0,0 km/h (0 Bft) SO 126 ° 0 min 0,000 mm 0,0 UV-I 0 W/m² 13,6 °C 17,9 °C 0,0 km/h (0 Bft)
04.06.2019 21:47 17,9 °C 75 % 1007,0 hPa 0,0 mm 0,0 km/h (0 Bft) SO 126 ° 0 min 0,000 mm 0,0 UV-I 0 W/m² 13,4 °C 17,9 °C 0,0 km/h (0 Bft)
04.06.2019 21:48 17,9 °C 75 % 1007,0 hPa 0,0 mm 0,0 km/h (0 Bft) SO 126 ° 0 min 0,000 mm 0,0 UV-I 0 W/m² 13,4 °C 17,9 °C 0,0 km/h (0 Bft)
04.06.2019 21:49 17,9 °C 75 % 1007,0 hPa 0,0 mm 0,0 km/h (0 Bft) SO 126 ° 0 min 0,000 mm 0,0 UV-I 0 W/m² 13,4 °C 17,9 °C 0,0 km/h (0 Bft)
04.06.2019 21:50 17,9 °C 76 % 1007,0 hPa 0,0 mm 0,0 km/h (0 Bft) SO 126 ° 0 min 0,000 mm 0,0 UV-I 0 W/m² 13,6 °C 17,9 °C 0,0 km/h (0 Bft)
04.06.2019 21:51 17,8 °C 76 % 1007,0 hPa 0,0 mm 0,0 km/h (0 Bft) SO 126 ° 0 min 0,000 mm 0,0 UV-I 0 W/m² 13,5 °C 17,8 °C 0,0 km/h (0 Bft)
04.06.2019 21:52 17,8 °C 76 % 1007,1 hPa 0,0 mm 0,0 km/h (0 Bft) SO 126 ° 0 min 0,000 mm 0,0 UV-I 0 W/m² 13,5 °C 17,8 °C 0,0 km/h (0 Bft)
04.06.2019 21:53 17,7 °C 76 % 1007,1 hPa 0,0 mm 0,0 km/h (0 Bft) SO 126 ° 0 min 0,000 mm 0,0 UV-I 0 W/m² 13,4 °C 17,7 °C 0,0 km/h (0 Bft)
04.06.2019 21:54 17,7 °C 77 % 1007,1 hPa 0,0 mm 0,0 km/h (0 Bft) SO 126 ° 0 min 0,000 mm 0,0 UV-I 0 W/m² 13,6 °C 17,7 °C 0,0 km/h (0 Bft)
04.06.2019 21:55 17,6 °C 77 % 1007,1 hPa 0,0 mm 0,0 km/h (0 Bft) SO 126 ° 0 min 0,000 mm 0,0 UV-I 0 W/m² 13,5 °C 17,6 °C 0,0 km/h (0 Bft)
04.06.2019 21:56 17,6 °C 78 % 1007,1 hPa 0,0 mm 0,0 km/h (0 Bft) SO 126 ° 0 min 0,000 mm 0,0 UV-I 0 W/m² 13,7 °C 17,6 °C 0,0 km/h (0 Bft)
04.06.2019 21:57 17,4 °C 78 % 1007,1 hPa 0,0 mm 0,0 km/h (0 Bft) SO 126 ° 0 min 0,000 mm 0,0 UV-I 0 W/m² 13,5 °C 17,4 °C 0,0 km/h (0 Bft)
04.06.2019 21:58 17,4 °C 78 % 1007,1 hPa 0,0 mm 0,0 km/h (0 Bft) SO 126 ° 0 min 0,000 mm 0,0 UV-I 0 W/m² 13,5 °C 17,4 °C 0,0 km/h (0 Bft)
04.06.2019 21:59 17,4 °C 78 % 1007,2 hPa 0,0 mm 0,0 km/h (0 Bft) SO 126 ° 0 min 0,000 mm 0,0 UV-I 0 W/m² 13,5 °C 17,4 °C 0,0 km/h (0 Bft)
04.06.2019 22:00 17,3 °C 78 % 1007,1 hPa 0,0 mm 0,0 km/h (0 Bft) SO 126 ° 0 min 0,000 mm 0,0 UV-I 0 W/m² 13,4 °C 17,3 °C 0,0 km/h (0 Bft)
04.06.2019 22:01 17,3 °C 78 % 1007,1 hPa 0,0 mm 0,0 km/h (0 Bft) SO 126 ° 0 min 0,000 mm 0,0 UV-I 0 W/m² 13,4 °C 17,3 °C 0,0 km/h (0 Bft)
04.06.2019 22:02 17,3 °C 79 % 1007,1 hPa 0,0 mm 0,0 km/h (0 Bft) SO 126 ° 0 min 0,000 mm 0,0 UV-I 0 W/m² 13,6 °C 17,3 °C 0,0 km/h (0 Bft)
04.06.2019 22:03 17,2 °C 79 % 1007,1 hPa 0,0 mm 0,0 km/h (0 Bft) SO 126 ° 0 min 0,000 mm 0,0 UV-I 0 W/m² 13,5 °C 17,2 °C 0,0 km/h (0 Bft)
04.06.2019 22:04 17,1 °C 79 % 1007,2 hPa 0,0 mm 0,0 km/h (0 Bft) SO 126 ° 0 min 0,000 mm 0,0 UV-I 0 W/m² 13,4 °C 17,1 °C 0,0 km/h (0 Bft)
04.06.2019 22:05 17,1 °C 79 % 1007,2 hPa 0,0 mm 0,0 km/h (0 Bft) SO 126 ° 0 min 0,000 mm 0,0 UV-I 0 W/m² 13,4 °C 17,1 °C 0,0 km/h (0 Bft)
04.06.2019 22:06 17,1 °C 79 % 1007,1 hPa 0,0 mm 0,0 km/h (0 Bft) SO 126 ° 0 min 0,000 mm 0,0 UV-I 0 W/m² 13,4 °C 17,1 °C 0,0 km/h (0 Bft)
04.06.2019 22:07 17,0 °C 79 % 1007,1 hPa 0,0 mm 0,0 km/h (0 Bft) SO 126 ° 0 min 0,000 mm 0,0 UV-I 0 W/m² 13,3 °C 17,0 °C 0,0 km/h (0 Bft)
04.06.2019 22:08 17,0 °C 79 % 1007,1 hPa 0,0 mm 0,0 km/h (0 Bft) SO 126 ° 0 min 0,000 mm 0,0 UV-I 0 W/m² 13,3 °C 17,0 °C 0,0 km/h (0 Bft)
04.06.2019 22:09 16,9 °C 79 % 1007,1 hPa 0,0 mm 0,0 km/h (0 Bft) SO 126 ° 0 min 0,000 mm 0,0 UV-I 0 W/m² 13,2 °C 16,9 °C 0,0 km/h (0 Bft)
04.06.2019 22:10 16,9 °C 80 % 1007,2 hPa 0,0 mm 0,0 km/h (0 Bft) SO 126 ° 0 min 0,000 mm 0,0 UV-I 0 W/m² 13,4 °C 16,9 °C 0,0 km/h (0 Bft)
04.06.2019 22:11 16,9 °C 80 % 1007,1 hPa 0,0 mm 0,0 km/h (0 Bft) SO 126 ° 0 min 0,000 mm 0,0 UV-I 0 W/m² 13,4 °C 16,9 °C 0,0 km/h (0 Bft)
04.06.2019 22:12 16,8 °C 81 % 1007,1 hPa 0,0 mm 0,0 km/h (0 Bft) SO 126 ° 0 min 0,000 mm 0,0 UV-I 0 W/m² 13,5 °C 16,8 °C 0,0 km/h (0 Bft)
04.06.2019 22:13 16,8 °C 81 % 1007,2 hPa 0,0 mm 0,0 km/h (0 Bft) SO 126 ° 0 min 0,000 mm 0,0 UV-I 0 W/m² 13,5 °C 16,8 °C 0,0 km/h (0 Bft)
04.06.2019 22:14 16,7 °C 81 % 1007,2 hPa 0,0 mm 0,5 km/h (0 Bft) SO 126 ° 0 min 0,000 mm 0,0 UV-I 0 W/m² 13,4 °C 16,7 °C 1,6 km/h (1 Bft)
04.06.2019 22:15 16,7 °C 81 % 1007,2 hPa 0,0 mm 1,3 km/h (1 Bft) SO 126 ° 0 min 0,000 mm 0,0 UV-I 0 W/m² 13,4 °C 16,7 °C 3,2 km/h (1 Bft)
04.06.2019 22:16 16,6 °C 82 % 1007,2 hPa 0,0 mm 0,0 km/h (0 Bft) SO 126 ° 0 min 0,000 mm 0,0 UV-I 0 W/m² 13,5 °C 16,6 °C 0,0 km/h (0 Bft)
04.06.2019 22:17 16,5 °C 82 % 1007,2 hPa 0,0 mm 0,0 km/h (0 Bft) SO 126 ° 0 min 0,000 mm 0,0 UV-I 0 W/m² 13,4 °C 16,5 °C 0,0 km/h (0 Bft)
04.06.2019 22:18 16,4 °C 82 % 1007,2 hPa 0,0 mm 0,0 km/h (0 Bft) SO 126 ° 0 min 0,000 mm 0,0 UV-I 0 W/m² 13,3 °C 16,4 °C 0,0 km/h (0 Bft)
04.06.2019 22:19 16,4 °C 83 % 1007,2 hPa 0,0 mm 0,0 km/h (0 Bft) SO 126 ° 0 min 0,000 mm 0,0 UV-I 0 W/m² 13,5 °C 16,4 °C 0,0 km/h (0 Bft)
04.06.2019 22:20 16,4 °C 83 % 1007,2 hPa 0,0 mm 0,0 km/h (0 Bft) SO 126 ° 0 min 0,000 mm 0,0 UV-I 0 W/m² 13,5 °C 16,4 °C 0,0 km/h (0 Bft)
04.06.2019 22:21 16,4 °C 83 % 1007,2 hPa 0,0 mm 0,0 km/h (0 Bft) SO 126 ° 0 min 0,000 mm 0,0 UV-I 0 W/m² 13,5 °C 16,4 °C 0,0 km/h (0 Bft)
04.06.2019 22:22 16,3 °C 82 % 1007,2 hPa 0,0 mm 0,0 km/h (0 Bft) SO 126 ° 0 min 0,000 mm 0,0 UV-I 0 W/m² 13,2 °C 16,3 °C 0,0 km/h (0 Bft)
04.06.2019 22:23 16,3 °C 82 % 1007,2 hPa 0,0 mm 0,0 km/h (0 Bft) SO 126 ° 0 min 0,000 mm 0,0 UV-I 0 W/m² 13,2 °C 16,3 °C 0,0 km/h (0 Bft)
04.06.2019 22:24 16,2 °C 83 % 1007,3 hPa 0,0 mm 0,4 km/h (0 Bft) SO 126 ° 0 min 0,000 mm 0,0 UV-I 0 W/m² 13,3 °C 16,2 °C 1,6 km/h (1 Bft)
04.06.2019 22:25 16,2 °C 83 % 1007,2 hPa 0,0 mm 0,0 km/h (0 Bft) SO 126 ° 0 min 0,000 mm 0,0 UV-I 0 W/m² 13,3 °C 16,2 °C 0,0 km/h (0 Bft)
04.06.2019 22:26 16,2 °C 84 % 1007,2 hPa 0,0 mm 0,0 km/h (0 Bft) SO 126 ° 0 min 0,000 mm 0,0 UV-I 0 W/m² 13,5 °C 16,2 °C 0,0 km/h (0 Bft)
04.06.2019 22:27 16,1 °C 83 % 1007,2 hPa 0,0 mm 0,0 km/h (0 Bft) SO 126 ° 0 min 0,000 mm 0,0 UV-I 0 W/m² 13,2 °C 16,1 °C 0,0 km/h (0 Bft)
04.06.2019 22:28 16,1 °C 83 % 1007,2 hPa 0,0 mm 0,0 km/h (0 Bft) SO 126 ° 0 min 0,000 mm 0,0 UV-I 0 W/m² 13,2 °C 16,1 °C 0,0 km/h (0 Bft)
04.06.2019 22:29 16,1 °C 83 % 1007,3 hPa 0,0 mm 0,0 km/h (0 Bft) SO 126 ° 0 min 0,000 mm 0,0 UV-I 0 W/m² 13,2 °C 16,1 °C 0,0 km/h (0 Bft)
04.06.2019 22:30 16,1 °C 83 % 1007,3 hPa 0,0 mm 0,0 km/h (0 Bft) SO 126 ° 0 min 0,000 mm 0,0 UV-I 0 W/m² 13,2 °C 16,1 °C 0,0 km/h (0 Bft)
04.06.2019 22:31 16,1 °C 83 % 1007,2 hPa 0,0 mm 0,0 km/h (0 Bft) SO 126 ° 0 min 0,000 mm 0,0 UV-I 0 W/m² 13,2 °C 16,1 °C 0,0 km/h (0 Bft)
04.06.2019 22:32 16,1 °C 83 % 1007,2 hPa 0,0 mm 0,0 km/h (0 Bft) SO 126 ° 0 min 0,000 mm 0,0 UV-I 0 W/m² 13,2 °C 16,1 °C 0,0 km/h (0 Bft)
04.06.2019 22:33 16,1 °C 83 % 1007,2 hPa 0,0 mm 0,0 km/h (0 Bft) SO 126 ° 0 min 0,000 mm 0,0 UV-I 0 W/m² 13,2 °C 16,1 °C 0,0 km/h (0 Bft)
04.06.2019 22:34 16,2 °C 83 % 1007,2 hPa 0,0 mm 0,0 km/h (0 Bft) SO 126 ° 0 min 0,000 mm 0,0 UV-I 0 W/m² 13,3 °C 16,2 °C 0,0 km/h (0 Bft)
04.06.2019 22:35 16,3 °C 83 % 1007,2 hPa 0,0 mm 0,0 km/h (0 Bft) SO 126 ° 0 min 0,000 mm 0,0 UV-I 0 W/m² 13,4 °C 16,3 °C 0,0 km/h (0 Bft)
04.06.2019 22:36 16,3 °C 83 % 1007,2 hPa 0,0 mm 0,0 km/h (0 Bft) SO 126 ° 0 min 0,000 mm 0,0 UV-I 0 W/m² 13,4 °C 16,3 °C 0,0 km/h (0 Bft)
04.06.2019 22:37 16,4 °C 82 % 1007,2 hPa 0,0 mm 0,0 km/h (0 Bft) SO 126 ° 0 min 0,000 mm 0,0 UV-I 0 W/m² 13,3 °C 16,4 °C 0,0 km/h (0 Bft)
04.06.2019 22:38 16,4 °C 82 % 1007,2 hPa 0,0 mm 0,0 km/h (0 Bft) SO 126 ° 0 min 0,000 mm 0,0 UV-I 0 W/m² 13,3 °C 16,4 °C 0,0 km/h (0 Bft)
04.06.2019 22:39 16,4 °C 82 % 1007,1 hPa 0,0 mm 0,0 km/h (0 Bft) SO 126 ° 0 min 0,000 mm 0,0 UV-I 0 W/m² 13,3 °C 16,4 °C 0,0 km/h (0 Bft)
04.06.2019 22:40 16,5 °C 82 % 1007,1 hPa 0,0 mm 0,0 km/h (0 Bft) SO 126 ° 0 min 0,000 mm 0,0 UV-I 0 W/m² 13,4 °C 16,5 °C 0,0 km/h (0 Bft)
04.06.2019 22:41 16,6 °C 82 % 1007,2 hPa 0,0 mm 0,0 km/h (0 Bft) SO 126 ° 0 min 0,000 mm 0,0 UV-I 0 W/m² 13,5 °C 16,6 °C 0,0 km/h (0 Bft)
04.06.2019 22:42 16,6 °C 82 % 1007,1 hPa 0,0 mm 0,0 km/h (0 Bft) SO 126 ° 0 min 0,000 mm 0,0 UV-I 0 W/m² 13,5 °C 16,6 °C 0,0 km/h (0 Bft)
04.06.2019 22:43 16,6 °C 82 % 1007,2 hPa 0,0 mm 0,0 km/h (0 Bft) SO 126 ° 0 min 0,000 mm 0,0 UV-I 0 W/m² 13,5 °C 16,6 °C 0,0 km/h (0 Bft)
04.06.2019 22:44 16,6 °C 82 % 1007,1 hPa 0,0 mm 0,0 km/h (0 Bft) SO 126 ° 0 min 0,000 mm 0,0 UV-I 0 W/m² 13,5 °C 16,6 °C 0,0 km/h (0 Bft)
04.06.2019 22:45 16,6 °C 82 % 1007,2 hPa 0,0 mm 0,0 km/h (0 Bft) SO 126 ° 0 min 0,000 mm 0,0 UV-I 0 W/m² 13,5 °C 16,6 °C 0,0 km/h (0 Bft)
04.06.2019 22:46 16,7 °C 82 % 1007,2 hPa 0,0 mm 0,0 km/h (0 Bft) SO 126 ° 0 min 0,000 mm 0,0 UV-I 0 W/m² 13,6 °C 16,7 °C 0,0 km/h (0 Bft)
04.06.2019 22:48 16,7 °C 81 % 1007,2 hPa 0,0 mm 0,0 km/h (0 Bft) SO 126 ° 0 min 0,000 mm 0,0 UV-I 0 W/m² 13,4 °C 16,7 °C 0,0 km/h (0 Bft)
04.06.2019 22:49 16,8 °C 81 % 1007,2 hPa 0,0 mm 0,0 km/h (0 Bft) SO 126 ° 0 min 0,000 mm 0,0 UV-I 0 W/m² 13,5 °C 16,8 °C 0,0 km/h (0 Bft)
04.06.2019 22:50 16,8 °C 81 % 1007,2 hPa 0,0 mm 0,0 km/h (0 Bft) SO 126 ° 0 min 0,000 mm 0,0 UV-I 0 W/m² 13,5 °C 16,8 °C 0,0 km/h (0 Bft)
04.06.2019 22:51 16,7 °C 81 % 1007,1 hPa 0,0 mm 0,0 km/h (0 Bft) SO 126 ° 0 min 0,000 mm 0,0 UV-I 0 W/m² 13,4 °C 16,7 °C 0,0 km/h (0 Bft)
04.06.2019 22:52 16,7 °C 81 % 1007,2 hPa 0,0 mm 0,0 km/h (0 Bft) SO 126 ° 0 min 0,000 mm 0,0 UV-I 0 W/m² 13,4 °C 16,7 °C 0,0 km/h (0 Bft)
04.06.2019 22:53 16,7 °C 81 % 1007,1 hPa 0,0 mm 0,0 km/h (0 Bft) SO 126 ° 0 min 0,000 mm 0,0 UV-I 0 W/m² 13,4 °C 16,7 °C 0,0 km/h (0 Bft)
04.06.2019 22:54 16,7 °C 82 % 1007,2 hPa 0,0 mm 0,0 km/h (0 Bft) SO 126 ° 0 min 0,000 mm 0,0 UV-I 0 W/m² 13,6 °C 16,7 °C 0,0 km/h (0 Bft)
04.06.2019 22:55 16,7 °C 81 % 1007,1 hPa 0,0 mm 0,0 km/h (0 Bft) SO 126 ° 0 min 0,000 mm 0,0 UV-I 0 W/m² 13,4 °C 16,7 °C 0,0 km/h (0 Bft)
04.06.2019 22:56 16,6 °C 81 % 1007,1 hPa 0,0 mm 0,0 km/h (0 Bft) SO 126 ° 0 min 0,000 mm 0,0 UV-I 0 W/m² 13,3 °C 16,6 °C 0,0 km/h (0 Bft)
04.06.2019 22:57 16,6 °C 82 % 1007,2 hPa 0,0 mm 0,0 km/h (0 Bft) SO 126 ° 0 min 0,000 mm 0,0 UV-I 0 W/m² 13,5 °C 16,6 °C 0,0 km/h (0 Bft)
04.06.2019 22:58 16,5 °C 82 % 1007,1 hPa 0,0 mm 0,0 km/h (0 Bft) SO 126 ° 0 min 0,000 mm 0,0 UV-I 0 W/m² 13,4 °C 16,5 °C 0,0 km/h (0 Bft)
04.06.2019 22:59 16,4 °C 82 % 1007,1 hPa 0,0 mm 0,0 km/h (0 Bft) SO 126 ° 0 min 0,000 mm 0,0 UV-I 0 W/m² 13,3 °C 16,4 °C 0,0 km/h (0 Bft)
04.06.2019 23:00 16,4 °C 82 % 1007,2 hPa 0,0 mm 0,0 km/h (0 Bft) SO 126 ° 0 min 0,000 mm 0,0 UV-I 0 W/m² 13,3 °C 16,4 °C 0,0 km/h (0 Bft)
04.06.2019 23:01 16,4 °C 83 % 1007,1 hPa 0,0 mm 0,0 km/h (0 Bft) SO 126 ° 0 min 0,025 mm 0,0 UV-I 0 W/m² 13,5 °C 16,4 °C 0,0 km/h (0 Bft)
04.06.2019 23:02 16,3 °C 83 % 1007,1 hPa 0,0 mm 0,0 km/h (0 Bft) SO 126 ° 0 min 0,000 mm 0,0 UV-I 0 W/m² 13,4 °C 16,3 °C 0,0 km/h (0 Bft)
04.06.2019 23:03 16,2 °C 83 % 1007,1 hPa 0,0 mm 0,0 km/h (0 Bft) SO 126 ° 0 min 0,000 mm 0,0 UV-I 0 W/m² 13,3 °C 16,2 °C 0,0 km/h (0 Bft)
04.06.2019 23:04 16,2 °C 83 % 1007,1 hPa 0,0 mm 0,0 km/h (0 Bft) SO 126 ° 0 min 0,000 mm 0,0 UV-I 0 W/m² 13,3 °C 16,2 °C 0,0 km/h (0 Bft)
04.06.2019 23:05 16,2 °C 83 % 1007,1 hPa 0,0 mm 0,0 km/h (0 Bft) SO 126 ° 0 min 0,000 mm 0,0 UV-I 0 W/m² 13,3 °C 16,2 °C 0,0 km/h (0 Bft)
04.06.2019 23:06 16,1 °C 84 % 1007,1 hPa 0,0 mm 0,0 km/h (0 Bft) SO 126 ° 0 min 0,000 mm 0,0 UV-I 0 W/m² 13,4 °C 16,1 °C 0,0 km/h (0 Bft)
04.06.2019 23:07 16,1 °C 84 % 1007,1 hPa 0,0 mm 0,0 km/h (0 Bft) SO 126 ° 0 min 0,000 mm 0,0 UV-I 0 W/m² 13,4 °C 16,1 °C 0,0 km/h (0 Bft)
04.06.2019 23:08 16,1 °C 84 % 1007,1 hPa 0,0 mm 0,0 km/h (0 Bft) SO 126 ° 0 min 0,000 mm 0,0 UV-I 0 W/m² 13,4 °C 16,1 °C 0,0 km/h (0 Bft)
04.06.2019 23:09 16,1 °C 84 % 1007,1 hPa 0,0 mm 0,0 km/h (0 Bft) SO 126 ° 0 min 0,000 mm 0,0 UV-I 0 W/m² 13,4 °C 16,1 °C 0,0 km/h (0 Bft)
04.06.2019 23:10 16,1 °C 83 % 1007,1 hPa 0,0 mm 0,0 km/h (0 Bft) SO 126 ° 0 min 0,000 mm 0,0 UV-I 0 W/m² 13,2 °C 16,1 °C 0,0 km/h (0 Bft)
04.06.2019 23:11 16,2 °C 83 % 1007,1 hPa 0,0 mm 0,0 km/h (0 Bft) SO 126 ° 0 min 0,000 mm 0,0 UV-I 0 W/m² 13,3 °C 16,2 °C 0,0 km/h (0 Bft)
04.06.2019 23:12 16,3 °C 83 % 1007,1 hPa 0,0 mm 0,3 km/h (0 Bft) SO 126 ° 0 min 0,000 mm 0,0 UV-I 0 W/m² 13,4 °C 16,3 °C 1,6 km/h (1 Bft)
04.06.2019 23:13 16,3 °C 83 % 1007,1 hPa 0,0 mm 0,0 km/h (0 Bft) SO 126 ° 0 min 0,000 mm 0,0 UV-I 0 W/m² 13,4 °C 16,3 °C 0,0 km/h (0 Bft)
04.06.2019 23:14 16,3 °C 82 % 1007,1 hPa 0,0 mm 0,0 km/h (0 Bft) SO 126 ° 0 min 0,000 mm 0,0 UV-I 0 W/m² 13,2 °C 16,3 °C 0,0 km/h (0 Bft)
04.06.2019 23:15 16,3 °C 82 % 1007,1 hPa 0,0 mm 0,0 km/h (0 Bft) SO 126 ° 0 min 0,000 mm 0,0 UV-I 0 W/m² 13,2 °C 16,3 °C 0,0 km/h (0 Bft)
04.06.2019 23:16 16,3 °C 82 % 1007,1 hPa 0,0 mm 0,0 km/h (0 Bft) SO 126 ° 0 min 0,000 mm 0,0 UV-I 0 W/m² 13,2 °C 16,3 °C 0,0 km/h (0 Bft)
04.06.2019 23:17 16,4 °C 82 % 1007,1 hPa 0,0 mm 0,0 km/h (0 Bft) SO 126 ° 0 min 0,000 mm 0,0 UV-I 0 W/m² 13,3 °C 16,4 °C 0,0 km/h (0 Bft)
04.06.2019 23:18 16,4 °C 82 % 1007,0 hPa 0,0 mm 0,0 km/h (0 Bft) SO 126 ° 0 min 0,000 mm 0,0 UV-I 0 W/m² 13,3 °C 16,4 °C 0,0 km/h (0 Bft)
04.06.2019 23:19 16,4 °C 82 % 1007,1 hPa 0,0 mm 0,0 km/h (0 Bft) SO 126 ° 0 min 0,000 mm 0,0 UV-I 0 W/m² 13,3 °C 16,4 °C 0,0 km/h (0 Bft)
04.06.2019 23:20 16,4 °C 82 % 1007,1 hPa 0,0 mm 0,0 km/h (0 Bft) SO 126 ° 0 min 0,000 mm 0,0 UV-I 0 W/m² 13,3 °C 16,4 °C 0,0 km/h (0 Bft)
04.06.2019 23:21 16,3 °C 82 % 1007,1 hPa 0,0 mm 0,0 km/h (0 Bft) SO 126 ° 0 min 0,000 mm 0,0 UV-I 0 W/m² 13,2 °C 16,3 °C 0,0 km/h (0 Bft)
04.06.2019 23:22 16,3 °C 82 % 1007,1 hPa 0,0 mm 0,0 km/h (0 Bft) SO 126 ° 0 min 0,000 mm 0,0 UV-I 0 W/m² 13,2 °C 16,3 °C 0,0 km/h (0 Bft)
04.06.2019 23:23 16,3 °C 82 % 1007,1 hPa 0,0 mm 0,0 km/h (0 Bft) SO 126 ° 0 min 0,000 mm 0,0 UV-I 0 W/m² 13,2 °C 16,3 °C 0,0 km/h (0 Bft)
04.06.2019 23:24 16,3 °C 82 % 1007,1 hPa 0,0 mm 0,0 km/h (0 Bft) SO 126 ° 0 min 0,000 mm 0,0 UV-I 0 W/m² 13,2 °C 16,3 °C 0,0 km/h (0 Bft)
04.06.2019 23:25 16,3 °C 82 % 1007,1 hPa 0,0 mm 0,0 km/h (0 Bft) SO 126 ° 0 min 0,000 mm 0,0 UV-I 0 W/m² 13,2 °C 16,3 °C 0,0 km/h (0 Bft)
04.06.2019 23:26 16,3 °C 82 % 1007,1 hPa 0,0 mm 0,0 km/h (0 Bft) SO 126 ° 0 min 0,000 mm 0,0 UV-I 0 W/m² 13,2 °C 16,3 °C 0,0 km/h (0 Bft)
04.06.2019 23:27 16,3 °C 82 % 1007,1 hPa 0,0 mm 0,0 km/h (0 Bft) SO 126 ° 0 min 0,000 mm 0,0 UV-I 0 W/m² 13,2 °C 16,3 °C 0,0 km/h (0 Bft)
04.06.2019 23:28 16,3 °C 82 % 1007,1 hPa 0,0 mm 0,0 km/h (0 Bft) SO 126 ° 0 min 0,000 mm 0,0 UV-I 0 W/m² 13,2 °C 16,3 °C 0,0 km/h (0 Bft)
04.06.2019 23:29 16,3 °C 81 % 1007,1 hPa 0,0 mm 0,0 km/h (0 Bft) SO 126 ° 0 min 0,000 mm 0,0 UV-I 0 W/m² 13,0 °C 16,3 °C 0,0 km/h (0 Bft)
04.06.2019 23:30 16,3 °C 81 % 1007,1 hPa 0,0 mm 0,0 km/h (0 Bft) SO 126 ° 0 min 0,000 mm 0,0 UV-I 0 W/m² 13,0 °C 16,3 °C 0,0 km/h (0 Bft)
04.06.2019 23:31 16,3 °C 82 % 1007,1 hPa 0,0 mm 0,0 km/h (0 Bft) SO 126 ° 0 min 0,000 mm 0,0 UV-I 0 W/m² 13,2 °C 16,3 °C 0,0 km/h (0 Bft)
04.06.2019 23:32 16,3 °C 82 % 1007,1 hPa 0,0 mm 0,6 km/h (0 Bft) SO 126 ° 0 min 0,000 mm 0,0 UV-I 0 W/m² 13,2 °C 16,3 °C 3,2 km/h (1 Bft)
04.06.2019 23:33 16,3 °C 82 % 1007,1 hPa 0,0 mm 0,0 km/h (0 Bft) SO 126 ° 0 min 0,000 mm 0,0 UV-I 0 W/m² 13,2 °C 16,3 °C 0,0 km/h (0 Bft)
04.06.2019 23:34 16,3 °C 82 % 1007,1 hPa 0,0 mm 0,0 km/h (0 Bft) SO 126 ° 0 min 0,000 mm 0,0 UV-I 0 W/m² 13,2 °C 16,3 °C 0,0 km/h (0 Bft)
04.06.2019 23:35 16,3 °C 81 % 1007,0 hPa 0,0 mm 0,0 km/h (0 Bft) SO 126 ° 0 min 0,000 mm 0,0 UV-I 0 W/m² 13,0 °C 16,3 °C 0,0 km/h (0 Bft)
04.06.2019 23:36 16,2 °C 82 % 1007,0 hPa 0,0 mm 0,0 km/h (0 Bft) SO 126 ° 0 min 0,000 mm 0,0 UV-I 0 W/m² 13,1 °C 16,2 °C 0,0 km/h (0 Bft)
04.06.2019 23:37 16,2 °C 82 % 1007,0 hPa 0,0 mm 0,0 km/h (0 Bft) SO 126 ° 0 min 0,000 mm 0,0 UV-I 0 W/m² 13,1 °C 16,2 °C 0,0 km/h (0 Bft)
04.06.2019 23:38 16,2 °C 83 % 1007,0 hPa 0,0 mm 0,0 km/h (0 Bft) SO 126 ° 0 min 0,000 mm 0,0 UV-I 0 W/m² 13,3 °C 16,2 °C 0,0 km/h (0 Bft)
04.06.2019 23:39 16,2 °C 83 % 1007,0 hPa 0,0 mm 0,0 km/h (0 Bft) SO 126 ° 0 min 0,000 mm 0,0 UV-I 0 W/m² 13,3 °C 16,2 °C 0,0 km/h (0 Bft)
04.06.2019 23:40 16,1 °C 83 % 1007,0 hPa 0,0 mm 0,9 km/h (0 Bft) N-NW 338 ° 0 min 0,000 mm 0,0 UV-I 0 W/m² 13,2 °C 16,1 °C 6,4 km/h (2 Bft)
04.06.2019 23:41 16,1 °C 83 % 1006,9 hPa 0,0 mm 2,3 km/h (1 Bft) SW 215 ° 0 min 0,000 mm 0,0 UV-I 0 W/m² 13,2 °C 16,1 °C 6,4 km/h (2 Bft)
04.06.2019 23:42 16,1 °C 83 % 1006,9 hPa 0,0 mm 0,0 km/h (0 Bft) SW 215 ° 0 min 0,000 mm 0,0 UV-I 0 W/m² 13,2 °C 16,1 °C 0,0 km/h (0 Bft)
04.06.2019 23:43 16,0 °C 83 % 1006,9 hPa 0,0 mm 0,0 km/h (0 Bft) SW 215 ° 0 min 0,000 mm 0,0 UV-I 0 W/m² 13,1 °C 16,0 °C 0,0 km/h (0 Bft)
04.06.2019 23:44 16,0 °C 83 % 1006,9 hPa 0,0 mm 0,0 km/h (0 Bft) SW 215 ° 0 min 0,000 mm 0,0 UV-I 0 W/m² 13,1 °C 16,0 °C 0,0 km/h (0 Bft)
04.06.2019 23:45 16,1 °C 83 % 1006,8 hPa 0,0 mm 0,1 km/h (0 Bft) SW 215 ° 0 min 0,000 mm 0,0 UV-I 0 W/m² 13,2 °C 16,1 °C 1,6 km/h (1 Bft)
04.06.2019 23:46 16,0 °C 83 % 1006,8 hPa 0,0 mm 0,0 km/h (0 Bft) SW 215 ° 0 min 0,000 mm 0,0 UV-I 0 W/m² 13,1 °C 16,0 °C 0,0 km/h (0 Bft)
04.06.2019 23:47 16,0 °C 83 % 1006,8 hPa 0,0 mm 0,0 km/h (0 Bft) SW 215 ° 0 min 0,000 mm 0,0 UV-I 0 W/m² 13,1 °C 16,0 °C 0,0 km/h (0 Bft)
04.06.2019 23:48 16,0 °C 83 % 1006,8 hPa 0,0 mm 1,2 km/h (1 Bft) W-NW 289 ° 0 min 0,000 mm 0,0 UV-I 0 W/m² 13,1 °C 16,0 °C 3,2 km/h (1 Bft)
04.06.2019 23:49 16,0 °C 83 % 1006,8 hPa 0,0 mm 1,0 km/h (0 Bft) W-NW 289 ° 0 min 0,000 mm 0,0 UV-I 0 W/m² 13,1 °C 16,0 °C 3,2 km/h (1 Bft)
04.06.2019 23:50 15,9 °C 83 % 1006,8 hPa 0,0 mm 0,0 km/h (0 Bft) W-NW 289 ° 0 min 0,000 mm 0,0 UV-I 0 W/m² 13,0 °C 15,9 °C 0,0 km/h (0 Bft)
04.06.2019 23:51 15,9 °C 83 % 1006,8 hPa 0,0 mm 1,5 km/h (1 Bft) W-NW 289 ° 0 min 0,000 mm 0,0 UV-I 0 W/m² 13,0 °C 15,9 °C 4,8 km/h (1 Bft)
04.06.2019 23:52 15,9 °C 83 % 1006,8 hPa 0,0 mm 0,5 km/h (0 Bft) W-NW 289 ° 0 min 0,000 mm 0,0 UV-I 0 W/m² 13,0 °C 15,9 °C 1,6 km/h (1 Bft)
04.06.2019 23:53 15,9 °C 83 % 1006,8 hPa 0,0 mm 0,0 km/h (0 Bft) W-NW 289 ° 0 min 0,000 mm 0,0 UV-I 0 W/m² 13,0 °C 15,9 °C 0,0 km/h (0 Bft)
04.06.2019 23:54 15,9 °C 83 % 1006,8 hPa 0,0 mm 0,0 km/h (0 Bft) W-NW 289 ° 0 min 0,000 mm 0,0 UV-I 0 W/m² 13,0 °C 15,9 °C 0,0 km/h (0 Bft)
04.06.2019 23:55 15,9 °C 83 % 1006,8 hPa 0,0 mm 0,6 km/h (0 Bft) W-NW 289 ° 0 min 0,000 mm 0,0 UV-I 0 W/m² 13,0 °C 15,9 °C 1,6 km/h (1 Bft)
04.06.2019 23:56 15,9 °C 83 % 1006,8 hPa 0,0 mm 2,5 km/h (1 Bft) W-NW 289 ° 0 min 0,000 mm 0,0 UV-I 0 W/m² 13,0 °C 15,9 °C 3,2 km/h (1 Bft)
04.06.2019 23:57 15,9 °C 83 % 1006,8 hPa 0,0 mm 0,2 km/h (0 Bft) W-NW 289 ° 0 min 0,000 mm 0,0 UV-I 0 W/m² 13,0 °C 15,9 °C 1,6 km/h (1 Bft)
04.06.2019 23:58 15,9 °C 83 % 1006,8 hPa 0,0 mm 0,0 km/h (0 Bft) W-NW 289 ° 0 min 0,000 mm 0,0 UV-I 0 W/m² 13,0 °C 15,9 °C 0,0 km/h (0 Bft)
04.06.2019 23:59 15,9 °C 82 % 1006,8 hPa 0,0 mm 0,2 km/h (0 Bft) W-NW 289 ° 0 min 0,000 mm 0,0 UV-I 0 W/m² 12,8 °C 15,9 °C 1,6 km/h (1 Bft)
_ Min-Zeit 05:43 18:12 19:11 - 23:58 - - - - - - 05:43 05:43 23:58
Minimum _ 10,9 °C 45 % 1006,7 hPa - 0,0 km/h (0 Bft) - - - - - - 9,8 °C 10,9 °C 0,0 km/h (0 Bft)
_ Max-Zeit 15:54 04:03 00:08 07:43 17:46 - - 16:08 14:01 13:34 12:40 15:32 15:54 14:18
Maximum _ 26,4 °C 95 % 1014,0 hPa 0,2 mm 13,6 km/h
O (3 Bft)
- - 1 min 0,610 mm 6,9 UV-I 904 W/m² 16,2 °C 26,4 °C 25,7 km/h
O-NO (4 Bft)
Durchschnitt _ 18,8 °C 72 % 1009,6 hPa #0,2 mm 2,5 km/h (1 Bft) O-NO - #6:21 h #4,521 mm 3,7 UV-I 280 W/m² 13,0 °C 18,8 °C 4,6 km/h (1 Bft)